[[{"header":{"parameterUnit":"m.s-1","parameterCategory":1,"la1":31.0,"la2":29.5877,"lo1":-88.7671,"lo2":-86.6584,"dy":0.0162,"dx":0.0185,"nx":115,"ny":88,"refTime":"2024-04-13T06:00:00:Z","depth":0,"parameterNumber":2,"parameterNumberName":"U-component_of_WINDS"},"data":[0.0,0.0,0.0,0.0,0.0,0.0,0.0,0.0,0.0,0.0,0.0,0.0,0.0,0.0,0.0,0.0,0.0,0.0,0.0,0.0,0.0,0.0,0.0,0.0,0.0,0.0,0.0,0.0,0.0,0.0,0.0,0.0,0.0,0.0,0.0,0.0,0.0,0.0,0.0,0.0,0.0,0.0,0.0,0.0,0.0,0.0,0.0,0.0,0.0,0.0,0.0,0.0,0.0,0.0,0.0,0.0,0.0,0.0,0.0,0.0,0.0,0.0,0.0,0.0,0.0,0.0,0.0,0.0,0.0,0.0,0.0,0.0,0.0,0.0,0.0,0.0,0.0,0.0,0.0,0.0,0.0,0.0,0.0,0.0,0.0,0.0,0.0,0.0,0.0,0.0,0.0,0.0,0.0,0.0,0.0,0.0,0.0,0.0,0.0,0.0,0.0,0.0,0.0,0.0,0.0,0.0,0.0,0.0,0.0,0.0,0.0,0.0,0.0,0.0,0.0,0.0,0.0,0.0,0.0,0.0,0.0,0.0,0.0,0.0,0.0,0.0,0.0,0.0,0.0,0.0,0.0,0.0,0.0,0.0,0.0,0.0,0.0,0.0,0.0,0.0,0.0,0.0,0.0,0.0,0.0,0.0,0.0,0.0,0.0,0.0,0.0,0.0,0.0,0.0,0.0,0.0,0.0,0.0,0.0,0.0,0.0,0.0,0.0,0.0,0.0,0.0,0.0,0.0,0.0,0.0,0.0,0.0,0.0,0.0,0.0,0.0,0.0,0.0,0.0,0.0,0.0,0.0,0.0,0.0,0.0,0.0,0.0,0.0,0.0,0.0,0.0,0.0,0.0,0.0,0.0,0.0,0.0,0.0,0.0,0.0,0.0,0.0,0.0,0.0,0.0,0.0,0.0,0.0,0.0,0.0,0.0,0.0,0.0,0.0,0.0,0.0,0.0,0.0,0.0,0.0,0.0,0.0,0.0,0.0,0.0,0.0,0.0,0.0,0.0,0.0,0.0,0.0,0.0,0.0,0.0,0.0,0.0,0.0,0.0,0.0,0.0,0.0,0.0,0.0,0.0,0.0,0.0,0.0,0.0,0.0,0.0,0.0,0.0,0.0,0.0,0.0,0.0,0.0,0.0,0.0,0.0,0.0,0.0,0.0,0.0,0.0,0.0,0.0,0.0,0.0,0.0,0.0,0.0,0.0,0.0,0.0,0.0,0.0,0.0,0.0,0.0,0.0,0.0,0.0,0.0,0.0,0.0,0.0,0.0,0.0,0.0,0.0,0.0,0.0,0.0,0.0,0.0,0.0,0.0,0.0,0.0,0.0,0.0,0.0,0.0,0.0,0.0,0.0,0.0,0.0,0.0,0.0,0.0,0.0,0.0,0.0,0.0,0.0,0.0,0.0,0.0,0.0,0.0,0.0,0.0,0.0,0.0,0.0,0.0,0.0,0.0,0.0,0.0,0.0,0.0,0.0,0.0,0.0,0.0,0.0,0.0,0.0,0.0,0.0,0.0,0.0,0.0,0.0,0.0,0.0,0.0,0.0,0.0,0.0,0.0,0.0,0.0,0.0,0.0,0.0,0.0,0.0,0.0,0.0,0.0,0.0,0.0,0.0,0.0,0.0,0.0,0.0,0.0,0.0,0.0,0.0,0.0,0.0,0.0,0.0,0.0,0.0,0.0,0.0,0.0,0.0,0.0,0.0,0.0,0.0,0.0,0.0,0.0,0.0,0.0,0.0,0.0,0.0,0.0,0.0,0.0,0.0,0.0,0.0,0.0,0.0,0.0,0.0,0.0,0.0,0.0,0.0,0.0,0.0,0.0,0.0,0.0,0.0,0.0,0.0,0.0,0.0,0.0,0.0,0.0,0.0,0.0,0.0,0.0,0.0,0.0,0.0,0.0,0.0,0.0,0.0,0.0,0.0,0.0,0.0,0.0,0.0,0.0,0.0,0.0,0.0,0.0,0.0,0.0,0.0,0.0,0.0,0.0,0.0,0.0,0.0,0.0,0.0,0.0,0.0,0.0,0.0,0.0,0.0,0.0,0.0,0.0,0.0,0.0,0.0,0.0,0.0,0.0,0.0,0.0,0.0,0.0,0.0,0.0,0.0,0.0,0.0,0.0,0.0,0.0,0.0,0.0,0.0,0.0,0.0,0.0,0.0,0.0,0.0,0.0,0.0,0.0,0.0,0.0,0.0,0.0,0.0,0.0,0.0,0.0,0.0,0.0,0.0,0.0,0.0,0.0,0.0,0.0,0.0,0.0,0.0,0.0,0.0,0.0,0.0,0.0,0.0,0.0,0.0,0.0,0.0,0.0,0.0,0.0,0.0,0.0,0.0,0.0,0.0,0.0,0.0,0.0,0.0,0.0,0.0,0.0,0.0,0.0,0.0,0.0,0.0,0.0,0.0,0.0,0.0,0.0,0.0,0.0,0.0,0.0,0.0,0.0,0.0,0.0,0.0,0.0,0.0,0.0,0.0,0.0,0.0,0.0,0.0,0.0,0.0,0.0,0.0,0.0,0.0,0.0,0.0,0.0,0.0,0.0,0.0,0.0,0.0,0.0,0.0,0.0,0.0,0.0,0.0,0.0,0.0,0.0,0.0,0.0,0.0,0.0,0.0,0.0,0.0,0.0,0.0,0.0,0.0,0.0,0.0,0.0,0.0,0.0,0.0,0.0,0.0,0.0,0.0,0.0,0.0,0.0,0.0,0.0,0.0,0.0,0.0,0.0,0.0,0.0,0.0,0.0,0.0,0.0,0.0,0.0,0.0,0.0,0.0,0.0,0.0,0.0,0.0,0.0,0.0,0.0,0.0,0.0,0.0,0.0,0.0,0.0,0.0,0.0,0.0,0.0,0.0,0.0,0.0,0.0,0.0,0.0,0.0,0.0,0.0,0.0,0.0,0.0,0.0,0.0,0.0,0.0,0.0,0.0,0.0,0.0,0.0,0.0,0.0,0.0,0.0,0.0,0.0,0.0,0.0,0.0,0.0,0.0,0.0,0.0,0.0,0.0,0.0,0.0,0.0,0.0,0.0,0.0,0.0,0.0,0.0,0.0,0.0,0.0,0.0,0.0,0.0,0.0,0.0,0.0,0.0,0.0,0.0,0.0,0.0,0.0,0.0,0.0,0.0,0.0,0.0,0.0,0.0,0.0,0.0,0.0,0.0,0.0,0.0,0.0,0.0,0.0,0.0,0.0,0.0,0.0,0.0,0.0,0.0,0.0,0.0,0.0,0.0,0.0,0.0,0.0,0.0,0.0,0.0,0.0,0.0,0.0,0.0,0.0,0.0,0.0,0.0,0.0,0.0,0.0,0.0,0.0,0.0,0.0,0.0,0.0,0.0,0.0,0.0,0.0,0.0,0.0,0.0,0.0,0.0,0.0,0.0,0.0,0.0,0.0,0.0,0.0,0.0,0.0,0.0,0.0,0.0,0.0,0.0,0.0,0.0,0.0,0.0,0.0,0.0,0.0,0.0,0.0,0.0,0.0,0.0,0.0,0.0,0.0,0.0,0.0,0.0,0.0,0.0,0.0,0.0,0.0,0.0,0.0,0.0,0.0,0.0,0.0,0.0,0.0,0.0,0.0,0.0,0.0,0.0,0.0,0.0,0.0,0.0,0.0,0.0,0.0,0.0,0.0,0.0,0.0,0.0,0.0,0.0,0.0,0.0,0.0,0.0,0.0,0.0,0.0,0.0,0.0,0.0,0.0,0.0,0.0,0.0,0.0,0.0,0.0,0.0,0.0,0.0,0.0,0.0,0.0,0.0,0.0,0.0,0.0,0.0,0.0,0.0,0.0,0.0,0.0,0.0,0.0,0.0,0.0,0.0,0.0,0.0,0.0,0.0,0.0,0.0,0.0,0.0,0.0,0.0,0.0,0.0,0.0,0.0,0.0,0.0,0.0,0.0,0.0,0.0,0.0,0.0,0.0,0.0,0.0,0.0,0.0,0.0,0.0,0.0,0.0,0.0,0.0,0.0,0.0,0.0,0.0,0.0,0.0,0.0,0.0,0.0,0.0,0.0,0.0,0.0,0.0,0.0,0.0,0.0,0.0,0.0,0.0,0.0,0.0,0.0,0.0,0.0,0.0,0.0,0.0,0.0,0.0,0.0,0.0,0.0,0.0,0.0,0.0,0.0,0.0,0.0,0.0,0.0,0.0,0.0,0.0,0.0,0.0,0.0,0.0,0.0,0.0,0.0,0.0,0.0,0.0,0.0,0.0,0.0,0.0,0.0,0.0,0.0,0.0,0.0,2.5968,0.0,0.0,0.0,0.0,0.0,0.0,0.0,0.0,0.0,0.0,0.0,0.0,0.0,0.0,0.0,0.0,0.0,0.0,0.0,0.0,0.0,0.0,0.0,0.0,0.0,0.0,0.0,0.0,0.0,0.0,0.0,0.0,0.0,0.0,0.0,0.0,0.0,0.0,0.0,0.0,0.0,0.0,0.0,0.0,0.0,0.0,0.0,0.0,0.0,0.0,0.0,0.0,0.0,0.0,0.0,0.0,0.0,0.0,0.0,0.0,0.0,0.0,0.0,0.0,0.0,0.0,0.0,0.0,0.0,0.0,0.0,0.0,0.0,0.0,0.0,0.0,0.0,0.0,0.0,0.0,0.0,0.0,0.0,0.0,0.0,0.0,0.0,0.0,0.0,0.0,0.0,0.0,0.0,0.0,0.0,0.0,0.0,0.0,0.0,0.0,0.0,0.0,0.0,0.0,0.0,0.0,0.0,0.0,0.0,0.0,2.5314,2.4272,2.4555,2.485,2.4925,0.0,0.0,0.0,0.0,0.0,0.0,0.0,0.0,0.0,0.0,0.0,0.0,0.0,0.0,0.0,0.0,0.0,0.0,0.0,0.0,0.0,0.0,0.0,0.0,0.0,0.0,0.0,0.0,0.0,0.0,0.0,0.0,0.0,0.0,0.0,0.0,0.0,0.0,0.0,0.0,0.0,0.0,0.0,0.0,0.0,0.0,0.0,0.0,0.0,0.0,0.0,0.0,0.0,0.0,0.0,0.0,0.0,0.0,0.0,0.0,0.0,0.0,0.0,0.0,0.0,0.0,0.0,0.0,0.0,0.0,0.0,0.0,0.0,0.0,0.0,0.0,0.0,0.0,0.0,0.0,0.0,0.0,0.0,0.0,0.0,0.0,0.0,0.0,0.0,0.0,0.0,0.0,0.0,0.0,0.0,0.0,0.0,0.0,0.0,0.0,0.0,0.0,0.0,0.0,0.0,0.0,0.0,0.0,0.0,0.0,0.0,0.0,2.3907,2.3866,2.3839,0.0,0.0,0.0,0.0,0.0,0.0,0.0,0.0,0.0,0.0,0.0,0.0,0.0,0.0,0.0,0.0,0.0,0.0,0.0,0.0,0.0,0.0,0.0,0.0,0.0,0.0,0.0,0.0,0.0,0.0,0.0,0.0,0.0,0.0,0.0,0.0,0.0,0.0,0.0,0.0,0.0,0.0,0.0,0.0,0.0,0.0,0.0,0.0,0.0,0.0,0.0,0.0,0.0,0.0,0.0,0.0,0.0,0.0,0.0,0.0,0.0,0.0,0.0,0.0,0.0,0.0,0.0,0.0,0.0,0.0,0.0,0.0,0.0,0.0,0.0,0.0,0.0,0.0,0.0,0.0,0.0,0.0,0.0,0.0,0.0,0.0,0.0,0.0,0.0,0.0,0.0,0.0,0.0,0.0,0.0,0.0,0.0,0.0,0.0,0.0,0.0,0.0,0.0,0.0,0.0,0.0,0.0,0.0,0.0,0.0,2.55,2.4727,2.4137,0.0,2.2931,0.0,0.0,0.0,0.0,0.0,0.0,0.0,0.0,0.0,0.0,0.0,0.0,0.0,0.0,0.0,0.0,0.0,0.0,0.0,0.0,0.0,0.0,0.0,0.0,0.0,0.0,0.0,0.0,0.0,0.0,0.0,0.0,0.0,0.0,0.0,0.0,0.0,0.0,0.0,0.0,0.0,0.0,0.0,0.0,0.0,0.0,0.0,0.0,0.0,0.0,0.0,0.0,0.0,0.0,0.0,0.0,0.0,0.0,0.0,0.0,0.0,0.0,0.0,0.0,0.0,0.0,0.0,0.0,0.0,0.0,0.0,0.0,0.0,0.0,0.0,0.0,0.0,0.0,0.0,0.0,0.0,0.0,0.0,0.0,0.0,0.0,0.0,0.0,0.0,0.0,0.0,0.0,0.0,0.0,0.0,0.0,0.0,0.0,0.0,0.0,0.0,0.0,0.0,0.0,0.0,0.0,0.0,0.0,0.0,0.0,2.4156,2.3408,2.3082,2.2778,0.0,0.0,0.0,0.0,0.0,0.0,0.0,0.0,0.0,0.0,0.0,0.0,0.0,0.0,0.0,0.0,0.0,0.0,0.0,0.0,0.0,0.0,0.0,0.0,0.0,0.0,0.0,0.0,0.0,0.0,0.0,0.0,0.0,0.0,0.0,0.0,0.0,0.0,0.0,0.0,0.0,0.0,0.0,0.0,0.0,0.0,0.0,0.0,0.0,0.0,0.0,0.0,0.0,0.0,0.0,0.0,0.0,0.0,0.0,0.0,0.0,0.0,0.0,0.0,0.0,0.0,0.0,0.0,0.0,0.0,0.0,0.0,0.0,0.0,0.0,0.0,0.0,0.0,0.0,0.0,0.0,0.0,0.0,0.0,0.0,0.0,0.0,0.0,0.0,0.0,0.0,0.0,0.0,0.0,0.0,0.0,0.0,0.0,0.0,0.0,0.0,0.0,0.0,0.0,0.0,0.0,0.0,0.0,0.0,0.0,2.3507,2.346,2.2725,2.2493,2.2384,2.2509,0.0,0.0,0.0,0.0,0.0,0.0,0.0,0.0,0.0,0.0,0.0,0.0,0.0,0.0,0.0,0.0,0.0,0.0,0.0,0.0,0.0,0.0,0.0,0.0,0.0,0.0,0.0,0.0,0.0,0.0,0.0,0.0,0.0,0.0,0.0,0.0,0.0,0.0,0.0,0.0,0.0,0.0,0.0,0.0,0.0,0.0,0.0,0.0,0.0,0.0,0.0,0.0,0.0,0.0,0.0,0.0,0.0,0.0,0.0,0.0,0.0,0.0,0.0,0.0,0.0,0.0,0.0,0.0,0.0,0.0,0.0,0.0,0.0,0.0,0.0,0.0,0.0,0.0,0.0,0.0,0.0,0.0,0.0,0.0,0.0,0.0,0.0,0.0,0.0,0.0,0.0,0.0,0.0,0.0,0.0,0.0,0.0,0.0,0.0,0.0,0.0,0.0,0.0,0.0,0.0,0.0,0.0,0.0,2.324,2.3973,2.4046,2.3163,2.293,2.2631,0.0,0.0,0.0,0.0,0.0,0.0,0.0,0.0,0.0,0.0,0.0,0.0,0.0,0.0,0.0,0.0,0.0,0.0,0.0,0.0,0.0,0.0,0.0,0.0,0.0,0.0,0.0,0.0,0.0,0.0,0.0,0.0,0.0,0.0,0.0,0.0,0.0,0.0,0.0,0.0,0.0,0.0,0.0,0.0,0.0,0.0,0.0,0.0,0.0,0.0,0.0,0.0,0.0,0.0,0.0,0.0,0.0,0.0,0.0,0.0,0.0,0.0,0.0,0.0,0.0,0.0,0.0,0.0,0.0,0.0,0.0,0.0,0.0,0.0,0.0,0.0,0.0,0.0,0.0,0.0,0.0,0.0,0.0,0.0,0.0,0.0,0.0,0.0,0.0,0.0,0.0,0.0,0.0,0.0,0.0,0.0,0.0,0.0,0.0,0.0,0.0,0.0,0.0,0.0,0.0,0.0,0.0,0.0,0.0,2.2408,2.2642,2.2966,2.3209,2.2763,2.2737,0.0,0.0,0.0,0.0,0.0,0.0,0.0,0.0,0.0,0.0,0.0,0.0,0.0,0.0,0.0,0.0,0.0,0.0,0.0,0.0,0.0,0.0,0.0,0.0,0.0,0.0,0.0,0.0,0.0,0.0,0.0,0.0,0.0,0.0,0.0,0.0,0.0,0.0,0.0,0.0,0.0,0.0,0.0,0.0,0.0,0.0,0.0,0.0,0.0,0.0,0.0,0.0,0.0,0.0,0.0,0.0,0.0,0.0,0.0,0.0,0.0,0.0,0.0,0.0,0.0,0.0,0.0,0.0,0.0,0.0,0.0,0.0,0.0,0.0,0.0,0.0,0.0,0.0,0.0,0.0,0.0,0.0,0.0,0.0,0.0,0.0,0.0,0.0,0.0,0.0,0.0,0.0,0.0,0.0,0.0,0.0,0.0,0.0,0.0,0.0,0.0,0.0,0.0,0.0,0.0,0.0,0.0,0.0,0.0,2.2029,0.0,2.2868,2.3252,2.2762,2.2666,0.0,0.0,0.0,0.0,0.0,0.0,0.0,0.0,0.0,0.0,0.0,0.0,0.0,0.0,0.0,0.0,0.0,0.0,0.0,0.0,0.0,0.0,0.0,0.0,0.0,0.0,0.0,0.0,0.0,0.0,0.0,0.0,0.0,0.0,0.0,0.0,0.0,0.0,0.0,0.0,0.0,0.0,0.0,0.0,0.0,0.0,0.0,0.0,0.0,0.0,0.0,0.0,0.0,0.0,0.0,0.0,0.0,0.0,0.0,0.0,0.0,0.0,0.0,0.0,0.0,0.0,0.0,0.0,0.0,0.0,0.0,0.0,0.0,0.0,0.0,0.0,0.0,0.0,0.0,0.0,0.0,0.0,0.0,0.0,0.0,0.0,0.0,0.0,0.0,0.0,0.0,0.0,0.0,0.0,0.0,0.0,0.0,0.0,0.0,0.0,0.0,0.0,0.0,0.0,0.0,0.0,0.0,0.0,2.1589,2.2348,2.3547,2.3908,2.3403,2.3006,2.2633,0.0,0.0,0.0,0.0,0.0,0.0,0.0,0.0,0.0,0.0,0.0,0.0,0.0,0.0,0.0,0.0,0.0,0.0,0.0,0.0,0.0,0.0,0.0,0.0,0.0,0.0,0.0,0.0,0.0,0.0,0.0,0.0,0.0,0.0,0.0,0.0,0.0,0.0,0.0,0.0,0.0,0.0,0.0,0.0,0.0,0.0,0.0,0.0,0.0,0.0,0.0,0.0,0.0,0.0,0.0,0.0,0.0,0.0,0.0,0.0,0.0,0.0,0.0,0.0,0.0,0.0,0.0,0.0,0.0,0.0,0.0,0.0,0.0,0.0,0.0,0.0,0.0,0.0,0.0,0.0,0.0,0.0,0.0,0.0,0.0,0.0,0.0,0.0,0.0,0.0,0.0,0.0,0.0,0.0,0.0,0.0,0.0,0.0,0.0,0.0,0.0,0.0,0.0,0.0,0.0,0.0,0.0,0.0,0.0,2.2004,2.2757,2.3583,2.4249,2.3449,2.3133,0.0,0.0,0.0,0.0,0.0,0.0,0.0,0.0,0.0,0.0,0.0,0.0,0.0,0.0,0.0,0.0,0.0,0.0,0.0,0.0,0.0,0.0,0.0,0.0,0.0,0.0,0.0,0.0,0.0,0.0,0.0,0.0,0.0,0.0,0.0,0.0,0.0,0.0,0.0,0.0,0.0,0.0,0.0,0.0,0.0,0.0,0.0,0.0,0.0,0.0,0.0,0.0,0.0,0.0,0.0,0.0,0.0,0.0,0.0,0.0,0.0,0.0,0.0,0.0,0.0,0.0,0.0,0.0,0.0,0.0,0.0,0.0,0.0,0.0,0.0,0.0,0.0,0.0,0.0,0.0,0.0,0.0,0.0,0.0,0.0,0.0,0.0,0.0,0.0,0.0,0.0,0.0,0.0,0.0,0.0,0.0,0.0,0.0,0.0,0.0,0.0,0.0,0.0,0.0,0.0,0.0,0.0,0.0,0.0,2.3636,2.352,2.3801,2.4515,2.366,2.3209,2.3416,0.0,0.0,0.0,0.0,0.0,0.0,0.0,0.0,0.0,0.0,0.0,0.0,0.0,0.0,0.0,0.0,0.0,0.0,0.0,0.0,0.0,0.0,0.0,0.0,0.0,0.0,0.0,0.0,0.0,0.0,0.0,0.0,0.0,0.0,0.0,0.0,0.0,0.0,0.0,0.0,0.0,0.0,0.0,0.0,0.0,0.0,0.0,0.0,0.0,0.0,0.0,0.0,0.0,0.0,0.0,0.0,0.0,0.0,0.0,0.0,0.0,0.0,0.0,0.0,0.0,0.0,0.0,0.0,0.0,0.0,0.0,0.0,0.0,0.0,0.0,0.0,0.0,0.0,0.0,0.0,0.0,0.0,0.0,0.0,0.0,0.0,0.0,0.0,0.0,0.0,0.0,0.0,0.0,0.0,0.0,0.0,0.0,0.0,0.0,0.0,0.0,0.0,0.0,0.0,0.0,0.0,0.0,0.0,2.6822,2.5568,2.4727,2.439,2.3654,2.3058,0.0,0.0,0.0,0.0,0.0,0.0,0.0,0.0,0.0,0.0,0.0,0.0,0.0,0.0,0.0,0.0,0.0,0.0,0.0,0.0,0.0,0.0,0.0,0.0,0.0,0.0,0.0,0.0,0.0,0.0,0.0,0.0,0.0,0.0,0.0,0.0,0.0,0.0,0.0,0.0,0.0,0.0,0.0,0.0,0.0,0.0,0.0,0.0,0.0,0.0,0.0,0.0,0.0,0.0,0.0,0.0,0.0,0.0,0.0,0.0,0.0,0.0,0.0,0.0,0.0,0.0,0.0,0.0,0.0,0.0,0.0,0.0,0.0,0.0,0.0,0.0,0.0,0.0,0.0,0.0,0.0,0.0,0.0,0.0,0.0,0.0,0.0,0.0,0.0,0.0,0.0,0.0,0.0,0.0,0.0,0.0,0.0,0.0,0.0,0.0,0.0,0.0,0.0,0.0,0.0,0.0,0.0,0.0,0.0,2.7133,2.6667,2.6295,2.6137,2.4325,2.3342,0.0,0.0,0.0,0.0,0.0,0.0,0.0,0.0,0.0,0.0,0.0,0.0,0.0,0.0,0.0,0.0,0.0,0.0,0.0,0.0,0.0,0.0,0.0,0.0,0.0,0.0,0.0,0.0,0.0,0.0,0.0,0.0,0.0,0.0,0.0,0.0,0.0,0.0,0.0,0.0,0.0,0.0,0.0,0.0,0.0,0.0,0.0,0.0,0.0,0.0,0.0,0.0,0.0,0.0,0.0,0.0,0.0,0.0,0.0,0.0,0.0,0.0,0.0,0.0,0.0,0.0,0.0,0.0,0.0,0.0,0.0,0.0,0.0,0.0,0.0,0.0,0.0,0.0,0.0,0.0,0.0,0.0,0.0,0.0,0.0,0.0,0.0,0.0,0.0,0.0,0.0,0.0,0.0,0.0,0.0,0.0,0.0,0.0,0.0,0.0,0.0,0.0,0.0,0.0,0.0,0.0,0.0,0.0,2.7124,2.8513,2.791,2.7432,2.7141,2.5193,2.4002,0.0,0.0,0.0,0.0,0.0,0.0,0.0,0.0,0.0,0.0,0.0,0.0,0.0,0.0,0.0,0.0,0.0,0.0,0.0,0.0,0.0,0.0,0.0,0.0,0.0,0.0,0.0,0.0,0.0,0.0,0.0,0.0,0.0,0.0,0.0,0.0,0.0,0.0,0.0,0.0,0.0,0.0,0.0,0.0,0.0,0.0,0.0,0.0,0.0,0.0,0.0,0.0,0.0,0.0,0.0,0.0,0.0,0.0,0.0,0.0,0.0,0.0,0.0,0.0,0.0,0.0,0.0,0.0,0.0,0.0,0.0,0.0,0.0,0.0,0.0,0.0,0.0,0.0,0.0,0.0,0.0,0.0,0.0,0.0,0.0,0.0,0.0,0.0,0.0,0.0,0.0,0.0,0.0,0.0,0.0,0.0,0.0,0.0,0.0,0.0,0.0,0.0,0.0,0.0,0.0,0.0,0.0,0.0,2.9362,3.005,2.913,2.8292,2.7578,2.6083,2.476,0.0,0.0,0.0,0.0,0.0,0.0,0.0,0.0,0.0,0.0,0.0,0.0,0.0,0.0,0.0,0.0,0.0,0.0,0.0,0.0,0.0,0.0,0.0,0.0,0.0,0.0,0.0,0.0,0.0,0.0,0.0,0.0,0.0,0.0,0.0,0.0,0.0,0.0,0.0,0.0,0.0,0.0,0.0,0.0,0.0,0.0,0.0,0.0,0.0,0.0,0.0,0.0,0.0,0.0,0.0,0.0,0.0,0.0,0.0,0.0,0.0,0.0,0.0,0.0,0.0,0.0,0.0,0.0,0.0,0.0,0.0,0.0,0.0,0.0,0.0,0.0,0.0,0.0,0.0,0.0,0.0,0.0,0.0,0.0,0.0,0.0,0.0,0.0,0.0,0.0,0.0,0.0,0.0,0.0,0.0,0.0,0.0,0.0,0.0,0.0,0.0,0.0,0.0,0.0,0.0,0.0,0.0,0.0,2.9341,3.0079,2.9622,2.8981,2.8137,2.6129,2.4611,0.0,0.0,0.0,0.0,0.0,0.0,0.0,0.0,0.0,0.0,0.0,0.0,0.0,0.0,0.0,0.0,0.0,0.0,0.0,0.0,0.0,0.0,0.0,0.0,0.0,0.0,0.0,0.0,0.0,0.0,0.0,0.0,0.0,0.0,0.0,0.0,0.0,0.0,0.0,0.0,0.0,0.0,0.0,0.0,0.0,0.0,0.0,0.0,1.6677,0.0,0.0,0.0,0.0,0.0,0.0,0.0,0.0,0.0,0.0,0.0,0.0,0.0,0.0,0.0,0.0,0.0,0.0,0.0,0.0,0.0,0.0,0.0,0.0,0.0,0.0,0.0,0.0,0.0,0.0,0.0,0.0,0.0,0.0,0.0,0.0,0.0,0.0,0.0,0.0,0.0,0.0,0.0,0.0,0.0,0.0,0.0,0.0,0.0,0.0,0.0,0.0,0.0,0.0,0.0,0.0,0.0,0.0,0.0,2.9173,2.9366,2.9352,2.8937,2.8062,2.6743,2.5479,0.0,0.0,0.0,0.0,0.0,0.0,0.0,0.0,0.0,0.0,0.0,0.0,0.0,0.0,0.0,0.0,0.0,0.0,0.0,0.0,0.0,0.0,0.0,0.0,0.0,0.0,0.0,0.0,0.0,0.0,0.0,0.0,0.0,0.0,0.0,0.0,0.0,0.0,0.0,0.0,0.0,0.0,0.0,0.0,0.0,0.0,0.0,0.0,0.0,0.0,0.0,0.0,0.0,0.0,0.0,0.0,0.0,0.0,0.0,0.0,0.0,0.0,0.0,0.0,0.0,0.0,0.0,0.0,0.0,0.0,0.0,0.0,0.0,0.0,0.0,0.0,0.0,0.0,0.0,0.0,0.0,0.0,0.0,0.0,0.0,0.0,0.0,0.0,0.0,0.0,0.0,0.0,0.0,0.0,0.0,0.0,0.0,0.0,0.0,0.0,0.0,0.0,0.0,0.0,0.0,0.0,0.0,2.8768,2.8844,2.8444,2.878,2.858,2.7824,2.7547,2.6694,2.5196,0.0,0.0,0.0,0.0,0.0,0.0,0.0,0.0,0.0,0.0,0.0,0.0,0.0,0.0,0.0,0.0,0.0,0.0,0.0,0.0,0.0,0.0,0.0,0.0,0.0,0.0,0.0,0.0,0.0,0.0,0.0,0.0,0.0,0.0,0.0,0.0,0.0,0.0,1.8485,1.6839,0.0,0.0,0.0,0.0,0.0,0.0,0.0,0.0,1.5784,0.0,0.0,0.0,0.0,0.0,0.0,0.0,0.0,0.0,0.0,0.0,0.0,0.0,0.0,0.0,0.0,0.0,0.0,0.0,0.0,0.0,0.0,0.0,0.0,0.0,0.0,0.0,0.0,0.0,0.0,0.0,0.0,0.0,0.0,0.0,0.0,0.0,0.0,0.0,0.0,0.0,0.0,0.0,0.0,0.0,0.0,0.0,0.0,0.0,0.0,0.0,0.0,0.0,0.0,0.0,0.0,2.9044,2.8912,2.8468,2.7683,2.8157,2.8252,2.7809,2.8167,2.7507,2.5738,0.0,0.0,0.0,0.0,0.0,0.0,0.0,0.0,0.0,0.0,0.0,0.0,0.0,0.0,0.0,0.0,0.0,0.0,0.0,0.0,0.0,0.0,0.0,0.0,0.0,0.0,0.0,0.0,0.0,0.0,0.0,0.0,0.0,0.0,0.0,0.0,0.0,0.0,0.0,1.8437,1.7695,0.0,0.0,0.0,0.0,0.0,0.0,0.0,0.0,1.5485,0.0,0.0,0.0,0.0,0.0,0.0,0.0,0.0,0.0,0.0,0.0,0.0,0.0,0.0,0.0,0.0,0.0,0.0,0.0,0.0,0.0,0.0,0.0,0.0,0.0,0.0,0.0,0.0,0.0,0.0,0.0,0.0,0.0,0.0,0.0,0.0,0.0,0.0,0.0,0.0,0.0,0.0,0.0,0.0,0.0,0.0,0.0,0.0,0.0,0.0,0.0,0.0,0.0,0.0,0.0,2.8829,2.8143,2.7497,2.7095,2.743,2.7696,2.7774,2.802,2.7379,0.0,0.0,0.0,0.0,0.0,0.0,0.0,0.0,0.0,0.0,0.0,0.0,0.0,0.0,0.0,0.0,0.0,0.0,0.0,0.0,0.0,0.0,0.0,0.0,0.0,0.0,0.0,0.0,0.0,0.0,0.0,0.0,0.0,0.0,0.0,0.0,0.0,0.0,0.0,0.0,1.7103,1.6177,1.5748,0.0,0.0,0.0,0.0,0.0,0.0,1.395,1.4669,0.0,0.0,0.0,0.0,0.0,0.0,0.0,0.0,0.0,0.0,0.0,0.0,0.0,0.0,0.0,0.0,0.0,0.0,0.0,0.0,0.0,0.0,0.0,0.0,0.0,0.0,0.0,0.0,0.0,0.0,0.0,0.0,0.0,0.0,0.0,0.0,0.0,0.0,0.0,0.0,0.0,0.0,0.0,0.0,0.0,0.0,0.0,0.0,0.0,0.0,0.0,0.0,0.0,0.0,0.0,2.8427,2.7204,2.6577,2.6508,2.6701,2.7108,2.7604,2.7834,2.7305,0.0,0.0,0.0,0.0,0.0,0.0,0.0,0.0,0.0,0.0,0.0,0.0,0.0,0.0,0.0,0.0,0.0,0.0,0.0,0.0,0.0,0.0,0.0,0.0,0.0,0.0,0.0,0.0,0.0,0.0,0.0,0.0,0.0,0.0,0.0,0.0,0.0,0.0,0.0,0.0,0.0,1.4572,1.4664,1.4511,0.0,0.0,0.0,0.0,1.2116,1.3225,0.0,0.0,0.0,0.0,0.0,0.0,0.0,0.0,0.0,0.0,0.0,0.0,0.0,0.0,0.0,0.0,0.0,0.0,0.0,0.0,0.0,0.0,0.0,0.0,0.0,0.0,0.0,0.0,0.0,0.0,0.0,0.0,0.0,0.0,0.0,0.0,0.0,0.0,0.0,0.0,0.0,0.0,0.0,0.0,0.0,0.0,0.0,0.0,0.0,0.0,0.0,0.0,0.0,0.0,0.0,0.0,2.8247,2.7069,2.622,2.5746,2.6094,2.6564,2.7059,2.8108,2.8002,0.0,0.0,0.0,0.0,0.0,0.0,0.0,0.0,0.0,0.0,0.0,0.0,0.0,0.0,0.0,0.0,0.0,0.0,0.0,0.0,0.0,0.0,0.0,0.0,0.0,0.0,0.0,0.0,0.0,0.0,0.0,0.0,0.0,0.0,0.0,0.0,0.0,0.0,0.0,0.0,0.0,1.556,1.4789,1.4817,1.4699,0.0,0.0,1.405,1.3776,1.4108,0.0,0.0,0.0,0.0,0.0,0.0,0.0,0.0,0.0,0.0,0.0,0.0,0.0,0.0,0.0,0.0,0.0,0.0,0.0,0.0,0.0,0.0,0.0,0.0,0.0,0.0,0.0,0.0,0.0,0.0,0.0,0.0,0.0,0.0,0.0,0.0,0.0,0.0,0.0,0.0,0.0,0.0,0.0,0.0,0.0,0.0,0.0,0.0,0.0,0.0,0.0,0.0,0.0,0.0,0.0,2.8454,2.7789,2.6688,2.6037,2.5758,2.5746,2.607,2.696,2.7897,2.7874,0.0,0.0,0.0,0.0,0.0,0.0,0.0,0.0,0.0,0.0,0.0,0.0,0.0,0.0,0.0,0.0,0.0,0.0,0.0,0.0,0.0,0.0,0.0,0.0,0.0,0.0,0.0,0.0,0.0,0.0,0.0,0.0,0.0,0.0,0.0,0.0,0.0,0.0,0.0,0.0,0.0,0.0,1.3789,1.43,0.0,0.0,0.0,1.3743,1.2705,0.0,0.0,0.0,0.0,0.0,0.0,0.0,0.0,0.0,0.0,0.0,0.0,0.0,0.0,0.0,0.0,0.0,0.0,0.0,0.0,0.0,0.0,0.0,0.0,0.0,0.0,0.0,0.0,0.0,0.0,0.0,0.0,0.0,0.0,0.0,0.0,0.0,0.0,0.0,0.0,0.0,0.0,0.0,0.0,0.0,0.0,0.0,0.0,0.0,0.0,0.0,0.0,0.0,0.0,0.0,0.0,0.0,2.687,2.5824,2.53,2.53,2.53,2.5861,2.694,2.7647,0.0,0.0,0.0,0.0,0.0,0.0,0.0,0.0,0.0,0.0,0.0,0.0,0.0,0.0,0.0,0.0,0.0,0.0,0.0,0.0,0.0,0.0,0.0,0.0,0.0,0.0,0.0,1.5014,0.0,0.0,0.0,0.0,0.0,0.0,0.0,0.0,0.0,0.0,0.0,0.0,0.0,0.0,1.4789,1.3542,1.4055,1.43,0.0,0.0,1.3568,1.2186,1.21,1.1671,0.0,0.0,0.0,0.0,0.0,0.0,0.0,0.0,0.0,0.0,0.0,0.0,0.0,0.0,0.0,0.0,0.0,0.0,0.0,0.0,0.0,0.0,0.0,0.0,0.0,0.0,0.0,0.0,0.0,0.0,0.0,0.0,0.0,0.0,0.0,0.0,0.0,0.0,0.0,0.0,0.0,0.0,0.0,0.0,0.0,0.0,0.0,0.0,0.0,0.0,0.0,0.0,0.0,0.0,0.0,2.5269,2.4221,2.37,2.37,2.4779,2.5861,2.694,2.7656,2.7914,0.0,0.0,0.0,0.0,0.0,0.0,0.0,0.0,0.0,0.0,0.0,0.0,0.0,0.0,0.0,0.0,0.0,0.0,0.0,0.0,0.0,0.0,0.0,0.0,0.0,0.0,0.0,0.0,0.0,0.0,0.0,0.0,0.0,0.0,0.0,0.0,0.0,0.0,0.0,0.0,0.0,1.4378,1.5144,1.4727,1.4196,0.0,1.3594,1.3737,1.3913,1.3222,1.2443,1.1929,0.0,0.0,0.0,0.0,0.0,0.0,0.0,0.0,0.0,0.0,0.0,0.0,0.0,0.0,0.0,0.0,0.0,0.0,0.0,0.0,0.0,0.0,0.0,0.0,0.0,0.0,0.0,0.0,0.0,0.0,0.0,0.0,0.0,0.0,0.0,0.0,0.0,0.0,0.0,0.0,0.0,0.0,0.0,0.0,0.0,0.0,0.0,0.0,0.0,0.0,0.0,0.0,0.0,2.4919,2.4377,2.2794,2.2456,2.347,2.37,2.466,2.6483,2.7485,2.7917,0.0,0.0,0.0,0.0,0.0,0.0,0.0,0.0,0.0,0.0,0.0,0.0,0.0,0.0,0.0,0.0,0.0,0.0,0.0,0.0,0.0,0.0,0.0,0.0,0.0,0.0,0.0,0.0,1.5493,1.6027,1.5394,0.0,0.0,0.0,0.0,0.0,0.0,0.0,0.0,0.0,0.0,1.669,1.5553,1.5718,0.0,0.0,1.3898,1.4432,1.4155,1.2826,1.1488,1.0265,0.9318,0.0,0.0,0.0,0.0,0.0,0.0,0.0,0.0,0.0,0.0,0.0,0.0,0.0,0.0,0.0,0.0,0.0,0.0,0.0,0.0,0.0,0.0,0.0,0.0,0.0,0.0,0.0,0.0,0.0,0.0,0.0,0.0,0.0,0.0,0.0,0.0,0.0,0.0,0.0,0.0,0.0,0.0,0.0,0.0,0.0,0.0,0.0,0.0,0.0,0.0,0.0,0.0,2.3781,2.3245,2.1277,2.107,2.27,2.287,2.399,2.612,2.7359,2.7905,0.0,0.0,0.0,0.0,0.0,0.0,0.0,0.0,0.0,0.0,0.0,0.0,0.0,0.0,0.0,0.0,0.0,0.0,0.0,0.0,0.0,0.0,0.0,0.0,0.0,0.0,0.0,0.0,1.5726,1.6214,1.6026,0.0,0.0,0.0,0.0,0.0,0.0,0.0,0.0,0.0,0.0,1.8327,1.6698,1.6698,1.6167,1.4545,1.4441,1.4523,1.4168,1.2386,1.0611,0.9474,0.0,0.0,0.0,0.0,0.0,0.0,0.0,0.0,0.0,0.0,0.0,0.0,0.0,0.0,0.0,0.0,0.0,0.0,0.0,0.0,0.0,0.0,0.0,0.0,0.0,0.0,0.0,2.2165,0.0,0.0,2.2203,0.0,0.0,0.0,0.0,0.0,0.0,0.0,0.0,0.0,0.0,0.0,0.0,0.0,0.0,0.0,0.0,0.0,0.0,0.0,0.0,0.0,0.0,2.1686,2.1611,1.9625,1.9409,2.1024,2.2264,2.3918,2.6077,2.7366,2.7905,2.7712,0.0,0.0,0.0,0.0,0.0,0.0,0.0,0.0,0.0,0.0,0.0,0.0,0.0,0.0,0.0,0.0,0.0,0.0,0.0,0.0,0.0,0.0,0.0,0.0,0.0,0.0,1.5394,1.6206,1.6698,0.0,0.0,0.0,0.0,0.0,0.0,0.0,0.0,0.0,0.0,1.8594,1.87,1.8825,1.7398,1.6632,1.7615,1.5322,1.3652,1.4004,1.1986,1.0336,0.0,0.0,0.0,0.0,0.0,0.0,0.0,0.0,0.0,0.0,0.0,0.0,0.0,0.0,0.0,0.0,0.0,0.0,0.0,0.0,0.0,0.0,0.0,0.0,0.0,0.0,0.0,1.8679,1.929,0.0,0.0,0.0,0.0,0.0,0.0,0.0,0.0,0.0,0.0,0.0,1.1204,0.9724,0.0,0.0,0.0,0.0,0.0,0.0,0.0,0.0,0.0,0.0,0.0,0.0,2.143,1.9965,1.8106,1.7865,1.9409,2.0718,2.2254,2.4005,2.5991,2.7383,2.7997,0.0,0.0,0.0,0.0,0.0,0.0,0.0,0.0,0.0,0.0,0.0,0.0,0.0,0.0,0.0,0.0,0.0,0.0,0.0,0.0,0.0,0.0,0.0,0.0,0.0,1.6288,0.0,0.0,0.0,0.0,0.0,0.0,0.0,0.0,0.0,0.0,0.0,1.8656,1.9404,1.9492,1.9344,1.9073,1.7585,1.6495,0.0,0.0,0.0,0.0,0.0,0.0,0.0,0.0,0.0,0.0,0.0,0.0,0.0,0.0,-0.7229,-0.6819,-0.7095,-0.7698,-0.8492,0.0,0.0,0.0,0.0,0.0,0.0,0.0,0.0,0.0,0.0,0.0,0.0,0.0,0.0,1.5123,0.0,1.6098,0.0,0.0,0.0,0.0,0.0,0.0,0.0,0.0,1.1106,0.8901,0.7221,0.5982,0.5891,0.0,0.8939,1.0968,0.0,0.0,0.0,0.0,0.0,0.0,0.0,0.0,2.0332,1.9201,1.7398,1.7317,1.8955,2.013,2.1587,2.3307,2.578,2.767,2.8859,2.8703,2.8516,0.0,0.0,0.0,0.0,0.0,0.0,0.0,0.0,0.0,0.0,0.0,0.0,0.0,0.0,0.0,0.0,0.0,0.0,0.0,0.0,0.0,0.0,0.0,1.7602,0.0,0.0,0.0,0.0,0.0,0.0,0.0,0.0,0.0,1.9849,2.0735,2.1634,2.2051,2.1501,2.0767,2.0159,0.0,0.0,0.0,0.0,0.0,0.0,0.0,1.0408,0.9365,0.6558,0.3739,0.1869,-0.0709,-0.3006,-0.4318,0.0,0.0,-0.9474,-0.999,-1.0818,-1.1595,-1.2298,-1.3438,-1.5708,-1.7603,-1.9261,0.0,0.0,0.0,0.0,0.0,0.0,0.0,0.0,1.1082,1.1689,0.0,1.2806,0.0,0.0,0.0,0.0,0.0,1.3404,0.0,0.0,0.5931,0.3748,0.2227,0.2677,0.2146,0.1072,0.5195,0.7173,0.749,1.308,0.0,0.0,0.0,0.0,0.0,0.0,1.8461,1.8955,1.7454,1.7696,1.9593,2.0391,2.1845,2.4057,2.6609,2.8647,3.0017,2.9751,2.9356,2.8986,2.8088,0.0,0.0,0.0,0.0,0.0,0.0,0.0,0.0,0.0,0.0,0.0,0.0,0.0,0.0,0.0,0.0,0.0,0.0,0.0,0.0,1.8496,0.0,0.0,0.0,0.0,0.0,0.0,0.0,0.0,0.0,0.0,2.343,2.4366,2.5485,2.5971,0.0,0.0,0.0,0.0,1.7171,1.5686,1.5022,1.4525,1.4151,1.2675,1.1005,0.9452,0.0,0.0,-0.053,-0.2126,-0.4066,-0.7722,-1.0298,-1.177,-1.0459,-1.224,-1.3748,-1.3998,-1.5211,-1.6887,-1.8971,-2.0803,-2.2787,0.6019,0.0,0.0,0.0,0.0,0.9862,0.9004,0.797,0.7962,0.8901,1.0349,1.0424,0.0,0.0,0.0,0.0,0.0,0.0,1.0144,0.7242,0.5909,0.3999,0.1612,0.1791,0.1702,0.1524,0.3295,0.4528,0.5237,0.8092,1.2009,1.6946,0.0,0.0,0.0,0.0,1.7646,1.6772,1.683,1.7317,1.806,2.0003,2.2006,2.4074,2.6632,2.8205,2.8632,2.9263,2.9701,2.9951,2.82,0.0,0.0,0.0,0.0,0.0,0.0,0.0,0.0,0.0,0.0,0.0,0.0,0.0,0.0,0.0,0.0,0.0,0.0,0.0,1.8496,1.9213,1.9511,0.0,0.0,0.0,0.0,0.0,0.0,0.0,0.0,0.0,2.693,2.6299,2.5615,0.0,0.0,2.1945,2.0671,1.8506,1.7066,1.721,1.5816,0.0,1.4118,1.2704,1.1091,0.9447,0.6125,0.2945,0.0892,-0.2388,-0.5112,-0.6331,-0.9823,-1.2874,-1.4289,-1.5835,-1.7304,-1.8496,-1.9832,-2.1383,-2.3123,-2.4743,-2.6151,0.4459,0.5943,0.6796,0.7386,0.7545,0.7302,0.6183,0.4612,0.5058,0.6013,0.7393,0.7393,0.9438,1.3073,1.3304,0.0,0.0,0.0,0.7688,0.4847,0.4341,0.3027,0.1165,0.1345,0.1345,0.1523,0.3645,0.4446,0.4208,0.7105,1.0504,1.4337,0.0,0.0,1.6351,1.6374,1.6088,1.5741,1.6667,1.7398,1.8078,2.0643,2.2478,2.3648,2.6134,2.7567,2.7819,2.8894,2.9583,2.9848,2.8886,2.8234,0.0,0.0,0.0,0.0,0.0,0.0,0.0,0.0,0.0,0.0,0.0,1.8054,1.7788,0.0,0.0,0.0,1.8123,1.8709,1.9687,2.0643,0.0,0.0,0.0,0.0,0.0,0.0,0.0,2.5513,2.6777,2.7201,2.6156,2.6184,2.6408,2.6594,2.5265,2.387,2.2977,0.0,1.8355,1.8048,1.675,1.5636,1.519,1.3964,1.2207,0.962,0.6042,0.286,0.1069,-0.2469,-0.5359,-0.6934,-1.052,-1.4323,-1.6677,-1.8487,-1.9995,-2.104,-2.237,-2.3853,-2.5378,-2.6561,-2.7749,0.4469,0.4559,0.4289,0.4625,0.5127,0.4541,0.3221,0.1614,0.2509,0.3401,0.4289,0.4289,0.6549,1.0414,1.1048,0.0,0.6204,0.5457,0.3993,0.1795,0.1795,0.1434,0.0895,0.1255,0.1255,0.0984,0.5022,0.6002,0.4378,0.8661,1.0747,1.0484,1.1198,1.2231,1.3678,1.3717,1.4398,1.5658,1.674,1.7857,1.9116,2.1756,2.3139,2.3073,2.5279,2.6813,2.7429,2.86,2.9202,2.9112,2.9847,2.9315,2.7288,0.0,0.0,0.0,0.0,0.0,0.0,0.0,0.0,0.0,0.0,0.0,0.0,0.0,0.0,0.0,2.0529,0.0,2.0931,2.234,0.0,0.0,0.0,2.4676,2.5409,2.6443,2.6477,2.4653,0.0,0.0,2.2632,2.4559,2.7178,2.9907,2.8602,2.7328,2.7262,2.3681,2.0512,1.8545,1.7804,1.7301,1.6911,1.586,1.3652,0.9871,0.6665,0.3829,0.1062,-0.1847,-0.4729,-0.7361,-1.1601,-1.5194,-1.7712,-1.9889,-2.1828,-2.2052,-2.3402,-2.4933,-2.6246,-2.7366,-2.8661,0.3224,0.3846,0.358,0.3842,0.4543,0.4374,0.3666,0.2598,0.2778,0.3401,0.4289,0.4289,0.5257,0.6929,0.7092,0.594,0.3737,0.3568,0.2861,0.1794,0.1795,0.1883,0.2063,0.2154,0.2243,0.2511,0.3926,0.4903,0.5361,0.7031,0.8265,0.9069,1.0458,1.2083,1.3964,1.4055,1.4314,1.4908,1.6347,1.7963,1.9913,2.1548,2.2617,2.3254,2.4878,2.6089,2.6801,2.8176,2.8907,2.889,2.9224,2.9123,2.8407,2.8242,0.0,0.0,0.0,0.0,0.0,0.0,0.0,0.0,0.0,2.098,2.0779,0.0,2.041,0.0,2.08,2.1482,2.103,2.3223,0.0,0.0,2.4991,2.5788,2.6779,2.5929,2.5342,2.5582,2.4445,2.3259,2.2395,2.2886,2.4349,2.707,2.7454,2.6999,2.5927,2.3595,2.1395,1.9964,1.8825,1.8204,1.8311,1.6254,1.3348,0.9789,0.8036,0.6283,0.3742,0.0885,-0.1935,-0.4729,-0.7868,-1.1539,-1.5789,-1.8907,-2.1395,-2.33,-2.5647,-2.7538,-2.7946,-2.9501,-3.104,0.4559,0.4999,0.4739,0.4917,0.5181,0.5003,0.438,0.358,0.3937,0.4472,0.4912,0.5356,0.5625,0.563,0.5272,0.4291,0.2957,0.2599,0.2242,0.1974,0.2064,0.2334,0.2694,0.2694,0.2962,0.3587,0.4297,0.5272,0.634,0.7224,0.8113,0.917,1.0463,1.1837,1.3288,1.3886,1.4475,1.5151,1.669,1.8381,2.0157,2.1155,2.2145,2.3316,2.431,2.5374,2.6358,2.733,2.8054,2.855,2.8817,2.895,2.8932,2.8448,2.7339,0.0,0.0,0.0,0.0,0.0,0.0,0.0,0.0,0.0,0.0,0.0,2.2704,2.1996,2.2808,2.3118,2.2504,2.4726,2.6061,2.5814,2.6776,2.7309,2.6971,2.5978,2.4712,2.3021,2.1647,2.0321,1.9029,1.9782,2.1167,2.3158,2.5482,2.7203,2.7449,2.589,2.412,2.2741,2.1056,1.9625,1.8912,1.6579,1.3985,1.139,0.9924,0.8537,0.6741,0.4136,0.1657,-0.0087,-0.4066,-0.853,-1.2437,-1.6198,-1.9688,-2.3304,-2.5605,-2.7354,-2.8707,-3.0015,-3.1071,0.6782,0.6779,0.6605,0.6514,0.6605,0.6166,0.5447,0.4554,0.5361,0.5719,0.5719,0.6694,0.6605,0.563,0.4912,0.4024,0.3135,0.2331,0.2153,0.2423,0.2513,0.2694,0.2875,0.3053,0.3499,0.4297,0.5364,0.6254,0.7139,0.8116,0.9087,0.9946,1.0809,1.1666,1.2528,1.3633,1.4734,1.5741,1.7359,1.8789,2.0079,2.075,2.1811,2.3139,2.3621,2.4552,2.5914,2.6226,2.6901,2.7976,2.8465,2.8779,2.8846,2.8399,2.7608,0.0,2.5958,0.0,0.0,0.0,0.0,0.0,0.0,0.0,0.0,2.6275,2.5321,2.5016,2.5129,2.4985,2.4466,2.6311,2.7272,2.6638,2.8171,2.8393,2.6237,2.5804,2.397,1.9326,1.855,1.7388,1.5108,1.6552,1.839,1.9852,2.3069,2.6298,2.9009,2.8396,2.7157,2.6085,2.3966,2.1603,1.9303,1.746,1.5628,1.3658,1.2047,1.06,0.9429,0.7163,0.5284,0.4228,-0.0942,-0.6129,-0.8578,-1.3001,-1.7795,-2.2028,-2.2761,-2.4202,-2.8379,-3.0247,-3.0705,0.634,0.7048,0.6779,0.7136,0.7845,0.7584,0.6871,0.58,0.598,0.5894,0.5808,0.6697,0.6605,0.5716,0.5714,0.5181,0.4291,0.358,0.3401,0.358,0.2871,0.2604,0.2964,0.3676,0.4121,0.4387,0.5985,0.6962,0.7139,0.812,0.8999,0.9946,1.0809,1.1918,1.3197,0.0,0.0,0.0,1.7997,1.9186,1.9511,2.0769,2.1863,2.2777,2.2617,0.0,2.4696,2.511,2.5717,2.6547,2.7736,0.0,0.0,0.0,0.0,0.0,0.0,0.0,0.0,0.0,0.0,0.0,2.7158,2.6726,2.7042,2.5223,2.3969,2.3932,2.4735,2.5233,2.5154,2.7082,2.7897,2.6773,2.7154,2.6613,2.4203,2.3163,2.1536,1.8914,1.8147,1.7013,1.5027,1.6086,1.7755,1.9257,2.0884,2.2934,2.5738,2.747,2.8402,2.8238,2.5965,2.364,2.1744,2.0419,1.854,1.5828,1.4289,1.2794,1.0851,0.9484,0.7516,0.5628,0.0773,-0.3346,-0.6042,-1.2255,-1.6395,-1.8219,-1.5703,-1.6637,-2.7225,-3.1613,-3.373,0.6251,0.7051,0.6959,0.7228,0.0,0.7584,0.7404,0.7136,0.7048,0.6874,0.6786,0.7319,0.7228,0.6786,0.6422,0.5974,0.5445,0.4823,0.4559,0.4648,0.4295,0.4117,0.43,0.4743,0.5275,0.5719,0.6697,0.7319,0.7852,0.8819,0.9428,0.9941,1.1327,1.2351,1.3118,1.4629,1.5658,1.6087,1.7359,1.847,1.9265,1.9913,2.1088,2.2628,2.2402,0.0,0.0,0.0,0.0,0.0,0.0,0.0,0.0,2.8306,0.0,2.7778,2.8264,2.8366,2.8025,2.8141,2.8553,2.9241,2.7838,2.7242,2.7962,2.698,2.5963,2.5178,2.562,2.566,2.5061,2.5788,2.6022,2.5388,2.5262,2.4306,2.2083,2.1256,1.9994,1.8008,1.7465,1.6894,1.5863,1.6335,1.7483,1.8729,2.0017,2.1586,2.3812,2.6503,2.8388,2.8521,2.7024,2.5196,2.3989,2.3379,2.186,1.9062,1.7926,1.6517,1.3978,1.3174,1.2199,1.0194,0.6408,0.2717,0.0846,-0.3187,-0.6709,-0.7681,-0.5457,-0.5288,-1.357,-2.0731,-2.6212,0.652,0.7319,0.7319,0.7408,0.7408,0.7408,0.758,0.8021,0.0,0.0,0.0,0.7944,0.7944,0.7856,0.7041,0.6681,0.6684,0.598,0.5714,0.5714,0.5716,0.5722,0.5722,0.5897,0.634,0.7051,0.7319,0.776,0.8656,0.9428,0.9854,1.0028,1.1585,1.2619,1.3033,1.5206,1.6312,1.6327,1.6968,1.8006,1.9413,1.9502,2.045,2.2553,2.2402,2.2841,2.4082,2.4238,2.4802,2.5873,2.6496,2.723,2.7991,2.8115,2.8494,2.9253,2.8898,2.8808,2.9249,2.9226,2.9137,2.8995,2.7268,2.689,2.8476,2.8313,2.7487,2.611,2.6013,2.5543,2.4448,2.4058,2.3661,2.3455,2.3162,2.2105,2.0032,1.9686,1.8889,1.696,1.6842,1.6879,1.649,1.6805,1.7349,1.8273,1.9554,2.1251,2.3187,2.5906,2.7929,2.8187,2.7299,2.6344,2.6063,2.5549,2.4646,2.2502,2.1553,2.0397,1.8259,1.751,1.7106,1.606,1.2707,1.007,0.8914,0.6558,0.5056,0.2691,0.5099,0.6197,0.1288,-0.5878,-1.2184,0.7496,0.8388,0.8388,0.8388,0.8392,0.8388,0.794,0.7316,0.7676,0.7944,0.7944,0.7944,0.7944,0.7944,0.7933,0.7929,0.7933,0.7228,0.6874,0.6782,0.6074,0.5722,0.5719,0.652,0.6962,0.7139,0.794,0.848,0.8656,0.9515,0.9854,1.0028,1.0982,1.2339,1.3853,1.6101,1.7196,1.7277,1.8709,1.9659,2.0041,2.0924,2.1634,2.2101,2.1807,2.2025,2.2916,2.3298,2.3875,2.4731,2.5734,2.6585,2.7176,2.7821,2.8325,2.8398,2.8578,2.8496,2.8085,2.779,2.7318,2.6667,2.5947,2.5902,2.6651,2.5126,2.4041,2.3797,2.379,2.3676,2.3451,2.3349,2.2752,2.1804,2.1611,2.066,1.8569,1.8377,1.7777,1.6059,1.6522,1.6374,1.5525,1.6293,1.7488,1.8329,1.9049,2.0533,2.3146,2.5715,2.7537,2.8547,2.7975,2.7652,2.7997,2.7196,2.6266,2.5816,2.367,2.2061,2.0737,2.0414,2.008,1.9303,1.6867,1.5258,1.4712,1.1516,0.9791,0.9166,1.366,1.4835,0.6365,0.5937,0.5604,0.7224,0.812,0.7852,0.8116,0.8572,0.8572,0.83,0.7944,0.8212,0.794,0.7496,0.8032,0.83,0.83,0.8384,0.8116,0.758,0.7852,0.7319,0.6428,0.6428,0.6163,0.5808,0.6697,0.7143,0.7404,0.8204,0.8656,0.8828,0.9515,0.9946,1.0202,1.2151,1.4001,1.5606,1.7163,1.8069,1.8407,1.9036,1.9659,2.0197,2.0991,2.17,2.2252,2.1959,2.2187,2.2852,2.2927,2.3312,2.4048,2.4867,2.5487,2.6077,2.672,2.7203,2.7409,2.7355,2.7148,2.6891,2.6488,2.6116,2.5713,2.4596,2.4073,2.4362,2.4064,2.3526,2.2861,2.2456,2.1922,2.1231,2.0946,2.0302,1.9354,1.9074,1.8296,1.7108,1.7045,1.6837,1.5846,1.5766,1.5781,1.5578,1.6497,1.7327,1.7812,1.8294,1.9506,2.1635,2.2958,2.4725,2.7245,2.8035,2.8373,2.8893,2.9134,2.8478,2.7641,2.6404,2.4957,2.3814,2.3447,2.3033,2.2317,2.1129,2.0317,1.991,1.961,1.9026,1.9458,2.2731,2.2908,1.9973,2.1151,1.6508,0.7048,0.7852,0.7496,0.776,0.848,0.8476,0.8388,0.8388,0.8384,0.7937,0.7404,0.8208,0.8572,0.8568,0.8388,0.7944,0.7584,0.794,0.7408,0.6432,0.6874,0.6786,0.6428,0.7048,0.758,0.7929,0.8472,0.8828,0.9087,0.9689,1.0289,1.089,1.3159,1.5177,1.6772,1.7827,1.8638,1.9301,1.9292,1.9668,2.044,2.1068,2.1766,2.2402,2.2262,2.2285,2.2615,2.2615,2.2816,2.334,2.3893,2.4523,2.5141,2.5673,2.6131,2.6391,2.6094,2.5783,2.5542,2.5097,2.486,2.4784,2.3123,2.2092,2.2116,2.2397,2.2278,2.1373,2.0795,1.9937,1.8734,1.8176,1.7703,1.7116,1.6783,1.6491,1.5903,1.5964,1.5981,1.5497,1.5024,1.4992,1.5692,1.622,1.6685,1.7363,1.8057,1.91,2.0324,2.0894,2.2608,2.4888,2.702,2.7942,2.8406,2.9578,2.9707,2.855,2.8404,2.7541,2.6511,2.6177,2.6005,2.5407,2.5573,2.5465,2.5142,2.6271,2.7377,2.7382,2.9128,3.0733,3.0031,3.0072,2.6295,0.7837,0.8113,0.8109,0.8113,0.8204,0.8017,0.7925,0.7925,0.7837,0.7837,0.7837,0.8384,0.8656,0.848,0.7676,0.7848,0.8468,0.7228,0.7136,0.7757,0.7404,0.7404,0.7757,0.8025,0.8464,0.8995,0.917,0.9174,0.9345,1.012,1.0982,1.1837,1.2911,1.4406,1.6062,1.7568,1.8736,1.9557,1.9932,2.0391,2.1078,2.1863,2.2392,2.2617,2.2478,2.2126,2.1692,2.2056,2.2331,2.248,2.2968,2.3737,2.4693,2.5268,2.5475,2.5342,2.5289,2.4899,2.394,2.3409,2.3169,2.2984,2.1446,2.0344,2.0257,1.8633,1.7794,1.8251,1.8309,1.7674,1.6263,1.6114,1.6114,1.599,1.5859,1.5745,1.5613,1.5355,1.5015,1.4752,1.4152,1.3844,1.4268,1.4517,1.5454,1.7441,1.8681,1.9954,2.1014,2.1456,2.1966,2.2886,2.4158,2.5702,2.6769,2.8341,2.9201,2.9134,2.9387,2.9126,2.8601,2.8691,2.9011,2.8139,2.8954,2.962,3.0084,3.1028,3.0745,3.0499,3.1013,3.1467,3.1467,3.1467,2.8548,0.8185,0.8372,0.8105,0.8285,0.8727,0.8281,0.8285,0.8636,0.8723,0.8723,0.8723,0.8907,0.8999,0.8999,0.8552,0.8372,0.8281,0.8197,0.7749,0.7217,0.7394,0.7397,0.7217,0.7749,0.8193,0.8632,0.9078,0.9345,0.9602,1.0376,1.1316,1.2254,1.3665,1.5335,1.6993,1.8149,1.9063,1.9794,2.0323,2.0789,2.1088,2.1787,2.2252,2.2327,2.2478,2.2403,2.203,2.1849,2.1754,2.1721,2.2026,2.2503,2.3154,2.3791,2.4119,2.4248,2.3996,2.3546,2.2836,2.2604,2.2297,2.1889,2.0726,1.9998,1.9976,1.8398,1.7464,1.7357,1.6964,1.6289,1.5737,1.5666,1.5534,1.5171,1.518,1.5046,1.4633,1.4346,1.4057,1.4057,1.3783,1.3528,1.3763,1.4298,1.5182,1.6513,1.7596,1.8741,2.0068,2.0374,2.0853,2.2009,2.2956,2.3642,2.468,2.7121,2.8683,2.9565,3.0141,3.038,3.0687,3.0631,3.0585,3.0156,3.0149,3.0529,3.0989,3.0392,2.9959,3.0728,3.1509,3.1467,3.1467,3.1467,3.1467,0.8623,0.854,0.8277,0.8277,0.8636,0.8727,0.8903,0.9165,0.9432,0.9519,0.9519,0.9519,0.9519,0.9432,0.9078,0.8636,0.8364,0.8544,0.8189,0.7122,0.7654,0.7562,0.7207,0.7742,0.8273,0.8711,0.9248,0.9607,0.9781,1.0386,1.1316,1.2498,1.384,1.5516,1.7359,1.8247,1.8966,1.9608,2.0313,2.0624,2.0712,2.1405,2.1873,2.2176,2.2553,2.2649,2.2275,2.1607,2.1286,2.1177,2.1375,2.1654,2.2025,2.2763,2.3258,2.3352,2.3078,2.2592,2.1999,2.1925,2.16,2.0858,2.0019,1.9488,1.9267,1.8016,1.6927,1.6549,1.5807,1.5251,1.5251,1.5108,1.4824,1.4466,1.4466,1.4201,1.371,1.3564,1.3652,1.3419,1.2959,1.3032,1.3499,1.4321,1.5258,1.6171,1.6572,1.7301,1.8854,1.9343,1.9879,2.1437,2.1819,2.2252,2.305,2.543,2.7777,2.8582,2.9104,3.0146,3.144,3.1308,3.1535,3.0856,2.9943,2.9842,3.0945,3.0182,2.9549,3.0678,3.0914,3.0302,2.9781,3.0069,2.9378,0.951,0.8978,0.889,0.8189,0.7132,0.8982,0.951,0.8982,0.9598,0.9951,0.9951,0.9951,0.9951,0.9864,0.8627,0.8452,0.9161,0.8093,0.7918,0.8623,0.8185,0.8185,0.8803,0.889,0.9244,0.9772,0.9859,0.9951,0.9951,1.0125,1.0977,1.2589,1.293,1.4183,1.6527,1.744,1.8167,1.9125,1.9696,2.002,2.0098,2.0644,2.1482,2.2327,2.2777,2.2657,2.2077,2.1357,2.1027,2.1107,2.1091,2.1348,2.1877,2.2836,2.321,2.2957,2.2909,2.2334,2.1388,2.1198,2.088,2.015,1.8982,1.8103,1.8267,1.6549,1.5455,1.5338,1.476,1.4346,1.4266,1.3977,1.3768,1.4057,1.3622,1.3411,1.3273,1.3616,1.3484,1.2686,1.2124,1.2331,1.3273,1.4091,1.5386,1.6595,1.7297,1.7814,1.8753,1.9442,2.002,2.0421,2.0783,2.1172,2.2682,2.4475,2.5297,2.629,2.7654,2.8266,2.9387,3.0381,3.1045,3.1542,3.0973,3.0765,3.115,3.1189,3.0975,3.0668,2.8803,2.8014,2.804,2.7225,2.6559,1.0717,1.0366,0.9671,0.9061,0.8619,0.8969,0.8978,0.8982,0.9152,0.9593,0.9951,1.0038,1.0038,0.9951,0.8978,0.8978,0.9777,0.924,0.924,0.9598,0.9331,0.9331,0.9598,0.9598,0.9685,0.9946,1.0038,1.0038,1.0125,1.0554,1.1488,1.2589,1.3275,1.4706,1.6445,1.7033,1.7844,1.9054,1.9529,1.9923,2.0333,2.0799,2.1492,2.2327,2.2553,2.2553,2.2444,2.1629,2.1134,2.0882,2.0721,2.0816,2.1336,2.2347,2.2653,2.2137,2.2075,2.1702,2.0955,2.0752,2.0506,1.9791,1.888,1.8065,1.7472,1.6167,1.5204,1.5204,1.4705,1.4353,1.4346,1.4057,1.3695,1.3557,1.3484,1.3266,1.2966,1.3119,1.3258,1.3112,1.3018,1.3295,1.3593,1.433,1.5023,1.5631,1.6457,1.7364,1.8028,1.8643,1.9221,1.9675,1.9909,1.9909,1.9223,2.2323,2.4444,2.5576,2.6676,2.7454,2.8436,2.906,2.9689,2.9846,3.0057,3.029,3.0122,3.0911,3.0986,3.0236,2.8306,2.6517,2.6377,2.4924,2.4251,1.1154,1.0885,1.0019,0.9405,0.8969,0.8703,0.8448,0.8452,0.8632,0.8982,0.934,0.9428,0.9336,0.9244,0.8807,0.8894,0.9336,0.9331,0.9419,0.9593,0.9419,0.9506,0.9951,0.9941,1.0033,1.0207,1.0381,1.0381,1.0463,1.0982,1.1752,1.2687,1.3535,1.472,1.6049,1.6788,1.7674,1.8647,1.9353,1.9913,2.0391,2.0886,2.1436,2.2035,2.2252,2.2628,2.2916,2.2154,2.1431,2.0994,2.0706,2.0727,2.099,2.1663,2.1839,2.1388,2.1313,2.1008,2.0377,2.0248,1.9998,1.9274,1.8576,1.7891,1.7442,1.6184,1.5488,1.5426,1.4927,1.4497,1.4489,1.4418,1.4137,1.3702,1.363,1.3484,1.3025,1.2917,1.3237,1.3689,1.3732,1.3775,1.3985,1.4553,1.4974,1.51,1.6097,1.6799,1.7432,1.7797,1.8327,1.8752,1.9033,1.8701,1.8498,2.0486,2.226,2.3435,2.4551,2.5661,2.6787,2.745,2.799,2.816,2.8437,2.8749,2.9321,3.0273,3.0258,2.9789,2.7524,2.5299,2.4041,2.2179,2.1588,1.0971,1.0443,1.0024,0.924,0.8273,0.854,0.8189,0.7753,0.8021,0.8285,0.846,0.8372,0.8281,0.8009,0.8193,0.8201,0.8285,0.8013,0.8273,0.8894,0.836,0.8715,0.9772,0.9763,1.0024,1.0636,1.1068,1.1235,1.1235,1.1322,1.1752,1.2699,1.3372,1.43,1.5173,1.655,1.7359,1.7917,1.9107,1.9894,1.9982,2.0644,2.1215,2.1589,2.2101,2.2703,2.3519,2.2872,2.2149,2.1371,2.1079,2.1007,2.0843,2.1019,2.0892,2.07,2.0635,2.0313,1.9726,1.9615,1.9341,1.8607,1.7862,1.756,1.7226,1.6254,1.5559,1.5488,1.4991,1.4569,1.4497,1.4425,1.4418,1.4489,1.3985,1.3695,1.3528,1.3252,1.3302,1.4159,1.4026,1.3702,1.4034,1.4681,1.5267,1.5683,1.6105,1.6473,1.7102,1.7398,1.752,1.7949,1.8321,1.8212,1.828,1.8676,1.9699,2.0777,2.1835,2.2955,2.4265,2.5145,2.5906,2.629,2.7595,2.7942,2.8349,2.9189,2.9637,2.8931,2.635,2.4351,2.2919,2.136,1.9,1.1837,1.1918,1.1494,1.0448,0.9144,0.9235,0.8623,0.7573,0.7665,0.8021,0.8372,0.846,0.8456,0.8193,0.7929,0.7757,0.7665,0.7132,0.7485,0.8452,0.8456,0.8544,0.9074,0.9598,1.0284,1.0977,1.1235,1.1322,1.1322,1.1322,1.1757,1.2699,1.3372,1.4223,1.509,1.6147,1.7115,1.8238,1.8868,1.9756,2.0634,2.0964,2.1359,2.1873,2.2101,2.2628,2.3497,2.3111,2.2477,2.1721,2.1101,2.0687,2.0607,2.088,2.0764,2.0302,2.0237,1.9977,1.9407,1.9208,1.8931,1.8317,1.791,1.7285,1.6533,1.5974,1.5488,1.5062,1.4418,1.4057,1.3977,1.3775,1.3775,1.4049,1.3622,1.3258,1.3032,1.3011,1.3572,1.4398,1.4423,1.4281,1.4338,1.4768,1.5054,1.5117,1.5886,1.6664,1.6802,1.7501,1.8066,1.8347,1.8221,1.8154,1.8281,1.8634,1.9342,2.0133,2.0773,2.1349,2.2375,2.3116,2.383,2.4843,2.6178,2.7139,2.7556,2.8219,2.8832,2.8238,2.628,2.4496,2.2887,2.1084,1.9183,1.2443,1.2619,1.2015,1.123,1.0106,0.9584,0.8715,0.7837,0.7404,0.7492,0.7845,0.7937,0.7845,0.7753,0.7404,0.7231,0.7228,0.6697,0.7048,0.7929,0.7841,0.8193,0.9069,1.0202,1.1068,1.1666,1.1837,1.1843,1.1843,1.1843,1.2095,1.2699,1.3379,1.4139,1.4915,1.5741,1.687,1.823,1.8957,1.9766,2.0799,2.1272,2.1578,2.1873,2.2111,2.2478,2.3054,2.3145,2.2891,2.1998,2.0948,2.0302,2.0151,2.0366,2.0302,1.9911,1.9507,1.9177,1.8721,1.8375,1.8104,1.7696,1.7345,1.6872,1.5974,1.5621,1.5062,1.441,1.4057,1.384,1.3622,1.3484,1.3411,1.363,1.3492,1.3112,1.2806,1.3258,1.3783,1.4392,1.4729,1.4856,1.4848,1.4982,1.5188,1.5188,1.5886,1.6862,1.6932,1.7716,1.8163,1.858,1.8751,1.8617,1.8357,1.8694,1.9198,1.9695,2.0264,2.063,2.123,2.1594,2.2145,2.3329,2.4606,2.5835,2.6407,2.7816,2.8591,2.7261,2.6308,2.5139,2.3764,2.2284,2.0355,1.2705,1.2619,1.1752,1.1408,1.0977,0.9414,0.8632,0.8281,0.7496,0.7054,0.6969,0.7146,0.6966,0.6697,0.6877,0.6877,0.6792,0.6881,0.6966,0.7051,0.6959,0.7746,0.968,1.0977,1.1929,1.2448,1.2613,1.2613,1.2528,1.2619,1.2705,1.279,1.347,1.4068,1.4817,1.5401,1.6624,1.8086,1.9116,1.9991,2.0615,2.1415,2.1731,2.1578,2.2025,2.2252,2.2392,2.3165,2.3259,2.2181,2.0762,1.9876,1.9626,1.9539,1.9407,1.9142,1.8586,1.8317,1.7901,1.755,1.7139,1.701,1.6455,1.5833,1.5762,1.5204,1.4561,1.4049,1.3912,1.3702,1.3346,1.32,1.3339,1.3492,1.3411,1.3258,1.3237,1.3905,1.4281,1.4425,1.5054,1.5621,1.5275,1.5551,1.5903,1.6184,1.6324,1.7019,1.7665,1.8135,1.8368,1.8758,1.9151,2.0043,2.0154,1.9923,2.0318,2.0247,2.0514,2.0552,2.0477,2.0653,2.0795,2.1963,2.3472,2.4569,2.571,2.7131,2.8028,2.7576,2.671,2.5876,2.4936,2.3728,2.1352,1.2966,1.2966,1.2534,1.1929,1.1235,1.0014,0.9148,0.8544,0.8193,0.758,0.7228,0.7753,0.7492,0.6962,0.6966,0.7054,0.6966,0.7054,0.7054,0.7051,0.6959,0.8009,0.9758,1.0977,1.1935,1.2619,1.2705,1.2705,1.2705,1.2875,1.2881,1.2705,1.3639,1.4314,1.4817,1.5816,1.7131,1.8487,1.9511,2.0382,2.1031,2.1645,2.1797,2.1578,2.1655,2.1959,2.2285,2.3017,2.301,2.2192,2.0672,1.9619,1.9348,1.8818,1.8539,1.8472,1.8202,1.8066,1.793,1.7491,1.7148,1.689,1.6385,1.6026,1.5762,1.5062,1.4561,1.4201,1.3622,1.2966,1.2746,1.2606,1.2739,1.3324,1.3331,1.3273,1.3645,1.392,1.4441,1.5392,1.5681,1.578,1.5762,1.5903,1.6211,1.6351,1.6936,1.7732,1.834,1.8874,1.9191,1.9424,1.9968,2.1376,2.2029,2.1603,2.1333,2.1069,2.0993,2.0902,2.0675,2.0386,2.0369,2.0706,2.3041,2.4485,2.5394,2.656,2.6945,2.7691,2.7697,2.7226,2.6839,2.5844,2.2636,1.3222,1.3228,1.296,1.2534,1.1843,1.0534,0.9575,0.8973,0.8189,0.7665,0.7316,0.7665,0.758,0.7139,0.7139,0.7139,0.7139,0.7139,0.7139,0.7312,0.8097,0.9052,1.0096,1.1144,1.2272,1.2796,1.2875,1.2875,1.3052,1.3137,1.3137,1.3137,1.3639,1.4314,1.522,1.5801,1.7196,1.8727,1.9825,2.0692,2.1272,2.1883,2.2025,2.1807,2.1731,2.2035,2.2861,2.301,2.2943,2.2626,2.1437,2.0371,2.0047,1.9081,1.8539,1.8472,1.7988,1.7588,1.7451,1.701,1.6664,1.6473,1.6184,1.6035,1.5692,1.5062,1.4561,1.4122,1.3258,1.2746,1.2378,1.2231,1.2586,1.3317,1.3317,1.3404,1.408,1.4561,1.5015,1.5635,1.6043,1.6193,1.6053,1.6351,1.6641,1.6951,1.7596,1.8385,1.9062,1.9646,2.004,2.0165,2.096,2.2428,2.3317,2.311,2.2388,2.2065,2.1588,2.1476,2.1169,2.0676,2.0842,2.1328,2.2987,2.4355,2.5337,2.6286,2.7158,2.7851,2.833,2.8518,2.8035,2.716,2.3935,1.3392,1.3392,1.3228,1.3143,1.279,1.0875,1.0014,0.9662,0.8185,0.7316,0.7231,0.7316,0.7404,0.7139,0.7143,0.7139,0.7139,0.7139,0.7224,0.7925,0.9056,1.0188,1.0534,1.1918,1.279,1.3058,1.3143,1.3228,1.3313,1.3398,1.3392,1.3392,1.3483,1.4223,1.5213,1.5786,1.7098,1.8807,2.0197,2.0904,2.1482,2.209,2.2402,2.2025,2.1883,2.2392,2.3054,2.3147,2.2981,2.3863,2.2355,2.143,2.1107,1.9905,1.9106,1.8596,1.7706,1.7097,1.6899,1.6403,1.5974,1.6053,1.5903,1.5754,1.5542,1.4903,1.4194,1.3825,1.3171,1.2519,1.2003,1.2077,1.2586,1.3237,1.3455,1.397,1.4649,1.5284,1.5621,1.5497,1.6351,1.6614,1.6693,1.6888,1.7376,1.7657,1.8223,1.8844,1.9531,2.0114,2.0422,2.0679,2.1892,2.3445,2.4139,2.4623,2.3686,2.2994,2.2444,2.2132,2.193,2.1761,2.1805,2.2461,2.3509,2.4487,2.5411,2.6353,2.7364,2.7847,2.8291,2.8653,2.8738,2.7551,2.5163,1.3652,1.3652,1.3392,1.3307,1.3045,1.1322,1.0458,1.0284,0.9065,0.8021,0.7676,0.8109,0.7929,0.7139,0.7323,0.7323,0.7139,0.7228,0.7577,0.8715,0.9845,1.0885,1.1574,1.279,1.3222,1.3307,1.3307,1.3392,1.3392,1.3568,1.3568,1.3483,1.3737,1.4237,1.4887,1.6108,1.7017,1.8149,2.0343,2.1298,2.1318,2.2241,2.2628,2.2101,2.1873,2.2176,2.2692,2.2617,2.2798,2.3083,2.2749,2.1812,2.0683,1.9634,1.8724,1.7949,1.7382,1.6968,1.6839,1.6551,1.6342,1.6473,1.5974,1.5392,1.5421,1.445,1.3818,1.3462,1.2886,1.2231,1.1706,1.2003,1.2546,1.306,1.395,1.4768,1.5284,1.5306,1.5735,1.6431,1.6848,1.7162,1.7599,1.7849,1.8152,1.8458,1.8781,1.9346,1.9982,2.0571,2.0958,2.1272,2.2584,2.4049,2.4979,2.5247,2.4423,2.3758,2.3239,2.2772,2.2639,2.2372,2.2347,2.2875,2.3678,2.4598,2.5352,2.6665,2.7671,2.7948,2.8181,2.8615,2.8613,2.7631,2.7205,1.4068,1.3977,1.3222,1.313,1.3222,1.1499,1.0549,1.0371,0.9497,0.8544,0.794,0.8288,0.8025,0.7496,0.7591,0.7588,0.7499,0.7496,0.8281,0.9501,1.0539,1.1488,1.2705,1.3307,1.3652,1.3561,1.3568,1.3568,1.3737,1.3822,1.3828,1.3737,1.3997,1.4727,1.5538,1.6511,1.7577,1.8798,2.044,2.1318,2.1165,2.1711,2.2176,2.1883,2.1873,2.2176,2.2777,2.2628,2.2905,2.3294,2.3083,2.2269,2.0896,1.9675,1.8655,1.8122,1.7458,1.7125,1.7038,1.689,1.6751,1.6872,1.6385,1.566,1.5205,1.4379,1.4178,1.3688,1.3105,1.2378,1.2016,1.239,1.294,1.357,1.4342,1.5197,1.5815,1.6186,1.6329,1.683,1.7005,1.7084,1.743,1.7999,1.8238,1.8085,1.892,1.9502,2.0406,2.0974,2.1572,2.2168,2.3329,2.455,2.5649,2.5744,2.4969,2.44,2.3948,2.3525,2.3251,2.2987,2.2705,2.3283,2.3824,2.4323,2.5166,2.6565,2.7645,2.7795,2.8042,2.855,2.8752,2.8308,2.8307,1.4391,1.4314,1.3209,1.313,1.3392,1.1585,1.0722,1.0549,0.9497,0.8548,0.8028,0.7944,0.794,0.7856,0.794,0.7944,0.7856,0.8028,0.8807,1.0453,1.0794,1.2089,1.3385,1.3906,1.4075,1.3906,1.3822,1.399,1.4166,1.4173,1.425,1.4166,1.4159,1.4977,1.6437,1.7082,1.7819,1.9283,2.0537,2.1088,2.1088,2.1415,2.1731,2.1731,2.1949,2.2327,2.2628,2.2628,2.283,2.3486,2.3202,2.254,2.1492,2.0268,1.9043,1.8962,1.8117,1.7675,1.7432,1.7297,1.7269,1.6991,1.6715,1.6157,1.5006,1.4514,1.4171,1.3725,1.3096,1.2736,1.2966,1.2962,1.348,1.4055,1.4582,1.5289,1.5996,1.7125,1.7217,1.6597,1.6716,1.6877,1.7165,1.7608,1.769,1.7985,1.8905,1.9726,2.0611,2.1318,2.1766,2.2649,2.3672,2.4838,2.5898,2.6103,2.5313,2.4897,2.455,2.4189,2.3824,2.3462,2.3187,2.3358,2.3857,2.4423,2.5112,2.6297,2.7086,2.7459,2.7708,2.7911,2.8376,2.8956,2.8704,1.4566,1.4398,1.4139,1.4062,1.3737,1.2015,1.1149,1.0804,0.924,0.8285,0.8204,0.8113,0.8028,0.8028,0.8116,0.8028,0.8028,0.8201,0.9152,1.0626,1.1144,1.2174,1.3802,1.4153,1.4321,1.4489,1.4405,1.4398,1.4482,1.4573,1.4573,1.4566,1.4566,1.522,1.6281,1.709,1.798,1.9274,2.0605,2.1155,2.1165,2.1711,2.2252,2.2176,2.2176,2.2327,2.2402,2.2176,2.2025,2.2101,2.1731,2.1527,2.1277,2.0744,2.0046,1.9219,1.8745,1.829,1.8019,1.7963,1.7596,1.6927,1.6368,1.599,1.5229,1.4297,1.388,1.3395,1.2873,1.2586,1.3579,1.3267,1.2916,1.3498,1.4513,1.5295,1.5558,1.6493,1.7268,1.6475,1.6513,1.6637,1.7008,1.7475,1.8013,1.8512,1.9329,2.0082,2.0931,2.1405,2.1776,2.2723,2.3891,2.5052,2.6213,2.6066,2.5688,2.5336,2.5052,2.4706,2.4334,2.3897,2.3756,2.3728,2.419,2.4861,2.5581,2.6336,2.6902,2.7489,2.7402,2.7229,2.7334,2.7504,2.6941,1.4824,1.4741,1.4132,1.4055,1.4062,1.2339,1.1483,1.1311,0.9763,0.8815,0.8472,0.8384,0.8384,0.8296,0.8388,0.83,0.8296,0.8468,0.9331,1.0458,1.0977,1.1923,1.3717,1.3899,1.4321,1.4657,1.4831,1.4741,1.4734,1.4734,1.4734,1.4734,1.4734,1.5387,1.6609,1.7415,1.8381,1.9502,2.0615,2.1088,2.0789,2.1634,2.1863,2.1959,2.2101,2.2187,2.2327,2.2111,2.1959,2.1883,2.1578,2.1425,2.1288,2.106,2.0587,1.9742,1.935,1.9,1.8663,1.8543,1.8266,1.7782,1.6874,1.6718,1.6444,1.556,1.4306,1.4057,1.3202,1.3233,1.465,1.3756,1.362,1.4228,1.512,1.5549,1.5774,1.6452,1.6485,1.6403,1.6716,1.6838,1.6718,1.7363,1.8275,1.9045,1.9766,2.0557,2.1262,2.1568,2.1863,2.3279,2.4464,2.5562,2.632,2.6025,2.591,2.5688,2.5336,2.4992,2.4861,2.4334,2.399,2.3884,2.4451,2.5164,2.5851,2.6517,2.7037,2.7504,2.7453,2.7238,2.6449,2.5889,2.5494,1.5173,1.4999,1.4139,1.4132,1.4307,1.2589,1.174,1.1483,1.0284,0.9345,0.8828,0.874,0.874,0.874,0.8744,0.8744,0.874,0.8911,0.9515,1.0294,1.0636,1.1585,1.279,1.3476,1.3984,1.4657,1.509,1.4999,1.4915,1.4908,1.4824,1.4908,1.4908,1.5636,1.709,1.7577,1.8868,1.9835,2.0566,2.0644,2.0722,2.1021,2.1328,2.1578,2.2025,2.2563,2.2841,2.2553,2.2402,2.2252,2.1949,2.1568,2.1349,2.1195,2.0785,2.0124,1.994,1.9551,1.8898,1.9194,1.9043,1.8358,1.7888,1.7683,1.7133,1.6078,1.5404,1.549,1.4188,1.3856,1.5159,1.4612,1.4409,1.4976,1.5561,1.6079,1.6034,1.6273,1.6332,1.6456,1.696,1.6944,1.6667,1.7535,1.8479,1.9045,1.9687,2.0934,2.1645,2.1721,2.2348,2.3909,2.523,2.6205,2.6552,2.6037,2.598,2.584,2.5407,2.4981,2.4921,2.4849,2.4517,2.4261,2.4657,2.5368,2.6034,2.6675,2.7206,2.7549,2.7585,2.7165,2.6226,2.5269,2.4631,1.5257,1.509,1.4922,1.4831,1.4475,1.2772,1.1929,1.1752,1.012,0.9345,0.9174,0.9174,0.9174,0.9174,0.9174,0.9174,0.9174,0.9257,0.9602,1.0294,1.0549,1.1241,1.2443,1.3372,1.3717,1.4314,1.5006,1.5347,1.5257,1.5249,1.5257,1.5257,1.534,1.5906,1.6944,1.7666,1.8479,1.945,2.0177,2.0731,2.1041,2.1645,2.208,2.2542,2.315,2.3519,2.3372,2.3001,2.2852,2.2852,2.2488,2.1787,2.1068,2.0847,2.0207,1.9925,1.9927,2.0091,1.8678,1.9298,1.9701,1.8864,1.7899,1.6968,1.6352,1.6017,1.5818,1.6599,1.4678,1.436,1.5567,1.4745,1.449,1.4989,1.5861,1.6087,1.617,1.6327,1.6409,1.6574,1.6976,1.6738,1.6476,1.7602,1.8647,1.9125,1.9756,2.1011,2.2025,2.2187,2.3043,2.4704,2.5612,2.6536,2.6911,2.6352,2.6107,2.605,2.5618,2.5111,2.5111,2.5135,2.4933,2.4806,2.5123,2.5519,2.6188,2.681,2.7375,2.7725,2.7887,2.7025,2.5843,2.4903,2.3778,1.534,1.5264,1.5257,1.5173,1.4824,1.3027,1.2169,1.174,1.012,0.9349,0.9349,0.9349,0.9349,0.9349,0.9349,0.9262,0.9349,0.9437,0.9607,1.0038,1.0294,1.0814,1.1671,1.2266,1.2772,1.4048,1.465,1.5159,1.5333,1.5506,1.5423,1.5582,1.5506,1.5914,1.6706,1.7666,1.8559,1.9283,1.9766,1.9932,2.0235,2.076,2.1201,2.1364,2.2435,2.2905,2.2852,2.2413,2.2111,2.2025,2.1655,2.1252,2.0702,2.0382,1.9825,1.9045,1.959,1.9643,1.9269,2.011,2.0109,1.9765,1.8711,1.7465,1.6397,1.623,1.6429,1.7111,1.5323,1.5151,1.6152,1.5365,1.5304,1.565,1.6079,1.6245,1.6409,1.6492,1.6648,1.6812,1.7066,1.6902,1.6902,1.7538,1.8567,1.9125,1.9756,2.0769,2.2014,2.2799,2.4009,2.5581,2.621,2.6804,2.6917,2.6782,2.6371,2.6233,2.605,2.5618,2.5465,2.5324,2.5135,2.4945,2.4937,2.5497,2.6304,2.7017,2.7659,2.7969,2.8217,2.6924,2.5545,2.3749,2.2333,1.4992,1.5431,1.5431,1.5431,1.5264,1.3451,1.2753,1.2504,1.0717,0.9864,0.9694,0.9607,0.9519,0.9519,0.9519,0.9519,0.9519,0.9607,0.9694,0.9777,0.9951,1.0467,1.1068,1.1494,1.2437,1.3964,1.4566,1.5151,1.5658,1.5748,1.5665,1.565,1.5499,1.5831,1.6624,1.7423,1.8238,1.9045,1.9054,1.8966,1.9116,1.9631,2.0022,2.0498,2.1201,2.2059,2.2014,2.1807,2.1655,2.1578,2.1272,2.0954,2.0469,2.007,1.9441,1.8816,1.9054,1.9353,1.9395,1.9944,2.0479,1.9923,1.9204,1.734,1.6667,1.6886,1.7196,1.7082,1.5921,1.5846,1.6288,1.5711,1.5636,1.5899,1.6402,1.6566,1.673,1.6894,1.7057,1.7147,1.7392,1.7708,1.7708,1.7861,1.8416,1.9045,1.9825,2.0769,2.2004,2.3394,2.4683,2.6094,2.6464,2.688,2.7046,2.6985,2.6701,2.6358,2.6107,2.6037,2.5873,2.5676,2.5477,2.5264,2.5081,2.5567,2.6397,2.7184,2.7918,2.8079,2.793,2.6616,2.5096,2.3237,2.145,1.3873,1.5431,1.534,1.5347,1.534,1.4391,1.388,1.3535,1.1832,1.0982,1.0722,1.0294,0.9864,0.9951,0.9864,0.9864,0.9951,0.9956,1.0038,0.9946,1.0033,1.0381,1.0895,1.158,1.2443,1.3626,1.423,1.5151,1.5982,1.5914,1.5831,1.5741,1.5582,1.5665,1.6147,1.7033,1.7836,1.8407,1.8407,1.8158,1.8381,1.8912,1.9534,2.0324,2.1171,2.2081,2.2723,2.2231,2.1873,2.1873,2.1339,2.0712,2.0079,1.9756,1.9134,1.8585,1.8505,1.8816,1.9134,1.9362,1.8877,1.8086,1.7538,1.7131,1.6656,1.6656,1.673,1.6804,1.6057,1.5809,1.5982,1.5733,1.5899,1.6304,1.6804,1.6976,1.7221,1.7465,1.7546,1.7473,1.7716,1.8103,1.8425,1.8576,1.8886,1.9511,2.0981,2.1918,2.2979,2.42,2.5277,2.6377,2.6628,2.6929,2.7117,2.6905,2.6333,2.607,2.5873,2.6013,2.6139,2.5943,2.5816,2.5757,2.5633,2.6047,2.6349,2.6912,2.742,2.795,2.7644,2.6536,2.4926,2.3065,2.1432,1.3105,1.3711,1.3789,1.4391,1.5257,1.3873,1.3275,1.2936,1.1322,1.0467,1.0467,1.012,1.0038,1.0038,1.0038,1.0038,1.0033,1.0294,1.0294,1.0467,1.0641,1.0895,1.1235,1.1494,1.21,1.3039,1.3724,1.4566,1.565,1.5658,1.5989,1.5982,1.5831,1.5989,1.6394,1.6878,1.7764,1.8167,1.8006,1.7602,1.7585,1.8266,1.8656,1.8372,2.0401,2.0874,2.0904,2.1088,2.1098,2.1108,2.0799,2.0323,1.9854,1.9539,1.9073,1.8523,1.8514,1.8585,1.9054,1.945,1.9511,1.8709,1.7997,1.7294,1.6812,1.673,1.673,1.6566,1.6484,1.6237,1.6319,1.6319,1.6484,1.696,1.7204,1.7367,1.761,1.7925,1.8336,1.8336,1.8496,1.8736,1.8966,1.9283,1.9599,2.0138,2.168,2.3065,2.3886,2.4838,2.5898,2.6671,2.6909,2.7058,2.7255,2.6676,2.5975,2.5918,2.5791,2.6,2.6208,2.6277,2.614,2.6089,2.6,2.6065,2.6242,2.6539,2.6842,2.7212,2.7189,2.6751,2.4957,2.294,2.1599,1.2339,1.2845,1.276,1.3444,1.4391,1.3529,1.3112,1.2851,1.1574,1.0376,1.0038,1.0038,1.0038,1.0125,1.0212,1.0381,1.0467,1.0727,1.0809,1.0895,1.1068,1.1322,1.1494,1.1752,1.2186,1.279,1.3222,1.4062,1.5144,1.5144,1.556,1.5899,1.6079,1.6072,1.6476,1.696,1.761,1.7836,1.7521,1.6968,1.6878,1.7334,1.7874,1.7432,1.9158,2.0032,2.0138,2.0401,2.0654,2.0576,2.0342,2.0029,1.9715,1.9399,1.9161,1.8922,1.8754,1.8745,1.9152,1.9618,1.9678,1.8567,1.8086,1.7367,1.6968,1.673,1.673,1.6648,1.6648,1.673,1.673,1.6484,1.6402,1.664,1.718,1.7423,1.8035,1.8435,1.893,1.9265,1.9423,1.964,2.007,2.0469,2.0615,2.1145,2.2274,2.3412,2.3998,2.5075,2.6277,2.6905,2.7255,2.7323,2.7351,2.6514,2.5894,2.6539,2.6333,2.6151,2.622,2.6358,2.6371,2.6168,2.6076,2.5975,2.6168,2.6543,2.6478,2.6306,2.6375,2.6396,2.4884,2.3035,2.2193,1.1402,1.319,1.2851,1.2674,1.2936,1.3711,1.3971,1.3626,1.2595,1.1397,1.0212,1.0125,1.0294,1.0549,1.0641,1.0809,1.1068,1.1241,1.1327,1.1327,1.1499,1.1671,1.1837,1.21,1.2443,1.3392,1.3561,1.3808,1.465,1.4643,1.5068,1.565,1.5906,1.6072,1.6394,1.6476,1.6476,1.6476,1.6409,1.6327,1.6327,1.6558,1.6804,1.735,1.839,1.9265,1.9668,2.0489,2.0741,2.0741,2.0508,2.0264,2.0108,1.9794,1.9557,1.9478,1.946,1.9222,1.8931,1.9152,1.8745,1.8184,1.7942,1.7383,1.6894,1.6812,1.6812,1.6894,1.6894,1.6812,1.6566,1.6312,1.6484,1.6878,1.7496,1.8043,1.8744,1.934,2.0003,2.0313,2.0488,2.0757,2.1288,2.1645,2.1787,2.2306,2.318,2.3913,2.4492,2.5405,2.6676,2.7284,2.7617,2.7484,2.7324,2.6214,2.5881,2.6595,2.6756,2.6289,2.6371,2.6658,2.6533,2.627,2.6201,2.6201,2.6383,2.6599,2.644,2.6302,2.6107,2.576,2.435,2.3305,2.251,1.1322,1.2003,1.1832,1.1746,1.2003,1.3626,1.3964,1.3105,1.174,1.089,1.0809,1.0554,1.0636,1.0982,1.1068,1.1149,1.1327,1.1671,1.1757,1.1757,1.202,1.2277,1.2448,1.2443,1.2699,1.296,1.313,1.3385,1.3984,1.4062,1.4734,1.5484,1.5982,1.6402,1.6566,1.6558,1.664,1.6648,1.6574,1.6492,1.6312,1.6409,1.6574,1.6878,1.8086,1.8957,1.9353,2.0245,2.0809,2.0741,2.0508,2.0342,2.0186,1.9872,1.9872,1.9715,1.9696,1.946,1.8993,1.8895,1.8656,1.8264,1.8031,1.7627,1.7546,1.7546,1.7473,1.7221,1.7221,1.7221,1.7147,1.7302,1.7546,1.8336,1.8957,1.9423,2.0032,2.069,2.1247,2.1282,2.1436,2.1308,2.1645,2.2381,2.267,2.3054,2.3779,2.4719,2.5358,2.6171,2.7217,2.7683,2.8012,2.7802,2.7311,2.6283,2.5742,2.6252,2.6346,2.6082,2.6302,2.6807,2.6739,2.6465,2.6408,2.6408,2.6452,2.6508,2.6521,2.6383,2.6188,2.5676,2.4564,2.3599,2.2798,1.1408,1.1585,1.1757,1.1929,1.2266,1.3379,1.3457,1.2687,1.1494,1.1154,1.1154,1.0977,1.1063,1.1408,1.158,1.1666,1.1757,1.21,1.2272,1.2272,1.2534,1.2619,1.2619,1.2705,1.2699,1.2705,1.2705,1.296,1.3307,1.3392,1.3893,1.4817,1.5899,1.5989,1.6154,1.6229,1.6648,1.6648,1.6648,1.6656,1.6566,1.6566,1.6656,1.696,1.7755,1.863,1.8957,1.9599,2.0401,2.0255,2.0098,1.9942,1.9696,1.946,1.9381,1.9143,1.8816,1.8816,1.8807,1.7997,1.7836,1.8006,1.7942,1.7789,1.7465,1.7049,1.6796,1.6804,1.7294,1.7383,1.731,1.7627,1.8023,1.8736,1.9283,1.9659,2.0138,2.0797,2.1832,2.1935,2.2098,2.1991,2.1959,2.282,2.3463,2.3925,2.4443,2.53,2.6082,2.6812,2.7351,2.7696,2.796,2.7749,2.7191,2.6296,2.5963,2.5988,2.5931,2.5873,2.6289,2.6714,2.6726,2.6739,2.6671,2.6533,2.6521,2.6521,2.6521,2.6533,2.6396,2.5664,2.4707,2.3975,2.3316,1.1585,1.21,1.2534,1.3045,1.3476,1.3052,1.279,1.2705,1.2619,1.21,1.1408,1.1408,1.1585,1.1929,1.2015,1.2186,1.2448,1.2619,1.2619,1.2619,1.2705,1.2705,1.2705,1.2705,1.2705,1.2705,1.2699,1.2705,1.279,1.3052,1.3476,1.4062,1.5394,1.5484,1.5658,1.6072,1.6484,1.6319,1.6402,1.6402,1.6402,1.6648,1.6648,1.6968,1.7602,1.8078,1.8479,1.8957,1.9195,1.9125,1.8816,1.8567,1.8256,1.7934,1.7772,1.761,1.7448,1.7836,1.831,1.7423,1.7107,1.735,1.7196,1.7041,1.6796,1.646,1.6304,1.6304,1.655,1.6722,1.6886,1.7204,1.7521,1.8069,1.8621,1.9097,1.959,2.0537,2.1818,2.2391,2.266,2.2628,2.2617,2.3265,2.3975,2.4492,2.4933,2.5441,2.622,2.6947,2.7364,2.739,2.7577,2.7617,2.7002,2.6239,2.6114,2.6057,2.5988,2.5931,2.6346,2.6769,2.6863,2.693,2.6794,2.6726,2.6671,2.6671,2.6589,2.6533,2.6615,2.5955,2.5075,2.4636,2.3975,1.2357,1.2534,1.2619,1.279,1.296,1.279,1.2966,1.3222,1.2272,1.1843,1.2277,1.1929,1.21,1.2448,1.2534,1.2619,1.2619,1.2705,1.2705,1.2705,1.2705,1.2705,1.2705,1.2705,1.2705,1.2705,1.2705,1.2705,1.2875,1.3045,1.3555,1.4139,1.5311,1.5401,1.5575,1.6072,1.5816,1.5733,1.5899,1.6072,1.6237,1.6484,1.6566,1.6886,1.7448,1.7844,1.8086,1.863,1.8868,1.8798,1.8798,1.8638,1.8256,1.8184,1.8103,1.7619,1.7204,1.6952,1.7504,1.6862,1.6378,1.6617,1.6542,1.6542,1.646,1.6296,1.5966,1.5891,1.6139,1.6468,1.696,1.7359,1.7836,1.8479,1.8948,1.9432,1.9816,2.0275,2.1562,2.2542,2.2735,2.2927,2.299,2.3486,2.4192,2.485,2.5429,2.5791,2.6289,2.6947,2.7229,2.7201,2.7188,2.7229,2.6947,2.6264,2.6264,2.6195,2.6057,2.6208,2.6688,2.7053,2.7134,2.7066,2.6998,2.6943,2.6888,2.682,2.6739,2.6807,2.682,2.6164,2.5594,2.5146,2.4707,1.2869,1.3052,1.279,1.2705,1.2705,1.2705,1.296,1.3052,1.2272,1.2186,1.2619,1.2363,1.2443,1.2619,1.2705,1.2705,1.2705,1.2705,1.2705,1.2705,1.2705,1.2705,1.2705,1.2705,1.2705,1.2705,1.279,1.2875,1.313,1.3555,1.3977,1.4378,1.5387,1.5228,1.5235,1.5318,1.5304,1.5228,1.5401,1.5658,1.5989,1.6319,1.6566,1.6812,1.7367,1.7448,1.7529,1.8149,1.8158,1.8078,1.8078,1.7836,1.7448,1.7367,1.7367,1.6886,1.6394,1.6304,1.6624,1.6041,1.5966,1.6049,1.5809,1.556,1.556,1.5394,1.5235,1.5235,1.5809,1.637,1.7025,1.7755,1.8487,1.9134,1.9539,1.9932,2.013,2.0226,2.1166,2.2273,2.2757,2.2938,2.3276,2.3768,2.4192,2.4564,2.5063,2.5652,2.607,2.6688,2.6905,2.693,2.685,2.6824,2.6483,2.6277,2.607,2.6057,2.6277,2.6496,2.704,2.7323,2.739,2.7268,2.7146,2.7079,2.7092,2.7024,2.6956,2.7024,2.7024,2.6658,2.6164,2.5652,2.5205,1.313,1.3483,1.2966,1.2705,1.2705,1.2705,1.2705,1.2705,1.2613,1.2699,1.2705,1.2705,1.2619,1.2705,1.2705,1.2705,1.2705,1.2705,1.2705,1.2705,1.296,1.2875,1.2705,1.279,1.2875,1.279,1.279,1.296,1.3476,1.3815,1.4055,1.4615,1.472,1.472,1.488,1.4894,1.4803,1.4552,1.5235,1.5831,1.5989,1.6319,1.673,1.673,1.673,1.6812,1.673,1.673,1.673,1.6648,1.664,1.664,1.6476,1.6229,1.6229,1.6064,1.5748,1.5741,1.5816,1.5484,1.5151,1.5068,1.4741,1.4901,1.4985,1.4901,1.4824,1.4741,1.5228,1.6124,1.6854,1.7504,1.8238,1.9134,1.9696,1.9942,1.9963,2.0333,2.1283,2.2262,2.281,2.3001,2.3075,2.357,2.3913,2.4192,2.4552,2.5205,2.5849,2.6346,2.6645,2.6658,2.6658,2.6564,2.622,2.6013,2.5791,2.5861,2.6289,2.6701,2.7121,2.739,2.7723,2.7603,2.7482,2.7348,2.7214,2.7214,2.7146,2.7146,2.7146,2.7079,2.6726,2.6139,2.6,1.3222,1.2966,1.279,1.2705,1.2705,1.2705,1.2705,1.2705,1.2705,1.2705,1.2705,1.2705,1.2705,1.2705,1.2705,1.2705,1.2705,1.2705,1.2705,1.2875,1.313,1.313,1.2954,1.3215,1.313,1.279,1.279,1.3124,1.347,1.3639,1.3964,1.4873,1.4796,1.4796,1.4956,1.4977,1.4643,1.4132,1.4977,1.5906,1.6237,1.6402,1.673,1.673,1.673,1.673,1.673,1.673,1.673,1.6648,1.6648,1.6558,1.6394,1.5974,1.5809,1.5733,1.5506,1.5506,1.5423,1.5333,1.5166,1.5166,1.5082,1.4999,1.4915,1.4664,1.4573,1.4489,1.4894,1.5794,1.6772,1.7423,1.8149,1.9045,1.9863,1.9863,1.9872,2.0692,2.1507,2.2231,2.2874,2.3012,2.3075,2.3213,2.3559,2.3829,2.4036,2.4541,2.5276,2.5849,2.6483,2.6577,2.6521,2.6371,2.6107,2.5955,2.5873,2.607,2.6552,2.6905,2.7188,2.759,2.7921,2.7934,2.7802,2.7523,2.7323,2.7403,2.7403,2.7108,2.6973,2.6837,2.6905,2.6607,2.6701,1.3222,1.3137,1.279,1.2705,1.2705,1.2705,1.2705,1.2705,1.2705,1.2705,1.2705,1.2705,1.2705,1.2705,1.2705,1.2705,1.2705,1.279,1.2875,1.3045,1.33,1.347,1.3555,1.3633,1.3808,1.3633,1.4132,1.4384,1.3886,1.4468,1.5054,1.5455,1.5296,1.481,1.5054,1.4977,1.4727,1.4216,1.5054,1.5809,1.6402,1.6648,1.673,1.673,1.673,1.673,1.673,1.673,1.673,1.673,1.6648,1.6566,1.6394,1.6072,1.5816,1.5741,1.5506,1.5431,1.5431,1.5431,1.5431,1.5347,1.5347,1.5173,1.509,1.4915,1.4831,1.4741,1.465,1.547,1.669,1.7585,1.8479,1.9371,2.001,2.0245,2.0489,2.1021,2.1849,2.2594,2.2993,2.3001,2.3001,2.3075,2.3276,2.335,2.3621,2.4276,2.4921,2.5557,2.6057,2.6483,2.6496,2.6477,2.632,2.6213,2.6094,2.6358,2.6824,2.7297,2.7709,2.7908,2.8183,2.7921,2.7643,2.7364,2.7297,2.7229,2.6786,2.6283,2.6352,2.6433,2.6582,2.6718,2.6744,1.3222,1.3561,1.296,1.2705,1.2705,1.2705,1.2705,1.2705,1.2705,1.2705,1.2705,1.2705,1.2705,1.2705,1.279,1.279,1.279,1.3045,1.3137,1.3222,1.3476,1.3555,1.3802,1.4055,1.4062,1.4398,1.481,1.488,1.4622,1.513,1.5545,1.6124,1.5553,1.4664,1.4908,1.4817,1.4566,1.4977,1.5636,1.6057,1.6394,1.673,1.673,1.673,1.673,1.673,1.673,1.673,1.673,1.673,1.6648,1.6648,1.6484,1.6237,1.6064,1.5906,1.5756,1.5597,1.5514,1.5514,1.5423,1.5423,1.5431,1.5347,1.5257,1.5173,1.509,1.4999,1.4824,1.5304,1.6609,1.7504,1.8479,1.9529,2.0089,2.0557,2.0954,2.1425,2.2248,2.3015,2.3209,2.3194,2.3075,2.3075,2.3075,2.3075,2.3434,2.4082,2.4802,2.5405,2.602,2.6377,2.6595,2.6533,2.6458,2.6377,2.6314,2.6688,2.7149,2.7683,2.8091,2.8105,2.7973,2.755,2.7271,2.6854,2.6705,2.6637,2.6121,2.5542,2.5832,2.5983,2.5636,2.5844,2.6352,1.3568,1.3652,1.2966,1.2705,1.2705,1.2705,1.2705,1.2705,1.2705,1.2705,1.2705,1.2705,1.2705,1.2705,1.2966,1.3052,1.3052,1.3222,1.3307,1.3398,1.3815,1.3808,1.3977,1.4475,1.4062,1.4307,1.4643,1.4468,1.5199,1.5455,1.5703,1.6527,1.5718,1.5151,1.5235,1.5068,1.4985,1.5387,1.6124,1.6706,1.6476,1.6648,1.6648,1.673,1.673,1.673,1.673,1.673,1.673,1.673,1.6648,1.6648,1.6566,1.6394,1.6229,1.6147,1.5914,1.5748,1.5665,1.5582,1.5499,1.5431,1.5431,1.5431,1.5347,1.5347,1.5264,1.5264,1.5333,1.5643,1.6535,1.6862,1.7585,1.9125,2.0089,2.0566,2.0964,2.1838,2.2757,2.3444,2.388,2.3682,2.3446,2.3446,2.3519,2.3582,2.3936,2.4504,2.4791,2.5322,2.6008,2.6364,2.6718,2.665,2.662,2.6615,2.6645,2.7027,2.7404,2.7868,2.8078,2.8039,2.7762,2.6963,2.6408,2.5926,2.5926,2.5763,2.5472,2.5027,2.539,2.5472,2.5051,2.5051,2.5566]},{"header":{"parameterUnit":"m.s-1","parameterCategory":1,"la1":31.0,"la2":29.5877,"lo1":-88.7671,"lo2":-86.6584,"dy":0.0162,"dx":0.0185,"nx":115,"ny":88,"refTime":"2024-04-13T06:00:00:Z","depth":0,"parameterNumber":3,"parameterNumberName":"V-component_of_WINDS"},"data":[0.0,0.0,0.0,0.0,0.0,0.0,0.0,0.0,0.0,0.0,0.0,0.0,0.0,0.0,0.0,0.0,0.0,0.0,0.0,0.0,0.0,0.0,0.0,0.0,0.0,0.0,0.0,0.0,0.0,0.0,0.0,0.0,0.0,0.0,0.0,0.0,0.0,0.0,0.0,0.0,0.0,0.0,0.0,0.0,0.0,0.0,0.0,0.0,0.0,0.0,0.0,0.0,0.0,0.0,0.0,0.0,0.0,0.0,0.0,0.0,0.0,0.0,0.0,0.0,0.0,0.0,0.0,0.0,0.0,0.0,0.0,0.0,0.0,0.0,0.0,0.0,0.0,0.0,0.0,0.0,0.0,0.0,0.0,0.0,0.0,0.0,0.0,0.0,0.0,0.0,0.0,0.0,0.0,0.0,0.0,0.0,0.0,0.0,0.0,0.0,0.0,0.0,0.0,0.0,0.0,0.0,0.0,0.0,0.0,0.0,0.0,0.0,0.0,0.0,0.0,0.0,0.0,0.0,0.0,0.0,0.0,0.0,0.0,0.0,0.0,0.0,0.0,0.0,0.0,0.0,0.0,0.0,0.0,0.0,0.0,0.0,0.0,0.0,0.0,0.0,0.0,0.0,0.0,0.0,0.0,0.0,0.0,0.0,0.0,0.0,0.0,0.0,0.0,0.0,0.0,0.0,0.0,0.0,0.0,0.0,0.0,0.0,0.0,0.0,0.0,0.0,0.0,0.0,0.0,0.0,0.0,0.0,0.0,0.0,0.0,0.0,0.0,0.0,0.0,0.0,0.0,0.0,0.0,0.0,0.0,0.0,0.0,0.0,0.0,0.0,0.0,0.0,0.0,0.0,0.0,0.0,0.0,0.0,0.0,0.0,0.0,0.0,0.0,0.0,0.0,0.0,0.0,0.0,0.0,0.0,0.0,0.0,0.0,0.0,0.0,0.0,0.0,0.0,0.0,0.0,0.0,0.0,0.0,0.0,0.0,0.0,0.0,0.0,0.0,0.0,0.0,0.0,0.0,0.0,0.0,0.0,0.0,0.0,0.0,0.0,0.0,0.0,0.0,0.0,0.0,0.0,0.0,0.0,0.0,0.0,0.0,0.0,0.0,0.0,0.0,0.0,0.0,0.0,0.0,0.0,0.0,0.0,0.0,0.0,0.0,0.0,0.0,0.0,0.0,0.0,0.0,0.0,0.0,0.0,0.0,0.0,0.0,0.0,0.0,0.0,0.0,0.0,0.0,0.0,0.0,0.0,0.0,0.0,0.0,0.0,0.0,0.0,0.0,0.0,0.0,0.0,0.0,0.0,0.0,0.0,0.0,0.0,0.0,0.0,0.0,0.0,0.0,0.0,0.0,0.0,0.0,0.0,0.0,0.0,0.0,0.0,0.0,0.0,0.0,0.0,0.0,0.0,0.0,0.0,0.0,0.0,0.0,0.0,0.0,0.0,0.0,0.0,0.0,0.0,0.0,0.0,0.0,0.0,0.0,0.0,0.0,0.0,0.0,0.0,0.0,0.0,0.0,0.0,0.0,0.0,0.0,0.0,0.0,0.0,0.0,0.0,0.0,0.0,0.0,0.0,0.0,0.0,0.0,0.0,0.0,0.0,0.0,0.0,0.0,0.0,0.0,0.0,0.0,0.0,0.0,0.0,0.0,0.0,0.0,0.0,0.0,0.0,0.0,0.0,0.0,0.0,0.0,0.0,0.0,0.0,0.0,0.0,0.0,0.0,0.0,0.0,0.0,0.0,0.0,0.0,0.0,0.0,0.0,0.0,0.0,0.0,0.0,0.0,0.0,0.0,0.0,0.0,0.0,0.0,0.0,0.0,0.0,0.0,0.0,0.0,0.0,0.0,0.0,0.0,0.0,0.0,0.0,0.0,0.0,0.0,0.0,0.0,0.0,0.0,0.0,0.0,0.0,0.0,0.0,0.0,0.0,0.0,0.0,0.0,0.0,0.0,0.0,0.0,0.0,0.0,0.0,0.0,0.0,0.0,0.0,0.0,0.0,0.0,0.0,0.0,0.0,0.0,0.0,0.0,0.0,0.0,0.0,0.0,0.0,0.0,0.0,0.0,0.0,0.0,0.0,0.0,0.0,0.0,0.0,0.0,0.0,0.0,0.0,0.0,0.0,0.0,0.0,0.0,0.0,0.0,0.0,0.0,0.0,0.0,0.0,0.0,0.0,0.0,0.0,0.0,0.0,0.0,0.0,0.0,0.0,0.0,0.0,0.0,0.0,0.0,0.0,0.0,0.0,0.0,0.0,0.0,0.0,0.0,0.0,0.0,0.0,0.0,0.0,0.0,0.0,0.0,0.0,0.0,0.0,0.0,0.0,0.0,0.0,0.0,0.0,0.0,0.0,0.0,0.0,0.0,0.0,0.0,0.0,0.0,0.0,0.0,0.0,0.0,0.0,0.0,0.0,0.0,0.0,0.0,0.0,0.0,0.0,0.0,0.0,0.0,0.0,0.0,0.0,0.0,0.0,0.0,0.0,0.0,0.0,0.0,0.0,0.0,0.0,0.0,0.0,0.0,0.0,0.0,0.0,0.0,0.0,0.0,0.0,0.0,0.0,0.0,0.0,0.0,0.0,0.0,0.0,0.0,0.0,0.0,0.0,0.0,0.0,0.0,0.0,0.0,0.0,0.0,0.0,0.0,0.0,0.0,0.0,0.0,0.0,0.0,0.0,0.0,0.0,0.0,0.0,0.0,0.0,0.0,0.0,0.0,0.0,0.0,0.0,0.0,0.0,0.0,0.0,0.0,0.0,0.0,0.0,0.0,0.0,0.0,0.0,0.0,0.0,0.0,0.0,0.0,0.0,0.0,0.0,0.0,0.0,0.0,0.0,0.0,0.0,0.0,0.0,0.0,0.0,0.0,0.0,0.0,0.0,0.0,0.0,0.0,0.0,0.0,0.0,0.0,0.0,0.0,0.0,0.0,0.0,0.0,0.0,0.0,0.0,0.0,0.0,0.0,0.0,0.0,0.0,0.0,0.0,0.0,0.0,0.0,0.0,0.0,0.0,0.0,0.0,0.0,0.0,0.0,0.0,0.0,0.0,0.0,0.0,0.0,0.0,0.0,0.0,0.0,0.0,0.0,0.0,0.0,0.0,0.0,0.0,0.0,0.0,0.0,0.0,0.0,0.0,0.0,0.0,0.0,0.0,0.0,0.0,0.0,0.0,0.0,0.0,0.0,0.0,0.0,0.0,0.0,0.0,0.0,0.0,0.0,0.0,0.0,0.0,0.0,0.0,0.0,0.0,0.0,0.0,0.0,0.0,0.0,0.0,0.0,0.0,0.0,0.0,0.0,0.0,0.0,0.0,0.0,0.0,0.0,0.0,0.0,0.0,0.0,0.0,0.0,0.0,0.0,0.0,0.0,0.0,0.0,0.0,0.0,0.0,0.0,0.0,0.0,0.0,0.0,0.0,0.0,0.0,0.0,0.0,0.0,0.0,0.0,0.0,0.0,0.0,0.0,0.0,0.0,0.0,0.0,0.0,0.0,0.0,0.0,0.0,0.0,0.0,0.0,0.0,0.0,0.0,0.0,0.0,0.0,0.0,0.0,0.0,0.0,0.0,0.0,0.0,0.0,0.0,0.0,0.0,0.0,0.0,0.0,0.0,0.0,0.0,0.0,0.0,0.0,0.0,0.0,0.0,0.0,0.0,0.0,0.0,0.0,0.0,0.0,0.0,0.0,0.0,0.0,0.0,0.0,0.0,0.0,0.0,0.0,0.0,0.0,0.0,0.0,0.0,0.0,0.0,0.0,0.0,0.0,0.0,0.0,0.0,0.0,0.0,0.0,0.0,0.0,0.0,0.0,0.0,0.0,0.0,0.0,0.0,0.0,0.0,0.0,0.0,0.0,0.0,0.0,0.0,0.0,0.0,0.0,0.0,0.0,0.0,0.0,0.0,0.0,0.0,0.0,0.0,0.0,0.0,0.0,0.0,0.0,0.0,0.0,0.0,0.0,0.0,0.0,0.0,0.0,0.0,0.0,0.0,0.0,0.0,0.0,0.0,0.0,0.0,0.0,0.0,0.0,0.0,0.0,0.0,0.0,0.0,0.0,0.0,0.0,0.0,0.0,0.0,0.0,0.0,0.0,0.0,0.0,0.0,0.0,0.0,0.0,0.0,0.0,0.0,0.0,0.0,0.0,0.0,0.0,0.0,0.0,0.0,0.0,0.0,0.0,0.0,0.0,0.0,0.0,0.0,0.0,0.0,0.0,0.0,0.0,0.0,0.0,0.0,0.0,-3.8319,0.0,0.0,0.0,0.0,0.0,0.0,0.0,0.0,0.0,0.0,0.0,0.0,0.0,0.0,0.0,0.0,0.0,0.0,0.0,0.0,0.0,0.0,0.0,0.0,0.0,0.0,0.0,0.0,0.0,0.0,0.0,0.0,0.0,0.0,0.0,0.0,0.0,0.0,0.0,0.0,0.0,0.0,0.0,0.0,0.0,0.0,0.0,0.0,0.0,0.0,0.0,0.0,0.0,0.0,0.0,0.0,0.0,0.0,0.0,0.0,0.0,0.0,0.0,0.0,0.0,0.0,0.0,0.0,0.0,0.0,0.0,0.0,0.0,0.0,0.0,0.0,0.0,0.0,0.0,0.0,0.0,0.0,0.0,0.0,0.0,0.0,0.0,0.0,0.0,0.0,0.0,0.0,0.0,0.0,0.0,0.0,0.0,0.0,0.0,0.0,0.0,0.0,0.0,0.0,0.0,0.0,0.0,0.0,0.0,0.0,-3.8427,-3.8656,-3.8917,-3.9007,-3.8936,0.0,0.0,0.0,0.0,0.0,0.0,0.0,0.0,0.0,0.0,0.0,0.0,0.0,0.0,0.0,0.0,0.0,0.0,0.0,0.0,0.0,0.0,0.0,0.0,0.0,0.0,0.0,0.0,0.0,0.0,0.0,0.0,0.0,0.0,0.0,0.0,0.0,0.0,0.0,0.0,0.0,0.0,0.0,0.0,0.0,0.0,0.0,0.0,0.0,0.0,0.0,0.0,0.0,0.0,0.0,0.0,0.0,0.0,0.0,0.0,0.0,0.0,0.0,0.0,0.0,0.0,0.0,0.0,0.0,0.0,0.0,0.0,0.0,0.0,0.0,0.0,0.0,0.0,0.0,0.0,0.0,0.0,0.0,0.0,0.0,0.0,0.0,0.0,0.0,0.0,0.0,0.0,0.0,0.0,0.0,0.0,0.0,0.0,0.0,0.0,0.0,0.0,0.0,0.0,0.0,0.0,0.0,0.0,0.0,0.0,0.0,0.0,-3.9204,-3.9137,-3.8902,0.0,0.0,0.0,0.0,0.0,0.0,0.0,0.0,0.0,0.0,0.0,0.0,0.0,0.0,0.0,0.0,0.0,0.0,0.0,0.0,0.0,0.0,0.0,0.0,0.0,0.0,0.0,0.0,0.0,0.0,0.0,0.0,0.0,0.0,0.0,0.0,0.0,0.0,0.0,0.0,0.0,0.0,0.0,0.0,0.0,0.0,0.0,0.0,0.0,0.0,0.0,0.0,0.0,0.0,0.0,0.0,0.0,0.0,0.0,0.0,0.0,0.0,0.0,0.0,0.0,0.0,0.0,0.0,0.0,0.0,0.0,0.0,0.0,0.0,0.0,0.0,0.0,0.0,0.0,0.0,0.0,0.0,0.0,0.0,0.0,0.0,0.0,0.0,0.0,0.0,0.0,0.0,0.0,0.0,0.0,0.0,0.0,0.0,0.0,0.0,0.0,0.0,0.0,0.0,0.0,0.0,0.0,0.0,0.0,0.0,-3.8163,-3.7714,-3.8071,0.0,-3.7419,0.0,0.0,0.0,0.0,0.0,0.0,0.0,0.0,0.0,0.0,0.0,0.0,0.0,0.0,0.0,0.0,0.0,0.0,0.0,0.0,0.0,0.0,0.0,0.0,0.0,0.0,0.0,0.0,0.0,0.0,0.0,0.0,0.0,0.0,0.0,0.0,0.0,0.0,0.0,0.0,0.0,0.0,0.0,0.0,0.0,0.0,0.0,0.0,0.0,0.0,0.0,0.0,0.0,0.0,0.0,0.0,0.0,0.0,0.0,0.0,0.0,0.0,0.0,0.0,0.0,0.0,0.0,0.0,0.0,0.0,0.0,0.0,0.0,0.0,0.0,0.0,0.0,0.0,0.0,0.0,0.0,0.0,0.0,0.0,0.0,0.0,0.0,0.0,0.0,0.0,0.0,0.0,0.0,0.0,0.0,0.0,0.0,0.0,0.0,0.0,0.0,0.0,0.0,0.0,0.0,0.0,0.0,0.0,0.0,0.0,-3.7735,-3.8387,-3.8606,-3.8287,0.0,0.0,0.0,0.0,0.0,0.0,0.0,0.0,0.0,0.0,0.0,0.0,0.0,0.0,0.0,0.0,0.0,0.0,0.0,0.0,0.0,0.0,0.0,0.0,0.0,0.0,0.0,0.0,0.0,0.0,0.0,0.0,0.0,0.0,0.0,0.0,0.0,0.0,0.0,0.0,0.0,0.0,0.0,0.0,0.0,0.0,0.0,0.0,0.0,0.0,0.0,0.0,0.0,0.0,0.0,0.0,0.0,0.0,0.0,0.0,0.0,0.0,0.0,0.0,0.0,0.0,0.0,0.0,0.0,0.0,0.0,0.0,0.0,0.0,0.0,0.0,0.0,0.0,0.0,0.0,0.0,0.0,0.0,0.0,0.0,0.0,0.0,0.0,0.0,0.0,0.0,0.0,0.0,0.0,0.0,0.0,0.0,0.0,0.0,0.0,0.0,0.0,0.0,0.0,0.0,0.0,0.0,0.0,0.0,0.0,-3.6898,-3.7182,-3.8387,-3.8569,-3.8383,-3.7834,0.0,0.0,0.0,0.0,0.0,0.0,0.0,0.0,0.0,0.0,0.0,0.0,0.0,0.0,0.0,0.0,0.0,0.0,0.0,0.0,0.0,0.0,0.0,0.0,0.0,0.0,0.0,0.0,0.0,0.0,0.0,0.0,0.0,0.0,0.0,0.0,0.0,0.0,0.0,0.0,0.0,0.0,0.0,0.0,0.0,0.0,0.0,0.0,0.0,0.0,0.0,0.0,0.0,0.0,0.0,0.0,0.0,0.0,0.0,0.0,0.0,0.0,0.0,0.0,0.0,0.0,0.0,0.0,0.0,0.0,0.0,0.0,0.0,0.0,0.0,0.0,0.0,0.0,0.0,0.0,0.0,0.0,0.0,0.0,0.0,0.0,0.0,0.0,0.0,0.0,0.0,0.0,0.0,0.0,0.0,0.0,0.0,0.0,0.0,0.0,0.0,0.0,0.0,0.0,0.0,0.0,0.0,0.0,-3.4293,-3.5542,-3.6502,-3.7069,-3.7236,-3.7852,0.0,0.0,0.0,0.0,0.0,0.0,0.0,0.0,0.0,0.0,0.0,0.0,0.0,0.0,0.0,0.0,0.0,0.0,0.0,0.0,0.0,0.0,0.0,0.0,0.0,0.0,0.0,0.0,0.0,0.0,0.0,0.0,0.0,0.0,0.0,0.0,0.0,0.0,0.0,0.0,0.0,0.0,0.0,0.0,0.0,0.0,0.0,0.0,0.0,0.0,0.0,0.0,0.0,0.0,0.0,0.0,0.0,0.0,0.0,0.0,0.0,0.0,0.0,0.0,0.0,0.0,0.0,0.0,0.0,0.0,0.0,0.0,0.0,0.0,0.0,0.0,0.0,0.0,0.0,0.0,0.0,0.0,0.0,0.0,0.0,0.0,0.0,0.0,0.0,0.0,0.0,0.0,0.0,0.0,0.0,0.0,0.0,0.0,0.0,0.0,0.0,0.0,0.0,0.0,0.0,0.0,0.0,0.0,0.0,-3.5514,-3.6059,-3.5876,-3.5065,-3.6605,-3.7469,0.0,0.0,0.0,0.0,0.0,0.0,0.0,0.0,0.0,0.0,0.0,0.0,0.0,0.0,0.0,0.0,0.0,0.0,0.0,0.0,0.0,0.0,0.0,0.0,0.0,0.0,0.0,0.0,0.0,0.0,0.0,0.0,0.0,0.0,0.0,0.0,0.0,0.0,0.0,0.0,0.0,0.0,0.0,0.0,0.0,0.0,0.0,0.0,0.0,0.0,0.0,0.0,0.0,0.0,0.0,0.0,0.0,0.0,0.0,0.0,0.0,0.0,0.0,0.0,0.0,0.0,0.0,0.0,0.0,0.0,0.0,0.0,0.0,0.0,0.0,0.0,0.0,0.0,0.0,0.0,0.0,0.0,0.0,0.0,0.0,0.0,0.0,0.0,0.0,0.0,0.0,0.0,0.0,0.0,0.0,0.0,0.0,0.0,0.0,0.0,0.0,0.0,0.0,0.0,0.0,0.0,0.0,0.0,0.0,-3.5773,0.0,-3.5382,-3.4473,-3.6075,-3.7169,0.0,0.0,0.0,0.0,0.0,0.0,0.0,0.0,0.0,0.0,0.0,0.0,0.0,0.0,0.0,0.0,0.0,0.0,0.0,0.0,0.0,0.0,0.0,0.0,0.0,0.0,0.0,0.0,0.0,0.0,0.0,0.0,0.0,0.0,0.0,0.0,0.0,0.0,0.0,0.0,0.0,0.0,0.0,0.0,0.0,0.0,0.0,0.0,0.0,0.0,0.0,0.0,0.0,0.0,0.0,0.0,0.0,0.0,0.0,0.0,0.0,0.0,0.0,0.0,0.0,0.0,0.0,0.0,0.0,0.0,0.0,0.0,0.0,0.0,0.0,0.0,0.0,0.0,0.0,0.0,0.0,0.0,0.0,0.0,0.0,0.0,0.0,0.0,0.0,0.0,0.0,0.0,0.0,0.0,0.0,0.0,0.0,0.0,0.0,0.0,0.0,0.0,0.0,0.0,0.0,0.0,0.0,0.0,-3.5058,-3.4578,-3.4746,-3.4949,-3.5359,-3.5595,-3.6754,0.0,0.0,0.0,0.0,0.0,0.0,0.0,0.0,0.0,0.0,0.0,0.0,0.0,0.0,0.0,0.0,0.0,0.0,0.0,0.0,0.0,0.0,0.0,0.0,0.0,0.0,0.0,0.0,0.0,0.0,0.0,0.0,0.0,0.0,0.0,0.0,0.0,0.0,0.0,0.0,0.0,0.0,0.0,0.0,0.0,0.0,0.0,0.0,0.0,0.0,0.0,0.0,0.0,0.0,0.0,0.0,0.0,0.0,0.0,0.0,0.0,0.0,0.0,0.0,0.0,0.0,0.0,0.0,0.0,0.0,0.0,0.0,0.0,0.0,0.0,0.0,0.0,0.0,0.0,0.0,0.0,0.0,0.0,0.0,0.0,0.0,0.0,0.0,0.0,0.0,0.0,0.0,0.0,0.0,0.0,0.0,0.0,0.0,0.0,0.0,0.0,0.0,0.0,0.0,0.0,0.0,0.0,0.0,0.0,-3.4706,-3.4545,-3.4153,-3.3683,-3.4929,-3.5792,0.0,0.0,0.0,0.0,0.0,0.0,0.0,0.0,0.0,0.0,0.0,0.0,0.0,0.0,0.0,0.0,0.0,0.0,0.0,0.0,0.0,0.0,0.0,0.0,0.0,0.0,0.0,0.0,0.0,0.0,0.0,0.0,0.0,0.0,0.0,0.0,0.0,0.0,0.0,0.0,0.0,0.0,0.0,0.0,0.0,0.0,0.0,0.0,0.0,0.0,0.0,0.0,0.0,0.0,0.0,0.0,0.0,0.0,0.0,0.0,0.0,0.0,0.0,0.0,0.0,0.0,0.0,0.0,0.0,0.0,0.0,0.0,0.0,0.0,0.0,0.0,0.0,0.0,0.0,0.0,0.0,0.0,0.0,0.0,0.0,0.0,0.0,0.0,0.0,0.0,0.0,0.0,0.0,0.0,0.0,0.0,0.0,0.0,0.0,0.0,0.0,0.0,0.0,0.0,0.0,0.0,0.0,0.0,0.0,-2.343,-3.0104,-3.3523,-3.298,-3.4266,-3.5065,-3.521,0.0,0.0,0.0,0.0,0.0,0.0,0.0,0.0,0.0,0.0,0.0,0.0,0.0,0.0,0.0,0.0,0.0,0.0,0.0,0.0,0.0,0.0,0.0,0.0,0.0,0.0,0.0,0.0,0.0,0.0,0.0,0.0,0.0,0.0,0.0,0.0,0.0,0.0,0.0,0.0,0.0,0.0,0.0,0.0,0.0,0.0,0.0,0.0,0.0,0.0,0.0,0.0,0.0,0.0,0.0,0.0,0.0,0.0,0.0,0.0,0.0,0.0,0.0,0.0,0.0,0.0,0.0,0.0,0.0,0.0,0.0,0.0,0.0,0.0,0.0,0.0,0.0,0.0,0.0,0.0,0.0,0.0,0.0,0.0,0.0,0.0,0.0,0.0,0.0,0.0,0.0,0.0,0.0,0.0,0.0,0.0,0.0,0.0,0.0,0.0,0.0,0.0,0.0,0.0,0.0,0.0,0.0,0.0,-0.3353,-2.1549,-3.1367,-3.222,-3.3316,-3.4509,0.0,0.0,0.0,0.0,0.0,0.0,0.0,0.0,0.0,0.0,0.0,0.0,0.0,0.0,0.0,0.0,0.0,0.0,0.0,0.0,0.0,0.0,0.0,0.0,0.0,0.0,0.0,0.0,0.0,0.0,0.0,0.0,0.0,0.0,0.0,0.0,0.0,0.0,0.0,0.0,0.0,0.0,0.0,0.0,0.0,0.0,0.0,0.0,0.0,0.0,0.0,0.0,0.0,0.0,0.0,0.0,0.0,0.0,0.0,0.0,0.0,0.0,0.0,0.0,0.0,0.0,0.0,0.0,0.0,0.0,0.0,0.0,0.0,0.0,0.0,0.0,0.0,0.0,0.0,0.0,0.0,0.0,0.0,0.0,0.0,0.0,0.0,0.0,0.0,0.0,0.0,0.0,0.0,0.0,0.0,0.0,0.0,0.0,0.0,0.0,0.0,0.0,0.0,0.0,0.0,0.0,0.0,0.0,0.0,-0.3693,-0.7899,-1.3908,-2.126,-2.9509,-3.3963,0.0,0.0,0.0,0.0,0.0,0.0,0.0,0.0,0.0,0.0,0.0,0.0,0.0,0.0,0.0,0.0,0.0,0.0,0.0,0.0,0.0,0.0,0.0,0.0,0.0,0.0,0.0,0.0,0.0,0.0,0.0,0.0,0.0,0.0,0.0,0.0,0.0,0.0,0.0,0.0,0.0,0.0,0.0,0.0,0.0,0.0,0.0,0.0,0.0,0.0,0.0,0.0,0.0,0.0,0.0,0.0,0.0,0.0,0.0,0.0,0.0,0.0,0.0,0.0,0.0,0.0,0.0,0.0,0.0,0.0,0.0,0.0,0.0,0.0,0.0,0.0,0.0,0.0,0.0,0.0,0.0,0.0,0.0,0.0,0.0,0.0,0.0,0.0,0.0,0.0,0.0,0.0,0.0,0.0,0.0,0.0,0.0,0.0,0.0,0.0,0.0,0.0,0.0,0.0,0.0,0.0,0.0,0.0,-0.0533,0.9818,0.6124,-0.0718,-1.0555,-2.1327,-2.9117,0.0,0.0,0.0,0.0,0.0,0.0,0.0,0.0,0.0,0.0,0.0,0.0,0.0,0.0,0.0,0.0,0.0,0.0,0.0,0.0,0.0,0.0,0.0,0.0,0.0,0.0,0.0,0.0,0.0,0.0,0.0,0.0,0.0,0.0,0.0,0.0,0.0,0.0,0.0,0.0,0.0,0.0,0.0,0.0,0.0,0.0,0.0,0.0,0.0,0.0,0.0,0.0,0.0,0.0,0.0,0.0,0.0,0.0,0.0,0.0,0.0,0.0,0.0,0.0,0.0,0.0,0.0,0.0,0.0,0.0,0.0,0.0,0.0,0.0,0.0,0.0,0.0,0.0,0.0,0.0,0.0,0.0,0.0,0.0,0.0,0.0,0.0,0.0,0.0,0.0,0.0,0.0,0.0,0.0,0.0,0.0,0.0,0.0,0.0,0.0,0.0,0.0,0.0,0.0,0.0,0.0,0.0,0.0,1.7382,2.7657,1.919,0.9742,-0.012,-1.1477,-2.2589,0.0,0.0,0.0,0.0,0.0,0.0,0.0,0.0,0.0,0.0,0.0,0.0,0.0,0.0,0.0,0.0,0.0,0.0,0.0,0.0,0.0,0.0,0.0,0.0,0.0,0.0,0.0,0.0,0.0,0.0,0.0,0.0,0.0,0.0,0.0,0.0,0.0,0.0,0.0,0.0,0.0,0.0,0.0,0.0,0.0,0.0,0.0,0.0,0.0,0.0,0.0,0.0,0.0,0.0,0.0,0.0,0.0,0.0,0.0,0.0,0.0,0.0,0.0,0.0,0.0,0.0,0.0,0.0,0.0,0.0,0.0,0.0,0.0,0.0,0.0,0.0,0.0,0.0,0.0,0.0,0.0,0.0,0.0,0.0,0.0,0.0,0.0,0.0,0.0,0.0,0.0,0.0,0.0,0.0,0.0,0.0,0.0,0.0,0.0,0.0,0.0,0.0,0.0,0.0,0.0,0.0,0.0,0.0,1.7456,2.7683,2.6207,2.0482,1.052,-0.7926,-2.275,0.0,0.0,0.0,0.0,0.0,0.0,0.0,0.0,0.0,0.0,0.0,0.0,0.0,0.0,0.0,0.0,0.0,0.0,0.0,0.0,0.0,0.0,0.0,0.0,0.0,0.0,0.0,0.0,0.0,0.0,0.0,0.0,0.0,0.0,0.0,0.0,0.0,0.0,0.0,0.0,0.0,0.0,0.0,0.0,0.0,0.0,0.0,0.0,-4.2069,0.0,0.0,0.0,0.0,0.0,0.0,0.0,0.0,0.0,0.0,0.0,0.0,0.0,0.0,0.0,0.0,0.0,0.0,0.0,0.0,0.0,0.0,0.0,0.0,0.0,0.0,0.0,0.0,0.0,0.0,0.0,0.0,0.0,0.0,0.0,0.0,0.0,0.0,0.0,0.0,0.0,0.0,0.0,0.0,0.0,0.0,0.0,0.0,0.0,0.0,0.0,0.0,0.0,0.0,0.0,0.0,0.0,0.0,0.0,2.2998,2.8607,2.8844,2.4066,1.3839,-0.1694,-1.5083,0.0,0.0,0.0,0.0,0.0,0.0,0.0,0.0,0.0,0.0,0.0,0.0,0.0,0.0,0.0,0.0,0.0,0.0,0.0,0.0,0.0,0.0,0.0,0.0,0.0,0.0,0.0,0.0,0.0,0.0,0.0,0.0,0.0,0.0,0.0,0.0,0.0,0.0,0.0,0.0,0.0,0.0,0.0,0.0,0.0,0.0,0.0,0.0,0.0,0.0,0.0,0.0,0.0,0.0,0.0,0.0,0.0,0.0,0.0,0.0,0.0,0.0,0.0,0.0,0.0,0.0,0.0,0.0,0.0,0.0,0.0,0.0,0.0,0.0,0.0,0.0,0.0,0.0,0.0,0.0,0.0,0.0,0.0,0.0,0.0,0.0,0.0,0.0,0.0,0.0,0.0,0.0,0.0,0.0,0.0,0.0,0.0,0.0,0.0,0.0,0.0,0.0,0.0,0.0,0.0,0.0,0.0,2.457,2.9352,2.9713,2.9415,2.5174,1.6719,0.5168,-0.5552,-1.5139,0.0,0.0,0.0,0.0,0.0,0.0,0.0,0.0,0.0,0.0,0.0,0.0,0.0,0.0,0.0,0.0,0.0,0.0,0.0,0.0,0.0,0.0,0.0,0.0,0.0,0.0,0.0,0.0,0.0,0.0,0.0,0.0,0.0,0.0,0.0,0.0,0.0,0.0,-4.2011,-4.1161,0.0,0.0,0.0,0.0,0.0,0.0,0.0,0.0,-4.1118,0.0,0.0,0.0,0.0,0.0,0.0,0.0,0.0,0.0,0.0,0.0,0.0,0.0,0.0,0.0,0.0,0.0,0.0,0.0,0.0,0.0,0.0,0.0,0.0,0.0,0.0,0.0,0.0,0.0,0.0,0.0,0.0,0.0,0.0,0.0,0.0,0.0,0.0,0.0,0.0,0.0,0.0,0.0,0.0,0.0,0.0,0.0,0.0,0.0,0.0,0.0,0.0,0.0,0.0,0.0,0.0,2.6151,2.8288,2.9608,3.0343,2.9931,2.9002,2.7209,0.9562,-0.1682,-0.5354,0.0,0.0,0.0,0.0,0.0,0.0,0.0,0.0,0.0,0.0,0.0,0.0,0.0,0.0,0.0,0.0,0.0,0.0,0.0,0.0,0.0,0.0,0.0,0.0,0.0,0.0,0.0,0.0,0.0,0.0,0.0,0.0,0.0,0.0,0.0,0.0,0.0,0.0,0.0,-3.9093,-3.8383,0.0,0.0,0.0,0.0,0.0,0.0,0.0,0.0,-4.0604,0.0,0.0,0.0,0.0,0.0,0.0,0.0,0.0,0.0,0.0,0.0,0.0,0.0,0.0,0.0,0.0,0.0,0.0,0.0,0.0,0.0,0.0,0.0,0.0,0.0,0.0,0.0,0.0,0.0,0.0,0.0,0.0,0.0,0.0,0.0,0.0,0.0,0.0,0.0,0.0,0.0,0.0,0.0,0.0,0.0,0.0,0.0,0.0,0.0,0.0,0.0,0.0,0.0,0.0,0.0,2.8955,2.9917,3.0539,3.0896,3.0598,3.0358,2.9915,1.0826,-0.0478,0.0,0.0,0.0,0.0,0.0,0.0,0.0,0.0,0.0,0.0,0.0,0.0,0.0,0.0,0.0,0.0,0.0,0.0,0.0,0.0,0.0,0.0,0.0,0.0,0.0,0.0,0.0,0.0,0.0,0.0,0.0,0.0,0.0,0.0,0.0,0.0,0.0,0.0,0.0,0.0,-3.9333,-3.8815,-3.802,0.0,0.0,0.0,0.0,0.0,0.0,-4.0228,-4.0304,0.0,0.0,0.0,0.0,0.0,0.0,0.0,0.0,0.0,0.0,0.0,0.0,0.0,0.0,0.0,0.0,0.0,0.0,0.0,0.0,0.0,0.0,0.0,0.0,0.0,0.0,0.0,0.0,0.0,0.0,0.0,0.0,0.0,0.0,0.0,0.0,0.0,0.0,0.0,0.0,0.0,0.0,0.0,0.0,0.0,0.0,0.0,0.0,0.0,0.0,0.0,0.0,0.0,0.0,0.0,2.9566,3.0748,3.1394,3.1452,3.1263,3.0911,3.0125,1.1245,-0.006,0.0,0.0,0.0,0.0,0.0,0.0,0.0,0.0,0.0,0.0,0.0,0.0,0.0,0.0,0.0,0.0,0.0,0.0,0.0,0.0,0.0,0.0,0.0,0.0,0.0,0.0,0.0,0.0,0.0,0.0,0.0,0.0,0.0,0.0,0.0,0.0,0.0,0.0,0.0,0.0,0.0,-3.9237,-3.8451,-3.9072,0.0,0.0,0.0,0.0,-3.9941,-3.9814,0.0,0.0,0.0,0.0,0.0,0.0,0.0,0.0,0.0,0.0,0.0,0.0,0.0,0.0,0.0,0.0,0.0,0.0,0.0,0.0,0.0,0.0,0.0,0.0,0.0,0.0,0.0,0.0,0.0,0.0,0.0,0.0,0.0,0.0,0.0,0.0,0.0,0.0,0.0,0.0,0.0,0.0,0.0,0.0,0.0,0.0,0.0,0.0,0.0,0.0,0.0,0.0,0.0,0.0,0.0,0.0,2.9766,3.0866,3.1667,3.2079,3.1796,3.1379,3.0719,1.1859,0.055,0.0,0.0,0.0,0.0,0.0,0.0,0.0,0.0,0.0,0.0,0.0,0.0,0.0,0.0,0.0,0.0,0.0,0.0,0.0,0.0,0.0,0.0,0.0,0.0,0.0,0.0,0.0,0.0,0.0,0.0,0.0,0.0,0.0,0.0,0.0,0.0,0.0,0.0,0.0,0.0,0.0,-3.8034,-3.8277,-3.835,-3.8542,0.0,0.0,-3.8866,-3.8902,-3.8762,0.0,0.0,0.0,0.0,0.0,0.0,0.0,0.0,0.0,0.0,0.0,0.0,0.0,0.0,0.0,0.0,0.0,0.0,0.0,0.0,0.0,0.0,0.0,0.0,0.0,0.0,0.0,0.0,0.0,0.0,0.0,0.0,0.0,0.0,0.0,0.0,0.0,0.0,0.0,0.0,0.0,0.0,0.0,0.0,0.0,0.0,0.0,0.0,0.0,0.0,0.0,0.0,0.0,0.0,0.0,2.9594,3.0194,3.1248,3.1868,3.2094,3.2079,3.1766,3.1014,1.2202,0.0973,0.0,0.0,0.0,0.0,0.0,0.0,0.0,0.0,0.0,0.0,0.0,0.0,0.0,0.0,0.0,0.0,0.0,0.0,0.0,0.0,0.0,0.0,0.0,0.0,0.0,0.0,0.0,0.0,0.0,0.0,0.0,0.0,0.0,0.0,0.0,0.0,0.0,0.0,0.0,0.0,0.0,0.0,-3.867,-3.8504,0.0,0.0,0.0,-3.881,-3.9101,0.0,0.0,0.0,0.0,0.0,0.0,0.0,0.0,0.0,0.0,0.0,0.0,0.0,0.0,0.0,0.0,0.0,0.0,0.0,0.0,0.0,0.0,0.0,0.0,0.0,0.0,0.0,0.0,0.0,0.0,0.0,0.0,0.0,0.0,0.0,0.0,0.0,0.0,0.0,0.0,0.0,0.0,0.0,0.0,0.0,0.0,0.0,0.0,0.0,0.0,0.0,0.0,0.0,0.0,0.0,0.0,0.0,3.0911,3.189,3.2382,3.2382,3.2382,3.1936,3.072,1.2382,0.0,0.0,0.0,0.0,0.0,0.0,0.0,0.0,0.0,0.0,0.0,0.0,0.0,0.0,0.0,0.0,0.0,0.0,0.0,0.0,0.0,0.0,0.0,0.0,0.0,0.0,0.0,-4.0698,0.0,0.0,0.0,0.0,0.0,0.0,0.0,0.0,0.0,0.0,0.0,0.0,0.0,0.0,-3.8277,-3.8778,-3.8615,-3.8504,0.0,0.0,-3.8851,-3.9245,-3.9272,-3.9401,0.0,0.0,0.0,0.0,0.0,0.0,0.0,0.0,0.0,0.0,0.0,0.0,0.0,0.0,0.0,0.0,0.0,0.0,0.0,0.0,0.0,0.0,0.0,0.0,0.0,0.0,0.0,0.0,0.0,0.0,0.0,0.0,0.0,0.0,0.0,0.0,0.0,0.0,0.0,0.0,0.0,0.0,0.0,0.0,0.0,0.0,0.0,0.0,0.0,0.0,0.0,0.0,0.0,0.0,0.0,3.191,3.2882,3.338,3.338,3.2734,3.1936,3.072,1.2458,0.1402,0.0,0.0,0.0,0.0,0.0,0.0,0.0,0.0,0.0,0.0,0.0,0.0,0.0,0.0,0.0,0.0,0.0,0.0,0.0,0.0,0.0,0.0,0.0,0.0,0.0,0.0,0.0,0.0,0.0,0.0,0.0,0.0,0.0,0.0,0.0,0.0,0.0,0.0,0.0,0.0,0.0,-3.8455,-3.8201,-3.8364,-3.848,0.0,-3.8656,-3.8792,-3.875,-3.895,-3.9165,-3.9324,0.0,0.0,0.0,0.0,0.0,0.0,0.0,0.0,0.0,0.0,0.0,0.0,0.0,0.0,0.0,0.0,0.0,0.0,0.0,0.0,0.0,0.0,0.0,0.0,0.0,0.0,0.0,0.0,0.0,0.0,0.0,0.0,0.0,0.0,0.0,0.0,0.0,0.0,0.0,0.0,0.0,0.0,0.0,0.0,0.0,0.0,0.0,0.0,0.0,0.0,0.0,0.0,0.0,3.2183,3.2645,3.3793,3.4088,3.3518,3.338,3.2725,3.1422,1.2598,0.1707,0.0,0.0,0.0,0.0,0.0,0.0,0.0,0.0,0.0,0.0,0.0,0.0,0.0,0.0,0.0,0.0,0.0,0.0,0.0,0.0,0.0,0.0,0.0,0.0,0.0,0.0,0.0,0.0,-3.8588,-3.8221,-3.8101,0.0,0.0,0.0,0.0,0.0,0.0,0.0,0.0,0.0,0.0,-3.7487,-3.8016,-3.7948,0.0,0.0,-3.8444,-3.8601,-3.8891,-3.9185,-3.9414,-3.969,-3.9963,0.0,0.0,0.0,0.0,0.0,0.0,0.0,0.0,0.0,0.0,0.0,0.0,0.0,0.0,0.0,0.0,0.0,0.0,0.0,0.0,0.0,0.0,0.0,0.0,0.0,0.0,0.0,0.0,0.0,0.0,0.0,0.0,0.0,0.0,0.0,0.0,0.0,0.0,0.0,0.0,0.0,0.0,0.0,0.0,0.0,0.0,0.0,0.0,0.0,0.0,0.0,0.0,3.3034,3.3508,3.4722,3.4894,3.3973,3.3906,3.3171,3.1267,1.2685,0.189,0.0,0.0,0.0,0.0,0.0,0.0,0.0,0.0,0.0,0.0,0.0,0.0,0.0,0.0,0.0,0.0,0.0,0.0,0.0,0.0,0.0,0.0,0.0,0.0,0.0,0.0,0.0,0.0,-3.7966,-3.7739,-3.7755,0.0,0.0,0.0,0.0,0.0,0.0,0.0,0.0,0.0,0.0,-3.6759,-3.7505,-3.7505,-3.7631,-3.8141,-3.8368,-3.8588,-3.8927,-3.9285,-3.9599,-3.9846,0.0,0.0,0.0,0.0,0.0,0.0,0.0,0.0,0.0,0.0,0.0,0.0,0.0,0.0,0.0,0.0,0.0,0.0,0.0,0.0,0.0,0.0,0.0,0.0,0.0,0.0,0.0,3.7629,0.0,0.0,3.6056,0.0,0.0,0.0,0.0,0.0,0.0,0.0,0.0,0.0,0.0,0.0,0.0,0.0,0.0,0.0,0.0,0.0,0.0,0.0,0.0,0.0,0.0,3.4537,3.4584,3.5771,3.5933,3.499,3.4284,3.3224,3.1354,1.2761,0.189,0.0423,0.0,0.0,0.0,0.0,0.0,0.0,0.0,0.0,0.0,0.0,0.0,0.0,0.0,0.0,0.0,0.0,0.0,0.0,0.0,0.0,0.0,0.0,0.0,0.0,0.0,0.0,-3.8101,-3.7721,-3.7505,0.0,0.0,0.0,0.0,0.0,0.0,0.0,0.0,0.0,0.0,-3.6493,-3.6504,-3.655,-3.7099,-3.7577,-3.7775,-3.8404,-3.8822,-3.8738,-3.9205,-3.9611,0.0,0.0,0.0,0.0,0.0,0.0,0.0,0.0,0.0,0.0,0.0,0.0,0.0,0.0,0.0,0.0,0.0,0.0,0.0,0.0,0.0,0.0,0.0,0.0,0.0,0.0,0.0,3.726,3.6859,0.0,0.0,0.0,0.0,0.0,0.0,0.0,0.0,0.0,0.0,0.0,3.8439,3.9001,0.0,0.0,0.0,0.0,0.0,0.0,0.0,0.0,0.0,0.0,0.0,0.0,3.5315,3.565,3.6716,3.6833,3.5933,3.5172,3.4267,3.304,1.9674,0.5696,-0.836,0.0,0.0,0.0,0.0,0.0,0.0,0.0,0.0,0.0,0.0,0.0,0.0,0.0,0.0,0.0,0.0,0.0,0.0,0.0,0.0,0.0,0.0,0.0,0.0,0.0,-3.7685,0.0,0.0,0.0,0.0,0.0,0.0,0.0,0.0,0.0,0.0,0.0,-3.6417,-3.6113,-3.6088,-3.619,-3.6444,-3.7076,-3.7488,0.0,0.0,0.0,0.0,0.0,0.0,0.0,0.0,0.0,0.0,0.0,0.0,0.0,0.0,-3.9977,-4.0207,-4.0239,-4.0068,-3.9528,0.0,0.0,0.0,0.0,0.0,0.0,0.0,0.0,0.0,0.0,0.0,0.0,0.0,0.0,3.7431,0.0,3.7023,0.0,0.0,0.0,0.0,0.0,0.0,0.0,0.0,3.8732,3.9337,3.9442,4.0024,4.0018,0.0,3.9108,3.8568,0.0,0.0,0.0,0.0,0.0,0.0,0.0,0.0,3.5936,3.6111,3.7099,3.7137,3.6219,3.5579,3.4714,3.3441,1.9693,0.4074,-1.2924,-2.3766,-3.0049,0.0,0.0,0.0,0.0,0.0,0.0,0.0,0.0,0.0,0.0,0.0,0.0,0.0,0.0,0.0,0.0,0.0,0.0,0.0,0.0,0.0,0.0,0.0,-3.7111,0.0,0.0,0.0,0.0,0.0,0.0,0.0,0.0,0.0,-3.5625,-3.5026,-3.4454,-3.4282,-3.4745,-3.5256,-3.563,0.0,0.0,0.0,0.0,0.0,0.0,0.0,-3.9532,-3.9772,-4.027,-4.0688,-4.0758,-4.0638,-4.0455,-4.0238,0.0,0.0,-3.9846,-3.97,-3.934,-3.8833,-3.9005,-3.8752,-3.7232,-3.67,-3.6035,0.0,0.0,0.0,0.0,0.0,0.0,0.0,0.0,3.8332,3.8233,0.0,3.7998,0.0,0.0,0.0,0.0,0.0,3.7853,0.0,0.0,4.0288,4.0785,4.0799,4.085,4.094,4.0943,4.0134,3.9669,3.9451,3.7718,0.0,0.0,0.0,0.0,0.0,0.0,3.6429,3.6219,3.7008,3.6893,3.59,3.5497,3.4622,3.2809,1.3339,-0.2192,-1.251,-2.2829,-2.9228,-3.0679,-3.1608,0.0,0.0,0.0,0.0,0.0,0.0,0.0,0.0,0.0,0.0,0.0,0.0,0.0,0.0,0.0,0.0,0.0,0.0,0.0,0.0,-3.6696,0.0,0.0,0.0,0.0,0.0,0.0,0.0,0.0,0.0,0.0,-3.3307,-3.2482,-3.1612,-3.1366,0.0,0.0,0.0,0.0,-3.7033,-3.7178,-3.7893,-3.8337,-3.8101,-3.872,-3.9349,-3.9751,0.0,0.0,-4.0504,-4.0569,-4.0382,-3.9725,-3.9116,-3.8801,-3.9377,-3.8819,-3.829,-3.82,-3.7649,-3.6841,-3.568,-3.4621,-3.3467,4.0275,0.0,0.0,0.0,0.0,3.9188,3.9394,3.9616,3.9578,3.9337,3.8961,3.8901,0.0,0.0,0.0,0.0,0.0,0.0,3.8874,3.9557,4.0134,4.0604,4.1023,4.1016,4.1039,4.1065,4.0726,4.0529,4.0463,3.9771,3.838,3.6341,0.0,0.0,0.0,0.0,3.7415,3.7451,3.7361,3.7137,3.6825,3.5718,3.4543,3.3135,1.3206,0.0985,-0.2128,-1.9094,-2.8934,-2.9821,-3.1456,0.0,0.0,0.0,0.0,0.0,0.0,0.0,0.0,0.0,0.0,0.0,0.0,0.0,0.0,0.0,0.0,0.0,0.0,0.0,-3.6696,-3.6326,-3.6122,0.0,0.0,0.0,0.0,0.0,0.0,0.0,0.0,0.0,-3.0573,-3.1066,-3.1632,0.0,0.0,-3.4281,-3.5268,-3.6516,-3.7232,-3.6907,-3.7716,0.0,-3.776,-3.8526,-3.9325,-3.9732,-4.0378,-4.0831,-4.0869,-4.0496,-4.0184,-3.997,-3.9399,-3.8757,-3.7966,-3.7306,-3.669,-3.6105,-3.5231,-3.422,-3.3331,-3.2245,-3.1165,4.0714,4.0366,4.0072,3.9849,3.9739,3.9884,4.0171,4.048,4.0466,4.0237,3.9887,3.9887,3.9313,3.8237,3.8095,0.0,0.0,0.0,3.9553,4.0197,4.0451,4.0727,4.1058,4.1072,4.1072,4.1046,4.0638,4.0597,4.0897,4.0296,3.9203,3.7593,0.0,0.0,3.7381,3.7882,3.8132,3.8002,3.7434,3.7099,3.686,3.5397,3.4284,3.3153,1.7134,0.8231,0.778,-1.1382,-2.2598,-2.353,-2.851,-3.2053,0.0,0.0,0.0,0.0,0.0,0.0,0.0,0.0,0.0,0.0,0.0,-3.8496,-3.7931,0.0,0.0,0.0,-3.6751,-3.6522,-3.6071,-3.5397,0.0,0.0,0.0,0.0,0.0,0.0,0.0,-2.619,-2.3586,-2.0405,-1.6265,-2.0001,-2.506,-3.0192,-3.1763,-3.2704,-3.3432,0.0,-3.622,-3.5806,-3.6968,-3.7749,-3.7362,-3.8108,-3.9014,-3.969,-4.043,-4.0896,-4.0806,-4.0374,-4.0033,-3.9831,-3.926,-3.8308,-3.7022,-3.6087,-3.5341,-3.4843,-3.3958,-3.2982,-3.2048,-3.1099,-3.0018,4.0811,4.0801,4.081,4.0597,4.03,4.0645,4.0928,4.1081,4.1017,4.0933,4.081,4.081,4.0212,3.9207,3.885,0.0,3.9733,4.0099,4.0546,4.1113,4.1113,4.1069,4.1025,4.1074,4.1074,4.0984,4.0176,4.0159,4.0801,3.9891,3.9421,3.9471,3.9376,3.9088,3.8626,3.8737,3.851,3.8036,3.738,3.6816,3.6333,3.4816,3.3984,3.3887,2.3265,1.7164,1.6238,-0.1374,-1.1873,-1.3267,-2.2799,-2.9187,-3.1116,0.0,0.0,0.0,0.0,0.0,0.0,0.0,0.0,0.0,0.0,0.0,0.0,0.0,0.0,0.0,-3.4852,0.0,-3.4155,-3.2353,0.0,0.0,0.0,-3.0608,-2.9359,-2.8857,-2.4155,-1.2833,0.0,0.0,0.4246,-0.3342,-1.3773,-2.4763,-2.8353,-2.9954,-3.0013,-3.2744,-3.4477,-3.4335,-3.5906,-3.7102,-3.6895,-3.7592,-3.8552,-3.9589,-4.0371,-4.0699,-4.0572,-4.029,-3.9955,-3.9714,-3.8852,-3.7845,-3.6517,-3.5334,-3.4263,-3.4119,-3.3422,-3.2493,-3.1417,-3.0393,-2.9039,4.0967,4.0874,4.0918,4.0835,4.0665,4.0762,4.0871,4.1011,4.1019,4.0933,4.081,4.081,4.0618,4.0327,4.0219,4.0346,4.0668,4.0782,4.0916,4.1094,4.1113,4.107,4.1081,4.1096,4.1091,4.1056,4.0768,4.0662,4.0723,4.0389,4.0174,4.008,3.9721,3.9216,3.8628,3.8615,3.8541,3.8336,3.7596,3.6829,3.5924,3.4991,3.4333,3.3834,2.3608,1.7763,1.7074,0.5095,-0.1831,-0.2337,-1.218,-1.8554,-2.0076,-2.7633,0.0,0.0,0.0,0.0,0.0,0.0,0.0,0.0,0.0,-3.6893,-3.6356,0.0,-3.5892,0.0,-2.8367,-2.3443,-2.3666,-1.5517,0.0,0.0,-1.6385,-1.7231,-0.9155,-1.3426,-1.2773,-0.1789,0.064,0.2547,0.5273,0.3318,-0.2452,-1.3423,-2.3552,-3.025,-3.1174,-3.2927,-3.4074,-3.3893,-3.5404,-3.6711,-3.6527,-3.7381,-3.8493,-3.9629,-3.9942,-4.0235,-4.0727,-4.0557,-4.0285,-3.9955,-3.9557,-3.8646,-3.7198,-3.5559,-3.4074,-3.2969,-3.1531,-3.0317,-2.9968,-2.8241,-2.6511,4.0801,4.071,4.08,4.0779,4.0726,4.0749,4.082,4.0918,4.0885,4.083,4.074,4.0684,4.0667,4.0706,4.0734,4.083,4.1007,4.1031,4.1072,4.1105,4.11,4.1106,4.1103,4.1103,4.1065,4.0996,4.0888,4.0734,4.0602,4.0454,4.0325,4.0118,3.9739,3.9331,3.8865,3.8676,3.846,3.8219,3.7487,3.6666,3.581,3.5207,3.4593,3.3767,2.8089,2.4503,2.3733,1.4076,0.851,0.785,-0.1699,-0.9686,-1.5061,-2.0954,-2.7102,0.0,0.0,0.0,0.0,0.0,0.0,0.0,0.0,0.0,0.0,0.0,-2.555,-2.1616,-1.5676,-1.2227,-1.2539,-0.6108,-0.1937,-0.2088,-0.6182,-0.6305,0.0294,-0.3017,-0.1295,1.019,1.231,1.4696,1.9364,1.5948,1.0727,0.4083,-1.0948,-2.3543,-2.8799,-3.1129,-3.2154,-3.2478,-3.4193,-3.5771,-3.6329,-3.7238,-3.8163,-3.9077,-3.9435,-3.9738,-4.028,-4.0198,-3.9946,-3.9765,-3.9518,-3.888,-3.7441,-3.6381,-3.4976,-3.2822,-3.1339,-3.0115,-2.9213,-2.7867,-2.6655,4.053,4.0511,4.0559,4.0554,4.0559,4.0648,4.0692,4.0762,4.0723,4.0694,4.0694,4.0545,4.0559,4.0706,4.074,4.0857,4.0974,4.1047,4.1076,4.1081,4.1095,4.1103,4.111,4.1078,4.1023,4.0888,4.0742,4.0635,4.0489,4.0344,4.0157,3.9892,3.9647,3.9383,3.9137,3.8766,3.8382,3.8002,3.7226,3.6481,3.5854,3.5402,3.4736,3.3984,3.3578,3.2879,3.1717,2.3822,1.8924,1.7737,0.877,-0.0754,-0.9932,-1.3318,-1.9242,0.0,-3.0663,0.0,0.0,0.0,0.0,0.0,0.0,0.0,0.0,-2.0807,-1.174,-0.346,-0.1537,-0.0872,-0.1122,0.1379,0.3047,0.2917,0.2899,0.399,0.6663,0.6135,1.0113,2.233,2.385,2.7827,3.581,2.986,2.3752,1.9423,0.522,-0.9637,-2.098,-2.6596,-3.0029,-3.0812,-3.2536,-3.4405,-3.5924,-3.6811,-3.7499,-3.8302,-3.8798,-3.9218,-3.9656,-3.9611,-3.9472,-3.9403,-3.9246,-3.8697,-3.7528,-3.7229,-3.6085,-3.3598,-3.2058,-3.0562,-2.8878,-2.7354,-2.6809,4.0602,4.0485,4.0511,4.0469,4.0358,4.0427,4.0515,4.0623,4.0617,4.0649,4.0681,4.0564,4.0559,4.0674,4.0655,4.0726,4.083,4.0918,4.0933,4.0918,4.1052,4.1109,4.1104,4.0988,4.0926,4.0878,4.0655,4.0519,4.0489,4.0363,4.0176,3.9892,3.9647,3.9287,3.8876,0.0,0.0,0.0,3.69,3.6274,3.6122,3.5436,3.4818,3.425,3.4333,0.0,3.2772,3.0734,2.9325,2.8468,1.8885,0.0,0.0,0.0,0.0,0.0,0.0,0.0,0.0,0.0,0.0,0.0,-1.1041,-1.0595,-1.8585,-1.1296,-0.5314,-0.331,0.4584,0.9749,0.9845,1.8353,2.4144,2.4641,1.8316,1.7365,2.5954,2.1411,2.1442,3.195,3.3773,3.5076,3.7428,3.5918,3.1065,2.3257,1.768,1.0573,-0.0449,-1.7332,-2.8526,-2.9369,-3.1219,-3.299,-3.4131,-3.5188,-3.6191,-3.7288,-3.7966,-3.8517,-3.9129,-3.9502,-3.9586,-3.9424,-3.9387,-3.9232,-3.8691,-3.744,-3.6185,-3.5566,-3.2737,-3.0014,-2.8689,-2.4699,-2.1282,4.0615,4.0504,4.05,4.0473,0.0,4.0427,4.0441,4.0469,4.0485,4.0534,4.0549,4.0476,4.0473,4.0549,4.0549,4.0578,4.0672,4.0751,4.0801,4.0791,4.0869,4.0887,4.0907,4.0839,4.0754,4.0694,4.0564,4.0476,4.0396,4.0196,4.0038,3.9873,3.9502,3.9173,3.8923,3.836,3.8036,3.7899,3.7226,3.6643,3.6232,3.5924,3.527,3.4349,3.4497,0.0,0.0,0.0,0.0,0.0,0.0,0.0,0.0,0.5566,0.0,-0.7638,-1.229,-1.5003,-1.498,-1.0452,-0.7384,-0.6617,0.2008,0.4988,-0.061,0.3193,0.8,1.3177,1.87,2.2013,2.2664,2.7413,3.0738,3.0935,2.6621,2.6179,3.1246,2.9122,2.8822,3.4047,3.6007,3.6645,3.7145,3.7345,3.5259,2.9683,2.4175,1.893,1.1549,-0.6485,-2.1685,-2.7906,-3.0411,-3.1818,-3.2568,-3.308,-3.4149,-3.5476,-3.6151,-3.688,-3.8145,-3.8533,-3.8689,-3.872,-3.881,-3.885,-3.878,-3.7364,-3.5763,-3.4647,-3.2177,-2.961,-2.7976,-2.3954,-2.0571,4.0593,4.0476,4.0476,4.046,4.046,4.046,4.0408,4.0323,0.0,0.0,0.0,4.0398,4.0398,4.0415,4.0446,4.0468,4.0487,4.0617,4.0655,4.0655,4.0674,4.0713,4.0713,4.0668,4.0602,4.0504,4.0476,4.0394,4.0291,4.0038,3.9895,3.9851,3.9427,3.9129,3.8952,3.8114,3.7739,3.7775,3.7449,3.6917,3.613,3.6105,3.5599,3.4399,3.4497,3.4184,3.3298,3.3208,3.2765,3.1951,3.1437,2.7349,1.9238,1.6069,1.1224,0.4046,0.1262,0.0189,0.0702,0.23,0.403,0.5702,1.3373,1.7296,1.5623,1.6928,2.1572,3.0303,3.1001,3.1263,3.2151,3.1638,3.1399,3.1554,3.1017,3.1134,3.253,3.2763,3.3049,3.4581,3.531,3.5789,3.6185,3.6664,3.6993,3.567,2.9404,2.2296,1.8034,0.3124,-1.2801,-2.2825,-2.5568,-2.7882,-3.0651,-3.141,-3.1975,-3.3518,-3.4159,-3.4975,-3.6422,-3.6917,-3.7106,-3.738,-3.7433,-3.7257,-3.749,-3.6267,-3.487,-3.327,-3.1306,-2.9153,-2.6824,-2.3796,-2.1426,4.0444,4.0328,4.0328,4.0328,4.0347,4.0328,4.0379,4.0457,4.043,4.0398,4.0398,4.0398,4.0398,4.0398,4.0341,4.0321,4.0341,4.0473,4.0534,4.053,4.0642,4.0713,4.0694,4.0593,4.0519,4.0489,4.0379,4.0329,4.0291,4.0017,3.9895,3.9851,3.9599,3.9136,3.8584,3.7702,3.7301,3.7264,3.6522,3.602,3.5786,3.5345,3.4961,3.4691,3.4899,3.4739,3.4134,3.3899,3.3471,3.2819,3.2064,3.0718,2.8763,2.0586,1.4745,1.2274,0.4718,-0.0062,-0.0184,0.7058,1.5456,2.3593,2.6174,2.3944,1.6653,2.343,2.8907,3.0458,3.0587,3.0577,3.0701,3.0705,3.1029,3.1726,3.174,3.2274,3.3499,3.3671,3.3969,3.4836,3.4835,3.5314,3.6355,3.6381,3.6257,3.6168,3.4014,3.0441,2.1025,0.9296,-0.2107,-1.1461,-1.5032,-1.9452,-2.5993,-3.0205,-3.0889,-3.1317,-3.2728,-3.381,-3.4684,-3.4829,-3.4955,-3.5368,-3.4582,-3.387,-3.3834,-3.3444,-3.3053,-3.2502,-3.0862,-2.8499,-2.5527,-2.2956,-2.1286,4.0454,4.0363,4.0396,4.0344,4.0329,4.0329,4.0346,4.0398,4.0364,4.0379,4.0444,4.0381,4.0346,4.0346,4.0309,4.0344,4.0408,4.0396,4.0476,4.0588,4.0588,4.0629,4.0681,4.0564,4.0508,4.0441,4.0326,4.0291,4.0234,4.0017,3.9892,3.9807,3.9133,3.8469,3.791,3.723,3.6843,3.6719,3.6374,3.602,3.5698,3.5283,3.4897,3.4594,3.4804,3.4659,3.4201,3.4151,3.3604,3.25,3.1828,3.1056,2.9866,2.5356,2.2424,2.1608,1.7765,1.5359,1.5059,1.9333,2.3826,2.8307,2.9053,2.7571,2.3526,2.7319,3.0248,3.0754,3.1051,3.1454,3.1925,3.1645,3.1715,3.237,3.206,3.2173,3.2864,3.3095,3.3223,3.3599,3.3809,3.4233,3.4989,3.558,3.5922,3.612,3.6295,3.3956,2.8842,2.3878,1.471,-0.0178,-0.8504,-1.3915,-1.9124,-2.5103,-2.8478,-2.9772,-3.0643,-3.1658,-3.2478,-3.272,-3.2894,-3.3243,-3.2692,-3.2514,-3.249,-3.1689,-3.12,-3.0839,-2.9357,-2.7181,-2.5564,-2.4547,-2.2722,4.0485,4.0396,4.0444,4.0394,4.0329,4.031,4.0328,4.0328,4.0309,4.036,4.0441,4.0345,4.0329,4.031,4.0328,4.0398,4.0427,4.0379,4.046,4.0607,4.0534,4.0549,4.0588,4.0485,4.0408,4.0321,4.0291,4.0234,4.0157,3.9975,3.9785,3.9604,3.8765,3.8041,3.7451,3.696,3.658,3.6301,3.6284,3.6037,3.5582,3.5237,3.4833,3.4497,3.4611,3.448,3.4006,3.4006,3.3353,3.1978,3.142,3.0556,2.9307,2.8764,2.8268,2.7811,2.7983,2.8137,2.812,2.8492,2.8724,2.8764,2.92,2.9451,2.9482,2.9857,3.0383,3.1098,3.1417,3.2061,3.2778,3.2622,3.2436,3.2706,3.2241,3.2018,3.2249,3.2371,3.2406,3.2489,3.2968,3.3476,3.3844,3.4783,3.5579,3.5797,3.602,3.5921,3.5559,3.5295,2.7304,1.4587,0.1653,-0.5179,-0.8145,-1.6735,-2.2692,-2.5148,-2.755,-2.9277,-3.0498,-3.0785,-3.0854,-3.1097,-3.0885,-3.0618,-3.091,-2.9956,-2.8976,-2.8729,-2.7642,-2.6598,-2.6452,-2.6257,-2.4953,4.0319,4.0325,4.0306,4.0325,4.0326,4.0304,4.0302,4.0302,4.0319,4.0319,4.0319,4.0309,4.0291,4.0329,4.043,4.0377,4.0272,4.0473,4.0469,4.0375,4.0441,4.0441,4.0375,4.0342,4.0252,4.0157,4.0118,4.0137,4.0077,3.9848,3.9599,3.9331,3.8869,3.8277,3.7612,3.7041,3.6574,3.6208,3.5958,3.5677,3.5253,3.4818,3.448,3.4333,3.4448,3.4234,3.3724,3.3323,3.2644,3.1515,3.1039,3.0381,2.9559,2.9068,2.8417,2.7535,2.7478,2.7411,2.7298,2.7652,2.7981,2.8006,2.8983,2.9601,2.9613,3.0707,3.1291,3.1139,3.1083,3.156,3.2266,3.2319,3.2319,3.2424,3.2336,3.2283,3.2369,3.2557,3.2758,3.2749,3.314,3.3629,3.4235,3.4618,3.4916,3.5367,3.4949,3.4735,3.4973,3.4841,3.4314,2.9558,2.2234,1.1985,0.3465,-0.6608,-1.3539,-1.4925,-2.2145,-2.716,-2.8851,-2.8816,-2.8634,-2.9139,-2.7,-2.6091,-2.7446,-2.6735,-2.6375,-2.7102,-2.6841,-2.6521,-2.6521,-2.6521,-2.5592,4.023,4.0252,4.0286,4.027,4.0196,4.0251,4.027,4.0196,4.0177,4.0177,4.0177,4.0177,4.0176,4.0176,4.0234,4.0252,4.0251,4.0288,4.0336,4.0415,4.0383,4.0403,4.0415,4.0336,4.0269,4.0177,4.0118,4.0077,3.9996,3.9762,3.9464,3.9163,3.8589,3.7957,3.7287,3.6803,3.6426,3.6079,3.5739,3.547,3.527,3.4866,3.4594,3.4546,3.4448,3.4333,3.4086,3.3645,3.2867,3.1901,3.1023,2.9998,2.885,2.8353,2.7868,2.7287,2.7483,2.769,2.7825,2.8039,2.8284,2.8527,2.9191,2.9648,2.9756,3.062,3.1185,3.1312,3.1571,3.1968,3.2265,3.2299,3.2385,3.2535,3.2553,3.2636,3.2866,3.2993,3.3117,3.3117,3.3274,3.3484,3.3852,3.4096,3.4503,3.5012,3.4722,3.4518,3.4759,3.4762,3.4705,3.4053,3.0464,2.4058,1.361,-0.1896,-0.9182,-1.2626,-2.0139,-2.7235,-2.6442,-2.71,-2.7298,-2.7512,-2.2822,-2.1877,-2.6118,-2.0986,-1.8359,-2.2634,-2.644,-2.6521,-2.6521,-2.6521,-2.6521,4.0139,4.0177,4.0232,4.0232,4.0196,4.0196,4.0158,4.0099,4.0057,4.0036,4.0036,4.0036,4.0036,4.0057,4.0118,4.0196,4.0213,4.0196,4.025,4.0392,4.0315,4.0312,4.0358,4.0298,4.0212,4.012,4.0059,4.0015,3.9973,3.98,3.9464,3.9044,3.8548,3.7925,3.7226,3.6799,3.6433,3.6114,3.5722,3.5543,3.5515,3.5102,3.4835,3.4643,3.4399,3.4219,3.4137,3.3592,3.2777,3.1843,3.0669,2.9533,2.8446,2.786,2.7473,2.7342,2.7625,2.8024,2.8541,2.8573,2.8795,2.9241,2.968,3.0009,3.0243,3.0892,3.1502,3.179,3.2231,3.2519,3.2519,3.2586,3.2716,3.2876,3.2876,3.3055,3.3304,3.3364,3.337,3.3422,3.3541,3.3512,3.3411,3.3535,3.387,3.4288,3.4357,3.4324,3.4367,3.4363,3.4259,3.414,3.3921,3.0909,2.305,0.9889,-0.1395,-0.504,-1.0021,-1.7317,-2.0223,-2.1618,-2.486,-2.357,-1.755,-1.7491,-2.4505,-2.0358,-1.6548,-2.2701,-2.4481,-2.2422,-2.0564,-2.1647,-1.9909,3.9998,4.0081,4.0101,4.025,4.045,4.01,3.9998,4.01,3.9977,3.9911,3.9911,3.9911,3.9911,3.9933,4.0158,4.0195,4.008,4.0229,4.0264,4.0139,4.023,4.023,4.012,4.0101,4.004,3.9935,3.9914,3.9911,3.9911,3.9867,3.958,3.9036,3.8924,3.8444,3.756,3.7188,3.6838,3.635,3.6088,3.5932,3.5888,3.5577,3.5055,3.4546,3.425,3.3908,3.3355,3.273,3.1919,3.0854,2.9842,2.8982,2.8511,2.7825,2.7539,2.7725,2.779,2.8204,2.8904,2.9044,2.9273,2.9733,3.0377,3.0886,3.0858,3.179,3.2401,3.2521,3.2766,3.2993,3.3006,3.3129,3.3238,3.3117,3.3298,3.3404,3.3481,3.349,3.3586,3.3707,3.3768,3.3652,3.327,3.2996,3.2995,3.3104,3.3052,3.3154,3.3485,3.3339,3.3155,3.3162,3.3098,3.2758,3.1946,2.0176,1.535,1.1636,0.2968,-0.2039,-0.6852,-1.1815,-1.7032,-2.1275,-2.0404,-2.1442,-2.5,-2.594,-2.4749,-2.4068,-1.7478,-1.4583,-1.4909,-1.1838,-1.0328,3.9651,3.9724,3.9899,4.0042,4.012,4.0043,4.0081,4.01,4.0041,3.9958,3.9911,3.9889,3.9889,3.9911,4.0081,4.0081,3.9954,4.0021,4.0021,3.9977,4.002,4.002,3.9977,3.9977,3.9956,3.9892,3.9889,3.9889,3.9867,3.9735,3.9414,3.9036,3.8828,3.831,3.7596,3.7376,3.6995,3.6409,3.6156,3.5941,3.5756,3.5487,3.5071,3.4546,3.4399,3.4235,3.3909,3.2833,3.2082,3.1851,3.029,2.9319,2.8967,2.822,2.7974,2.8334,2.8383,2.8669,2.9243,2.9364,2.956,3.0044,3.051,3.0977,3.1359,3.2074,3.2606,3.2606,3.2834,3.3011,3.2993,3.3117,3.3268,3.3345,3.3375,3.3462,3.3559,3.352,3.3444,3.3502,3.3476,3.3325,3.3225,3.2957,3.2776,3.2772,3.2474,3.2486,3.286,3.2785,3.2631,3.2907,3.2971,3.2971,3.3128,2.4684,1.776,1.5904,1.0981,0.5026,-0.0248,-0.6442,-1.192,-1.368,-1.615,-1.9483,-2.0896,-2.5937,-2.6,-2.4484,-1.7431,-1.0646,-0.9928,-0.5697,-0.3949,3.9551,3.9585,3.9813,3.9943,4.0043,4.0082,4.0176,4.0195,4.0177,4.01,4.0058,4.0038,4.0039,4.004,4.0139,4.012,4.0039,4.002,4.0,3.9958,4.0,3.9979,3.9911,3.9873,3.987,3.9826,3.9781,3.9781,3.9739,3.9599,3.9357,3.9045,3.8759,3.8346,3.7809,3.7487,3.7055,3.6597,3.6207,3.5924,3.5677,3.5458,3.5152,3.4756,3.4594,3.4349,3.4134,3.2999,3.2378,3.2174,3.0843,2.9739,2.9291,2.8748,2.859,2.8904,2.8935,2.9182,2.9649,2.9738,2.993,3.0401,3.0764,3.1145,3.1466,3.2109,3.2472,3.2523,3.2755,3.2948,3.293,3.2961,3.3104,3.3286,3.3316,3.3375,3.3494,3.3431,3.339,3.346,3.3358,3.3256,3.3147,3.288,3.2669,3.2568,3.2109,3.21,3.2273,3.2273,3.2066,3.2317,3.2311,3.2391,3.253,2.7433,2.4399,2.2631,2.0876,1.4297,0.7555,0.0779,-0.4183,-0.5986,-0.9308,-1.3026,-1.7792,-2.3335,-2.5165,-2.4996,-1.7282,-0.8835,-0.4782,0.1114,0.2555,3.9561,3.9664,3.9832,4.0021,4.0212,4.0177,4.025,4.0356,4.0323,4.027,4.0233,4.0252,4.0251,4.0266,4.0269,4.0307,4.027,4.0285,4.0212,4.012,4.0194,4.0139,3.9935,3.9897,3.9832,3.9693,3.9575,3.9508,3.9508,3.9483,3.9357,3.9082,3.8836,3.8504,3.8274,3.7613,3.7226,3.6939,3.6316,3.589,3.5864,3.5577,3.5308,3.5058,3.4691,3.43,3.3745,3.3124,3.2531,3.2136,3.1251,3.0282,2.9492,2.9198,2.9289,2.9425,2.947,2.9694,3.0087,3.0205,3.0359,3.0814,3.1252,3.1355,3.1562,3.2073,3.2438,3.2472,3.2705,3.2916,3.2948,3.2979,3.2961,3.293,3.3147,3.3268,3.3273,3.3216,3.3343,3.3561,3.3448,3.3286,3.3063,3.2781,3.2555,3.2335,3.2127,3.1984,3.1829,3.1713,3.1445,3.1247,3.1415,3.1704,3.1822,3.1705,3.1679,3.1242,2.9643,2.5719,1.9129,1.2468,0.7002,0.3929,-0.4556,-0.8676,-1.4444,-1.9874,-2.4322,-2.3116,-1.4382,-0.7853,-0.3221,0.1681,0.8609,3.9331,3.9287,3.9433,3.9683,4.0003,4.0002,4.0139,4.037,4.0372,4.0323,4.0252,4.0233,4.0214,4.0269,4.0321,4.0375,4.0372,4.045,4.0386,4.0195,4.0214,4.0196,4.0099,3.9977,3.9766,3.958,3.9508,3.9483,3.9483,3.9483,3.9376,3.9082,3.8836,3.8554,3.8307,3.781,3.7339,3.6781,3.644,3.6011,3.556,3.5412,3.5198,3.4835,3.4691,3.4349,3.3713,3.3006,3.24,3.1901,3.1283,3.0526,2.9704,2.9273,2.938,2.9677,2.9722,2.9897,3.0316,3.0443,3.0593,3.0942,3.1179,3.1507,3.193,3.2214,3.2472,3.2672,3.2961,3.3117,3.3129,3.3256,3.3256,3.3099,3.3298,3.3444,3.3512,3.3458,3.3382,3.3311,3.3172,3.3042,3.2975,3.2784,3.2654,3.2603,3.2214,3.1841,3.1768,3.1411,3.1134,3.0992,3.1089,3.1128,3.1348,3.1321,3.1257,3.1451,3.1385,3.1209,2.6198,2.2032,1.7076,1.0354,0.1945,-0.5522,-1.1203,-1.7124,-2.2324,-2.2261,-1.6026,-1.0272,-0.4865,0.0644,0.6187,3.9165,3.9129,3.9298,3.9489,3.9791,3.992,4.0139,4.0319,4.0441,4.0425,4.0358,4.036,4.0358,4.0356,4.0441,4.0492,4.0473,4.0564,4.0485,4.0321,4.0339,4.0269,4.008,3.9807,3.9575,3.9383,3.9331,3.935,3.935,3.935,3.9253,3.9082,3.8855,3.8585,3.8354,3.8002,3.745,3.6764,3.6416,3.6028,3.5487,3.5228,3.5041,3.4835,3.4707,3.4448,3.4018,3.3363,3.254,3.171,3.1056,3.0384,2.9874,2.9633,2.9677,2.9941,3.0182,3.0393,3.0699,3.0885,3.1044,3.1278,3.1452,3.1731,3.2214,3.2386,3.2672,3.2943,3.3117,3.3208,3.3298,3.3375,3.3404,3.3316,3.3393,3.3502,3.3578,3.3444,3.3274,3.31,3.2888,3.2787,3.277,3.2687,3.257,3.257,3.2214,3.1714,3.1677,3.1312,3.1145,3.0922,3.0749,3.0831,3.1009,3.0807,3.0426,3.0619,3.0761,3.0729,2.856,2.5963,2.2049,1.4226,0.6021,-0.2886,-0.9157,-1.7551,-2.3256,-1.9897,-1.7997,-1.415,-0.9481,-0.4788,0.08,3.9101,3.9129,3.9357,3.9458,3.958,3.9981,4.0177,4.0251,4.0444,4.0523,4.0558,4.0527,4.0539,4.0564,4.0554,4.0554,4.0588,4.0573,4.0539,4.0504,4.05,4.0317,3.9937,3.958,3.9324,3.9183,3.911,3.911,3.9137,3.9129,3.9101,3.9073,3.8844,3.8652,3.835,3.8119,3.7559,3.6878,3.6333,3.5881,3.5526,3.5118,3.4947,3.5041,3.4739,3.4594,3.448,3.3705,3.2758,3.1678,3.0781,3.0315,3.0222,3.0231,3.0316,3.0485,3.0781,3.0942,3.1162,3.1338,3.1565,3.1657,3.1949,3.2283,3.2318,3.2606,3.2898,3.3099,3.3178,3.3286,3.3452,3.3509,3.3433,3.3393,3.3404,3.3444,3.339,3.316,3.3042,3.2979,3.2654,3.2386,3.2573,3.242,3.2249,3.2109,3.2038,3.1674,3.1543,3.141,3.1183,3.1065,3.11,3.1161,3.1484,3.1122,3.0843,3.1029,3.0994,3.0758,3.0502,2.8426,2.6978,1.9092,0.8776,0.0214,-0.7555,-1.5507,-2.18,-2.2431,-2.031,-1.7867,-1.4543,-1.0133,-0.2859,3.9036,3.9036,3.9156,3.9324,3.9508,3.9794,4.0022,4.0196,4.0269,4.0408,4.0473,4.0356,4.0425,4.0519,4.0539,4.0523,4.0539,4.0523,4.0523,4.0504,4.05,4.0266,3.9878,3.958,3.9343,3.9129,3.9101,3.9101,3.9101,3.9045,3.9064,3.9101,3.8785,3.8541,3.835,3.7949,3.7374,3.6678,3.6122,3.5661,3.535,3.4977,3.4883,3.5041,3.4994,3.4804,3.448,3.3333,3.2408,3.1694,3.1381,3.0945,3.0516,3.0708,3.0855,3.0895,3.1055,3.1134,3.1213,3.1393,3.1582,3.1765,3.1985,3.2144,3.2318,3.2672,3.2898,3.3055,3.3298,3.3559,3.3643,3.3716,3.3625,3.3397,3.3415,3.3481,3.3352,3.3196,3.3015,3.282,3.251,3.2353,3.2318,3.2249,3.2161,3.209,3.1852,3.1662,3.1765,3.1724,3.1625,3.2009,3.211,3.1992,3.1903,3.158,3.148,3.1681,3.1567,3.1135,3.0652,2.9524,2.8822,2.6031,1.099,0.0588,-0.5282,-1.1895,-1.6919,-2.3965,-2.3447,-2.1367,-1.9679,-1.5915,-0.6224,3.895,3.8968,3.9017,3.9156,3.935,3.966,3.9882,4.0062,4.025,4.0372,4.0457,4.0372,4.0408,4.0489,4.0489,4.0489,4.0489,4.0489,4.0489,4.0438,4.0248,4.0004,3.9754,3.9513,3.9219,3.9092,3.9045,3.9045,3.9007,3.8979,3.8979,3.8979,3.8785,3.8541,3.815,3.7913,3.7301,3.6557,3.595,3.5481,3.5228,3.4851,3.4739,3.4899,3.4947,3.4756,3.4053,3.348,3.2766,3.1867,3.1338,3.0924,3.0577,3.0684,3.0855,3.0895,3.1157,3.1406,3.1483,3.1657,3.1841,3.1984,3.2109,3.2162,3.2352,3.2672,3.2898,3.3068,3.3444,3.3643,3.378,3.3834,3.3662,3.3379,3.3379,3.3386,3.317,3.2898,3.2758,3.2596,3.2354,3.2126,3.2197,3.209,3.2138,3.2219,3.2072,3.2167,3.2362,3.2217,3.2226,3.2586,3.243,3.203,3.1801,3.1517,3.1532,3.1807,3.2156,3.169,3.1237,3.0226,2.7409,2.3583,1.1586,0.1383,-0.527,-1.2118,-1.9372,-2.4317,-2.4955,-2.4681,-2.2702,-1.8929,-0.9368,3.8892,3.8892,3.8968,3.8997,3.9073,3.9548,3.9794,3.9861,4.023,4.0457,4.0492,4.0457,4.0441,4.0489,4.0508,4.0489,4.0489,4.0489,4.0454,4.0302,4.0023,3.975,3.966,3.9287,3.9073,3.9026,3.8997,3.8968,3.8939,3.891,3.8892,3.8892,3.8881,3.8554,3.8132,3.7877,3.7303,3.6516,3.5698,3.5311,3.5055,3.4675,3.4497,3.4739,3.4851,3.448,3.4018,3.3836,3.3595,3.2102,3.1196,3.0892,3.0712,3.0506,3.0576,3.0797,3.1295,3.1654,3.1783,3.202,3.2214,3.2197,3.2249,3.23,3.2403,3.2702,3.3037,3.3172,3.3437,3.3707,3.3895,3.3868,3.3662,3.339,3.3302,3.3111,3.2902,3.259,3.2386,3.2489,3.209,3.2086,3.2067,3.2098,3.217,3.2861,3.2707,3.2805,3.2992,3.2984,3.3001,3.3094,3.261,3.1829,3.1601,3.1374,3.1576,3.1795,3.2352,3.2353,3.2208,3.0228,2.553,1.8931,0.9798,0.0481,-0.8318,-1.5292,-2.2258,-2.4529,-2.5029,-2.5239,-2.4545,-1.9561,-1.1801,3.8822,3.8822,3.8892,3.8921,3.8989,3.9483,3.9721,3.9766,4.0061,4.0323,4.043,4.0306,4.0321,4.0489,4.0495,4.0495,4.0489,4.0473,4.0389,4.0139,3.9857,3.9585,3.9389,3.9073,3.895,3.8921,3.8921,3.8892,3.8892,3.8851,3.8851,3.8881,3.8792,3.859,3.8281,3.772,3.734,3.6803,3.5593,3.5098,3.5131,3.4578,3.4349,3.4691,3.4835,3.4643,3.4284,3.4333,3.4119,3.343,3.264,3.1886,3.1397,3.1421,3.1472,3.1404,3.1521,3.1746,3.1837,3.1965,3.2073,3.1984,3.2214,3.2453,3.2331,3.284,3.3154,3.3321,3.3569,3.3834,3.3998,3.3895,3.3781,3.3585,3.3268,3.3169,3.3344,3.3011,3.244,3.2247,3.2537,3.2792,3.2582,3.3046,3.3259,3.3471,3.3536,3.3508,3.3587,3.3734,3.3703,3.3713,3.3014,3.2353,3.2261,3.2026,3.1973,3.2107,3.258,3.298,3.2787,3.195,2.7844,1.971,0.9747,0.0752,-0.7031,-1.7817,-2.4697,-2.4944,-2.5153,-2.5428,-2.433,-1.9618,-1.7165,3.8652,3.8664,3.895,3.896,3.895,3.9452,3.9717,3.9743,3.9941,4.0196,4.0379,4.0289,4.0342,4.0444,4.0466,4.0447,4.0463,4.0444,4.0251,3.996,3.9679,3.9414,3.9101,3.8921,3.8822,3.8833,3.8851,3.8851,3.8792,3.8762,3.878,3.8792,3.8719,3.8364,3.798,3.7524,3.7058,3.6498,3.5582,3.5131,3.5224,3.4913,3.4643,3.4851,3.4835,3.4643,3.425,3.4349,3.4118,3.3735,3.343,3.3016,3.2331,3.2107,3.1989,3.1868,3.1658,3.1706,3.1709,3.1765,3.1839,3.1731,3.1985,3.2107,3.2239,3.2679,3.3001,3.325,3.3484,3.378,3.3931,3.4274,3.4154,3.4014,3.3993,3.4133,3.411,3.3371,3.2931,3.303,3.3554,3.3711,3.3842,3.4029,3.43,3.4557,3.4309,3.4296,3.4471,3.4564,3.4355,3.4136,3.3473,3.3027,3.2977,3.2803,3.254,3.2676,3.2961,3.3288,3.3361,3.2376,3.0966,2.1998,1.3138,0.5059,-0.3369,-1.4801,-2.4137,-2.5027,-2.5249,-2.5707,-2.5215,-2.2923,-2.1918,3.8491,3.8541,3.8913,3.896,3.8892,3.9427,3.967,3.9717,3.9941,4.0215,4.0362,4.0398,4.0379,4.0415,4.0379,4.0398,4.0415,4.0362,4.0139,3.9702,3.959,3.9234,3.8873,3.8732,3.867,3.8732,3.8762,3.8701,3.8658,3.8676,3.8627,3.8658,3.864,3.8267,3.7578,3.7268,3.6943,3.6266,3.5571,3.527,3.527,3.5118,3.4947,3.4947,3.4787,3.4546,3.4349,3.4349,3.4168,3.3697,3.3917,3.3893,3.3573,3.2912,3.2328,3.2352,3.2185,3.2051,3.1939,3.1857,3.1806,3.1623,3.177,3.1882,3.2181,3.2599,3.2983,3.334,3.3676,3.4064,3.3998,3.4668,3.4889,3.4787,3.5205,3.5372,3.5101,3.3975,3.3972,3.4409,3.4656,3.4795,3.4806,3.4934,3.5287,3.5488,3.5184,3.5044,3.5166,3.5131,3.4833,3.4219,3.3495,3.2664,3.2558,3.2669,3.2545,3.2742,3.3027,3.3293,3.3555,3.3045,3.1193,2.5828,1.7734,0.9131,-0.0493,-1.1571,-1.8966,-2.2635,-2.4949,-2.5132,-2.555,-2.6073,-2.3979,3.8446,3.851,3.8585,3.8634,3.8792,3.9298,3.9532,3.9628,4.0021,4.027,4.0326,4.0325,4.0362,4.0362,4.0344,4.0362,4.0362,4.0307,4.0041,3.9656,3.9513,3.9208,3.8707,3.8621,3.8559,3.8496,3.8528,3.851,3.8478,3.8465,3.8465,3.8446,3.8446,3.815,3.7667,3.7285,3.6865,3.6249,3.5509,3.5207,3.5224,3.4913,3.4594,3.4643,3.4643,3.4546,3.4497,3.4643,3.4739,3.4691,3.4947,3.4958,3.4722,3.4018,3.3527,3.3288,3.3131,3.2827,3.2508,3.2405,3.2072,3.1834,3.2125,3.2424,3.2659,3.3078,3.3509,3.3789,3.443,3.5055,3.5374,3.5721,3.5974,3.5864,3.5698,3.5816,3.6213,3.5776,3.5016,3.5332,3.5616,3.5881,3.5858,3.5829,3.5933,3.5943,3.5599,3.5314,3.5182,3.5102,3.4849,3.4169,3.3339,3.2501,3.1799,3.2046,3.215,3.2428,3.2648,3.2935,3.3187,3.3503,3.0959,2.6938,2.003,1.1004,0.1117,-0.894,-1.6729,-2.266,-2.3821,-2.4196,-2.2233,-2.0259,-1.6999,3.8368,3.8401,3.8566,3.8615,3.8634,3.9136,3.9396,3.9445,3.9897,4.0177,4.0291,4.0309,4.0309,4.0327,4.0328,4.0346,4.0327,4.0272,4.002,3.9721,3.958,3.9305,3.8737,3.8713,3.8559,3.8433,3.8387,3.8401,3.8382,3.8382,3.8382,3.8382,3.8382,3.8083,3.7524,3.7135,3.6666,3.6105,3.5526,3.527,3.547,3.4961,3.4818,3.4804,3.4691,3.4659,3.4546,3.4707,3.4804,3.4851,3.5041,3.5135,3.5081,3.4877,3.4432,3.4023,3.3685,3.3413,3.3155,3.311,3.2952,3.275,3.3117,3.3349,3.3528,3.3947,3.4326,3.4576,3.5078,3.563,3.5367,3.6309,3.6673,3.6589,3.6504,3.6854,3.7162,3.6952,3.6595,3.6203,3.6469,3.6735,3.6897,3.6814,3.6654,3.6392,3.6028,3.5605,3.5211,3.5024,3.4818,3.403,3.3212,3.2425,3.1787,3.1853,3.1996,3.215,3.2428,3.2718,3.2843,3.3187,3.2421,2.9892,2.1823,1.2822,0.3691,-0.6,-1.43,-2.1392,-2.0687,-1.9429,-1.6607,-1.3838,-1.0821,3.8274,3.8322,3.8585,3.8566,3.8523,3.9036,3.932,3.9396,3.9766,4.0077,4.0234,4.0253,4.0253,4.0253,4.0273,4.0273,4.0253,4.0196,4.0017,3.9804,3.9693,3.9427,3.9073,3.8862,3.8683,3.8433,3.8307,3.8322,3.8354,3.8336,3.8368,3.8336,3.8336,3.7982,3.7285,3.7058,3.644,3.5968,3.5622,3.5577,3.5532,3.5333,3.5148,3.5041,3.4739,3.4415,3.4184,3.4399,3.4497,3.4594,3.4787,3.5024,3.5182,3.5274,3.511,3.4682,3.4021,3.3863,3.3919,3.3752,3.3658,3.3636,3.3999,3.415,3.4364,3.4677,3.5216,3.5413,3.6017,3.6334,3.6149,3.6858,3.7294,3.7301,3.7569,3.7881,3.7773,3.7649,3.756,3.7399,3.7431,3.7395,3.7434,3.697,3.6661,3.6392,3.6071,3.5362,3.4977,3.493,3.4578,3.383,3.3029,3.2361,3.1925,3.1868,3.194,3.2053,3.2373,3.2703,3.2773,3.2827,3.1951,3.0913,2.3501,1.4499,0.5653,-0.2745,-1.113,-1.6227,-1.6087,-1.5369,-1.3871,-0.9763,-0.5573,3.8241,3.8307,3.8372,3.8387,3.846,3.9017,3.9324,3.9357,3.9848,4.0077,4.0137,4.0137,4.0137,4.0137,4.0137,4.0137,4.0137,4.0098,3.9996,3.9804,3.9717,3.9526,3.9165,3.8836,3.8737,3.8541,3.834,3.8225,3.8241,3.8223,3.8241,3.8241,3.8207,3.7933,3.7395,3.7038,3.6661,3.6199,3.5844,3.5549,3.5367,3.4977,3.4658,3.4382,3.4,3.3745,3.3848,3.4101,3.4201,3.4201,3.4464,3.4866,3.5237,3.5391,3.5715,3.5761,3.5581,3.5152,3.5128,3.4635,3.4295,3.4384,3.4567,3.4598,3.5066,3.5349,3.5738,3.6006,3.6789,3.7166,3.7122,3.7917,3.8245,3.8053,3.7825,3.7899,3.7864,3.7775,3.7739,3.7667,3.7466,3.7594,3.7667,3.7111,3.6597,3.635,3.6011,3.5316,3.4739,3.4659,3.4002,3.3083,3.2782,3.2191,3.1648,3.1685,3.1811,3.1883,3.2206,3.2578,3.2578,3.2609,3.2788,3.0226,2.3633,1.7213,0.8953,0.0585,-0.7914,-1.0991,-1.0845,-1.1611,-1.2327,-0.6673,0.2657,3.8207,3.8259,3.8241,3.8274,3.8368,3.8933,3.9189,3.932,3.9848,4.0096,4.0096,4.0096,4.0096,4.0096,4.0096,4.0117,4.0096,4.0076,4.0015,3.9889,3.9804,3.9665,3.9401,3.92,3.9017,3.8597,3.8415,3.8238,3.8189,3.814,3.8174,3.8088,3.814,3.7951,3.7523,3.7038,3.662,3.6266,3.6028,3.5958,3.5766,3.5419,3.5111,3.5035,3.4382,3.4118,3.4201,3.4513,3.4707,3.4739,3.4994,3.5195,3.5498,3.5661,3.595,3.6392,3.6079,3.5805,3.5675,3.5186,3.5006,3.5112,3.5376,3.6007,3.6399,3.6453,3.647,3.6695,3.7455,3.7736,3.7595,3.8029,3.8117,3.8018,3.7881,3.781,3.7739,3.7703,3.7613,3.754,3.7447,3.7521,3.7521,3.7185,3.6638,3.635,3.6011,3.5436,3.4723,3.4283,3.3351,3.216,3.208,3.1943,3.1515,3.1219,3.1567,3.1682,3.1883,3.2206,3.2302,3.2413,3.2609,3.2656,2.9327,2.1873,1.29,0.5435,-0.1752,-0.4055,-0.5613,-0.3485,-0.0279,1.1137,1.95,3.8303,3.8192,3.8192,3.8192,3.8259,3.8789,3.8962,3.9063,3.9651,3.9933,3.9994,4.0015,4.0036,4.0036,4.0036,4.0036,4.0036,4.0015,3.9994,3.9954,3.9911,3.9758,3.9575,3.9433,3.9146,3.8628,3.8446,3.8219,3.8036,3.802,3.8054,3.8018,3.8122,3.7985,3.7559,3.7152,3.6781,3.6392,3.6409,3.6433,3.6333,3.5968,3.5752,3.5504,3.5111,3.4625,3.4723,3.4899,3.4994,3.5041,3.5228,3.5396,3.5633,3.5837,3.6182,3.6533,3.6409,3.6207,3.6096,3.5795,3.565,3.5941,3.6308,3.6976,3.7434,3.7485,3.7301,3.7268,3.7736,3.7789,3.7685,3.7929,3.7982,3.7915,3.7721,3.7649,3.7577,3.7503,3.7429,3.741,3.7297,3.7126,3.7126,3.7031,3.6736,3.6392,3.595,3.5436,3.4706,3.388,3.2904,3.1796,3.182,3.1752,3.125,3.1043,3.1263,3.1552,3.1811,3.1868,3.1951,3.2135,3.2318,3.2336,3.1958,2.7779,1.9622,1.2174,0.4985,0.1226,-0.0061,0.8137,1.5304,2.5807,3.121,3.864,3.8192,3.8207,3.8225,3.8207,3.8491,3.8658,3.8759,3.9313,3.9599,3.967,3.9804,3.9933,3.9911,3.9933,3.9933,3.9911,3.993,3.9889,3.9892,3.987,3.9781,3.9623,3.9408,3.9165,3.8748,3.8572,3.8219,3.788,3.7951,3.7985,3.8002,3.8088,3.8054,3.781,3.7376,3.6978,3.6719,3.6719,3.6821,3.6666,3.6329,3.5976,3.5559,3.5061,3.4495,3.4169,3.4561,3.4835,3.4835,3.5165,3.5515,3.5854,3.6011,3.6367,3.6673,3.6713,3.6533,3.6367,3.6224,3.6457,3.6878,3.7185,3.7374,3.7631,3.7631,3.7577,3.7522,3.7827,3.7931,3.788,3.7984,3.7915,3.7721,3.7522,3.7466,3.7354,3.7241,3.7203,3.7259,3.7143,3.6913,3.6753,3.6655,3.6474,3.6122,3.5266,3.4738,3.4068,3.3309,3.2499,3.1715,3.1734,3.153,3.1058,3.1087,3.1522,3.1766,3.1951,3.1838,3.1709,3.1894,3.2023,3.0833,3.0145,2.8425,2.693,2.0464,1.3596,0.575,0.5876,1.5013,2.0916,2.761,3.1625,3.8886,3.8718,3.867,3.8491,3.8241,3.864,3.8828,3.8943,3.9483,3.9758,3.9758,3.9848,3.9889,3.9889,3.9889,3.9889,3.987,3.9804,3.9804,3.9758,3.9712,3.9623,3.9508,3.9433,3.9272,3.897,3.8755,3.8446,3.8018,3.8036,3.7898,3.788,3.7985,3.7898,3.7703,3.7468,3.7034,3.6838,3.6917,3.7111,3.7076,3.6636,3.6417,3.6649,3.5514,3.5261,3.5311,3.527,3.5287,3.5304,3.5487,3.5739,3.6002,3.6174,3.6444,3.6748,3.6731,3.6673,3.6409,3.6199,3.6122,3.6522,3.69,3.7299,3.754,3.7577,3.7577,3.7649,3.7685,3.7792,3.7757,3.7757,3.7685,3.7431,3.7319,3.7243,3.7129,3.6956,3.6776,3.6776,3.6696,3.6574,3.6433,3.6266,3.6097,3.5776,3.4864,3.4034,3.3487,3.2812,3.1981,3.1366,3.1367,3.1265,3.0807,3.1233,3.1792,3.1864,3.1992,3.1823,3.1652,3.1595,3.1429,3.0011,2.9648,2.9721,2.9145,2.7723,2.3334,1.7336,1.7911,2.3051,2.7596,3.0304,3.2172,3.9136,3.8952,3.898,3.877,3.8491,3.8741,3.8905,3.8971,3.9389,3.9762,3.9889,3.9889,3.9889,3.9867,3.9845,3.9781,3.9758,3.9689,3.9647,3.9623,3.9575,3.9483,3.9433,3.9357,3.9245,3.9073,3.895,3.8634,3.8201,3.8201,3.8034,3.7915,3.7881,3.7863,3.7667,3.7431,3.7129,3.6978,3.715,3.7449,3.7468,3.7173,3.6851,3.717,3.6222,3.5769,3.5776,3.5694,3.5594,3.5639,3.5773,3.5949,3.6122,3.6293,3.6419,3.6544,3.6609,3.6591,3.6402,3.6131,3.6054,3.6638,3.6878,3.7243,3.7449,3.7577,3.7577,3.7613,3.7613,3.7577,3.7577,3.7685,3.7721,3.7595,3.7266,3.7152,3.6773,3.6574,3.6364,3.6232,3.6147,3.5985,3.5837,3.5633,3.5526,3.5191,3.4464,3.3748,3.3335,3.2532,3.1595,3.1087,3.0807,3.0747,3.0644,3.1319,3.1834,3.1349,3.1522,3.1724,3.1667,3.1552,3.1567,3.1049,3.1076,3.1792,3.1049,2.9479,3.006,3.0262,2.9943,2.8555,3.0187,3.2294,3.3372,3.9439,3.8857,3.8971,3.9008,3.8943,3.8718,3.8646,3.8748,3.9054,3.9421,3.9845,3.9867,3.9804,3.9717,3.9712,3.9647,3.9575,3.9526,3.9502,3.9502,3.9452,3.9401,3.9331,3.9272,3.9165,3.8892,3.8833,3.8725,3.8415,3.8396,3.8252,3.8018,3.7933,3.7863,3.7703,3.7667,3.7667,3.7667,3.7739,3.7775,3.7775,3.7631,3.7522,3.7208,3.6684,3.6232,3.6037,3.5667,3.5566,3.5566,3.5701,3.5817,3.5905,3.6079,3.6208,3.6251,3.6216,3.6343,3.6561,3.6402,3.6591,3.6873,3.6992,3.7279,3.7503,3.754,3.754,3.7503,3.7503,3.754,3.7649,3.7739,3.7685,3.7468,3.7097,3.679,3.6394,3.5993,3.5718,3.5722,3.5487,3.5239,3.5081,3.4977,3.4866,3.4513,3.3885,3.3371,3.2949,3.2226,3.1233,3.0703,3.0404,3.0524,3.0615,3.1519,3.1819,3.1276,3.119,3.161,3.1567,3.1351,3.1482,3.1727,3.1784,3.1784,3.1582,3.1144,3.1509,3.1625,3.1811,3.1388,3.2908,3.3751,3.4333,3.9483,3.9261,3.9313,3.9338,3.9261,3.8748,3.8628,3.8886,3.932,3.9604,3.9647,3.9735,3.9693,3.9599,3.9575,3.9532,3.9502,3.9401,3.9376,3.9376,3.9317,3.9237,3.9183,3.9165,3.9082,3.9017,3.896,3.8873,3.8683,3.8634,3.8382,3.8086,3.788,3.7721,3.7649,3.7631,3.7595,3.7613,3.7667,3.7703,3.7739,3.7739,3.7667,3.7468,3.6878,3.6416,3.6207,3.5783,3.5503,3.5566,3.5701,3.5773,3.5861,3.6036,3.6036,3.6122,3.6088,3.6216,3.6485,3.6492,3.6615,3.6834,3.697,3.7164,3.7203,3.7203,3.7259,3.7354,3.7354,3.7354,3.741,3.7317,3.7203,3.6776,3.6416,3.6147,3.5769,3.5301,3.5015,3.5245,3.5152,3.5115,3.4977,3.4464,3.4251,3.4018,3.3491,3.2803,3.2312,3.1607,3.0763,3.0343,3.004,3.0208,3.06,3.1462,3.1931,3.1564,3.1537,3.1781,3.1625,3.1249,3.1307,3.1539,3.1612,3.1612,3.1524,3.1452,3.1467,3.1582,3.1769,3.2135,3.2895,3.3547,3.4119,3.9458,3.9427,3.9376,3.9324,3.92,3.8855,3.8807,3.9045,3.9433,3.9551,3.9551,3.958,3.9556,3.9458,3.9408,3.9383,3.9376,3.9272,3.9219,3.9219,3.9156,3.9129,3.9129,3.9101,3.9082,3.9101,3.9101,3.9017,3.8921,3.8892,3.8695,3.835,3.7915,3.7898,3.7828,3.7774,3.7613,3.7613,3.7613,3.7631,3.7649,3.7649,3.7631,3.7431,3.7017,3.6563,3.6416,3.6097,3.5694,3.58,3.5888,3.5975,3.6088,3.6216,3.6259,3.6385,3.6533,3.6533,3.6516,3.69,3.6978,3.6917,3.6992,3.7087,3.7241,3.7411,3.7504,3.7522,3.7299,3.7279,3.7334,3.7164,3.6952,3.6574,3.6266,3.602,3.5776,3.5307,3.4769,3.4934,3.4855,3.4853,3.4804,3.4152,3.3665,3.3387,3.3033,3.2382,3.1781,3.1116,3.0644,3.0358,3.0115,3.0283,3.0733,3.1477,3.1777,3.1807,3.1879,3.1951,3.161,3.1278,3.1292,3.1307,3.1366,3.1482,3.1467,3.1467,3.1467,3.1482,3.1597,3.212,3.2788,3.3303,3.3767,3.9427,3.9272,3.9156,3.8989,3.8862,3.9007,3.9073,3.9101,3.9129,3.9272,3.9458,3.9458,3.9427,3.9324,3.9298,3.9245,3.9183,3.9129,3.9129,3.9129,3.9101,3.9101,3.9101,3.9101,3.9101,3.9101,3.9082,3.9101,3.9073,3.9007,3.8862,3.8634,3.8101,3.8086,3.8036,3.7863,3.7685,3.7757,3.7721,3.7721,3.7721,3.7613,3.7613,3.7449,3.7111,3.686,3.6661,3.6416,3.6291,3.635,3.6533,3.6638,3.6816,3.6974,3.7052,3.7129,3.7206,3.6978,3.6724,3.7152,3.7321,3.7208,3.7301,3.7394,3.7504,3.7632,3.7721,3.7721,3.7613,3.7559,3.7485,3.7319,3.715,3.6843,3.6545,3.6298,3.6079,3.5571,3.4916,3.4644,3.4398,3.4349,3.4333,3.385,3.3303,3.2949,3.2641,3.2272,3.1667,3.0999,3.0658,3.0687,3.0493,3.0404,3.0925,3.1549,3.1679,3.1751,3.1807,3.1879,3.1537,3.1204,3.1176,3.1117,3.1234,3.1292,3.1366,3.1366,3.1409,3.1482,3.1439,3.191,3.2532,3.2841,3.3303,3.9192,3.9156,3.9129,3.9073,3.9017,3.9073,3.9036,3.895,3.9219,3.935,3.9237,3.9324,3.9272,3.9183,3.9156,3.9129,3.9129,3.9101,3.9101,3.9101,3.9101,3.9101,3.9101,3.9101,3.9101,3.9101,3.9101,3.9101,3.9045,3.8989,3.8815,3.8585,3.8135,3.8119,3.807,3.7863,3.7949,3.7984,3.7915,3.7863,3.7792,3.7685,3.7649,3.7485,3.7206,3.6995,3.6878,3.6563,3.644,3.6498,3.6498,3.658,3.6816,3.6873,3.6913,3.7147,3.7319,3.7413,3.7114,3.7432,3.7667,3.7542,3.7596,3.7596,3.7632,3.7703,3.7844,3.7897,3.7792,3.765,3.7431,3.7226,3.6978,3.6661,3.6399,3.6165,3.5933,3.5474,3.4844,3.4546,3.4349,3.4151,3.4084,3.3697,3.3145,3.268,3.2256,3.1992,3.161,3.0999,3.0777,3.0881,3.0866,3.0777,3.0999,3.158,3.158,3.1637,3.1751,3.1652,3.1248,3.0984,3.094,3.0999,3.1058,3.1132,3.1205,3.1264,3.1307,3.1249,3.1264,3.1739,3.2176,3.2477,3.2788,3.9027,3.9007,3.9073,3.9101,3.9101,3.9101,3.9017,3.9007,3.9219,3.9245,3.9129,3.921,3.9165,3.9129,3.9101,3.9101,3.9101,3.9101,3.9101,3.9101,3.9101,3.9101,3.9101,3.9101,3.9101,3.9101,3.9073,3.9045,3.896,3.8815,3.8664,3.8455,3.8083,3.8168,3.8186,3.8153,3.8117,3.8168,3.8119,3.8036,3.7898,3.7757,3.7649,3.754,3.7243,3.7206,3.7167,3.6803,3.6821,3.686,3.686,3.6978,3.7206,3.7243,3.7243,3.7485,3.7703,3.7721,3.7559,3.7791,3.7844,3.7809,3.7931,3.8034,3.8034,3.8101,3.8186,3.8186,3.7931,3.765,3.7358,3.7017,3.6678,3.6367,3.6174,3.5958,3.5579,3.5209,3.4881,3.4627,3.4381,3.4167,3.3866,3.3475,3.3145,3.2895,3.2516,3.2104,3.1766,3.1248,3.1087,3.1117,3.1161,3.1131,3.1422,3.1595,3.1766,3.1751,3.1595,3.1437,3.097,3.0747,3.0687,3.0821,3.0955,3.1014,3.1028,3.1087,3.1146,3.1087,3.1087,3.1351,3.1739,3.2104,3.2407,3.896,3.8881,3.9036,3.9101,3.9101,3.9101,3.9101,3.9101,3.911,3.9082,3.9101,3.9101,3.9129,3.9101,3.9101,3.9101,3.9101,3.9101,3.9101,3.9101,3.9017,3.9045,3.9101,3.9073,3.9045,3.9073,3.9073,3.9017,3.8862,3.8743,3.8615,3.8323,3.8346,3.8346,3.8263,3.83,3.8314,3.841,3.8186,3.7985,3.7898,3.7757,3.7577,3.7577,3.7577,3.754,3.7577,3.7577,3.7577,3.7613,3.7595,3.7595,3.7667,3.7774,3.7774,3.7845,3.802,3.8002,3.7949,3.8086,3.8219,3.8252,3.8401,3.8318,3.8285,3.8318,3.8368,3.8401,3.8168,3.7756,3.7414,3.7114,3.6781,3.6367,3.6088,3.5975,3.583,3.5396,3.4901,3.4611,3.4299,3.4101,3.405,3.3662,3.3371,3.3145,3.2879,3.2407,3.1921,3.1537,3.1336,3.1351,3.1351,3.1379,3.1667,3.1838,3.1992,3.1936,3.161,3.1263,3.0925,3.0687,3.0387,3.0522,3.0657,3.0776,3.0895,3.0895,3.0955,3.0955,3.0955,3.1014,3.1292,3.1709,3.1823,3.895,3.9036,3.9073,3.9101,3.9101,3.9101,3.9101,3.9101,3.9101,3.9101,3.9101,3.9101,3.9101,3.9101,3.9101,3.9101,3.9101,3.9101,3.9101,3.9045,3.896,3.896,3.8998,3.8931,3.896,3.9073,3.9073,3.8942,3.8844,3.8785,3.8628,3.8245,3.8296,3.8296,3.8212,3.8267,3.8396,3.8566,3.8267,3.7933,3.7792,3.7721,3.7577,3.7577,3.7577,3.7577,3.7577,3.7577,3.7577,3.7613,3.7613,3.7631,3.7703,3.7862,3.7931,3.7984,3.814,3.814,3.8174,3.8189,3.8256,3.8256,3.8289,3.8322,3.8354,3.8451,3.8465,3.8496,3.83,3.7895,3.7451,3.7152,3.6803,3.6392,3.6019,3.6019,3.6036,3.5481,3.4925,3.4561,3.4233,3.4117,3.405,3.3933,3.3646,3.3407,3.3235,3.2864,3.2351,3.1921,3.1422,3.1394,3.1467,3.1567,3.1811,3.191,3.1951,3.1766,3.1364,3.1087,3.0866,3.0507,3.0205,3.0219,3.0341,3.0568,3.0747,3.0702,3.0702,3.0911,3.1029,3.1146,3.1087,3.1291,3.1263,3.895,3.8979,3.9073,3.9101,3.9101,3.9101,3.9101,3.9101,3.9101,3.9101,3.9101,3.9101,3.9101,3.9101,3.9101,3.9101,3.9101,3.9073,3.9045,3.8989,3.8902,3.8844,3.8815,3.8766,3.8725,3.8766,3.8566,3.8473,3.8676,3.8442,3.8216,3.8013,3.8099,3.8332,3.8216,3.8267,3.8364,3.8535,3.8216,3.7931,3.7721,3.7613,3.7577,3.7577,3.7577,3.7577,3.7577,3.7577,3.7577,3.7577,3.7613,3.7649,3.7703,3.7863,3.7949,3.8002,3.814,3.8192,3.8192,3.8192,3.8192,3.8225,3.8225,3.8274,3.8307,3.8354,3.8387,3.8401,3.8415,3.805,3.7487,3.7076,3.6661,3.6241,3.5915,3.5783,3.5667,3.5333,3.4965,3.4792,3.4412,3.4101,3.4101,3.405,3.3866,3.3815,3.3578,3.3108,3.2625,3.213,3.1751,3.1422,3.1437,3.1554,3.1787,3.1799,3.1796,3.1552,3.1131,3.0718,3.0372,3.019,2.996,3.0205,3.0433,3.0658,3.0718,3.0777,3.1087,3.1462,3.1405,3.1362,3.1261,3.1145,3.1175,3.895,3.8833,3.9017,3.9101,3.9101,3.9101,3.9101,3.9101,3.9101,3.9101,3.9101,3.9101,3.9101,3.9101,3.9073,3.9073,3.9073,3.8989,3.8979,3.895,3.8862,3.8815,3.8707,3.8615,3.8634,3.851,3.8332,3.8263,3.8342,3.8165,3.7998,3.7756,3.8016,3.8451,3.8336,3.835,3.8446,3.8267,3.7982,3.7827,3.7703,3.7577,3.7577,3.7577,3.7577,3.7577,3.7577,3.7577,3.7577,3.7577,3.7613,3.7613,3.7685,3.7792,3.7845,3.7933,3.8038,3.8124,3.8158,3.8158,3.8174,3.8174,3.8192,3.8225,3.8241,3.8274,3.8307,3.8322,3.8368,3.8117,3.7524,3.7114,3.6661,3.6156,3.5871,3.5605,3.5396,3.5135,3.4922,3.4772,3.4408,3.4064,3.405,3.405,3.405,3.405,3.3781,3.3298,3.2765,3.2226,3.1705,3.1435,3.1276,3.1482,3.1672,3.1715,3.164,3.1248,3.0822,3.0343,2.9993,3.0007,3.0129,3.0464,3.0689,3.1028,3.113,3.1188,3.1546,3.1967,3.1758,3.166,3.1942,3.1773,3.1405,3.8851,3.8822,3.9036,3.9101,3.9101,3.9101,3.9101,3.9101,3.9101,3.9101,3.9101,3.9101,3.9101,3.9101,3.9036,3.9007,3.9007,3.895,3.8921,3.891,3.8743,3.8725,3.8664,3.846,3.8634,3.8523,3.8396,3.8442,3.8096,3.8013,3.7911,3.756,3.7948,3.8219,3.8186,3.8252,3.8285,3.8083,3.7756,3.7523,3.7667,3.7613,3.7613,3.7577,3.7577,3.7577,3.7577,3.7577,3.7577,3.7577,3.7613,3.7613,3.7649,3.7703,3.7774,3.781,3.7951,3.802,3.8054,3.8088,3.8122,3.8192,3.8192,3.8192,3.8225,3.8225,3.8259,3.8259,3.8189,3.8,3.7578,3.7432,3.7076,3.635,3.5871,3.5622,3.5412,3.4949,3.4545,3.4272,3.3946,3.3822,3.3797,3.3797,3.3745,3.3678,3.3403,3.2964,3.2749,3.2266,3.169,3.142,3.1145,3.1203,3.1306,3.1439,3.1336,3.0955,3.0569,3.0147,2.9979,3.0068,3.0297,3.0881,3.1332,3.1732,3.1732,3.1814,3.2023,3.2322,3.2063,3.2023,3.2353,3.2353,3.1998]}]]